[[{"header":{"parameterUnit":"m.s-1","parameterCategory":1,"la1":31.0,"la2":29.5877,"lo1":-88.7671,"lo2":-86.6584,"dy":0.0162,"dx":0.0185,"nx":115,"ny":88,"refTime":"2026-03-29T00:00:00:Z","depth":0,"parameterNumber":2,"parameterNumberName":"U-component_of_WINDS"},"data":[0.0,0.0,0.0,0.0,0.0,0.0,0.0,0.0,0.0,0.0,0.0,0.0,0.0,0.0,0.0,0.0,0.0,0.0,0.0,0.0,0.0,0.0,0.0,0.0,0.0,0.0,0.0,0.0,0.0,0.0,0.0,0.0,0.0,0.0,0.0,0.0,0.0,0.0,0.0,0.0,0.0,0.0,0.0,0.0,0.0,0.0,0.0,0.0,0.0,0.0,0.0,0.0,0.0,0.0,0.0,0.0,0.0,0.0,0.0,0.0,0.0,0.0,0.0,0.0,0.0,0.0,0.0,0.0,0.0,0.0,0.0,0.0,0.0,0.0,0.0,0.0,0.0,0.0,0.0,0.0,0.0,0.0,0.0,0.0,0.0,0.0,0.0,0.0,0.0,0.0,0.0,0.0,0.0,0.0,0.0,0.0,0.0,0.0,0.0,0.0,0.0,0.0,0.0,0.0,0.0,0.0,0.0,0.0,0.0,0.0,0.0,0.0,0.0,0.0,0.0,0.0,0.0,0.0,0.0,0.0,0.0,0.0,0.0,0.0,0.0,0.0,0.0,0.0,0.0,0.0,0.0,0.0,0.0,0.0,0.0,0.0,0.0,0.0,0.0,0.0,0.0,0.0,0.0,0.0,0.0,0.0,0.0,0.0,0.0,0.0,0.0,0.0,0.0,0.0,0.0,0.0,0.0,0.0,0.0,0.0,0.0,0.0,0.0,0.0,0.0,0.0,0.0,0.0,0.0,0.0,0.0,0.0,0.0,0.0,0.0,0.0,0.0,0.0,0.0,0.0,0.0,0.0,0.0,0.0,0.0,0.0,0.0,0.0,0.0,0.0,0.0,0.0,0.0,0.0,0.0,0.0,0.0,0.0,0.0,0.0,0.0,0.0,0.0,0.0,0.0,0.0,0.0,0.0,0.0,0.0,0.0,0.0,0.0,0.0,0.0,0.0,0.0,0.0,0.0,0.0,0.0,0.0,0.0,0.0,0.0,0.0,0.0,0.0,0.0,0.0,0.0,0.0,0.0,0.0,0.0,0.0,0.0,0.0,0.0,0.0,0.0,0.0,0.0,0.0,0.0,0.0,0.0,0.0,0.0,0.0,0.0,0.0,0.0,0.0,0.0,0.0,0.0,0.0,0.0,0.0,0.0,0.0,0.0,0.0,0.0,0.0,0.0,0.0,0.0,0.0,0.0,0.0,0.0,0.0,0.0,0.0,0.0,0.0,0.0,0.0,0.0,0.0,0.0,0.0,0.0,0.0,0.0,0.0,0.0,0.0,0.0,0.0,0.0,0.0,0.0,0.0,0.0,0.0,0.0,0.0,0.0,0.0,0.0,0.0,0.0,0.0,0.0,0.0,0.0,0.0,0.0,0.0,0.0,0.0,0.0,0.0,0.0,0.0,0.0,0.0,0.0,0.0,0.0,0.0,0.0,0.0,0.0,0.0,0.0,0.0,0.0,0.0,0.0,0.0,0.0,0.0,0.0,0.0,0.0,0.0,0.0,0.0,0.0,0.0,0.0,0.0,0.0,0.0,0.0,0.0,0.0,0.0,0.0,0.0,0.0,0.0,0.0,0.0,0.0,0.0,0.0,0.0,0.0,0.0,0.0,0.0,0.0,0.0,0.0,0.0,0.0,0.0,0.0,0.0,0.0,0.0,0.0,0.0,0.0,0.0,0.0,0.0,0.0,0.0,0.0,0.0,0.0,0.0,0.0,0.0,0.0,0.0,0.0,0.0,0.0,0.0,0.0,0.0,0.0,0.0,0.0,0.0,0.0,0.0,0.0,0.0,0.0,0.0,0.0,0.0,0.0,0.0,0.0,0.0,0.0,0.0,0.0,0.0,0.0,0.0,0.0,0.0,0.0,0.0,0.0,0.0,0.0,0.0,0.0,0.0,0.0,0.0,0.0,0.0,0.0,0.0,0.0,0.0,0.0,0.0,0.0,0.0,0.0,0.0,0.0,0.0,0.0,0.0,0.0,0.0,0.0,0.0,0.0,0.0,0.0,0.0,0.0,0.0,0.0,0.0,0.0,0.0,0.0,0.0,0.0,0.0,0.0,0.0,0.0,0.0,0.0,0.0,0.0,0.0,0.0,0.0,0.0,0.0,0.0,0.0,0.0,0.0,0.0,0.0,0.0,0.0,0.0,0.0,0.0,0.0,0.0,0.0,0.0,0.0,0.0,0.0,0.0,0.0,0.0,0.0,0.0,0.0,0.0,0.0,0.0,0.0,0.0,0.0,0.0,0.0,0.0,0.0,0.0,0.0,0.0,0.0,0.0,0.0,0.0,0.0,0.0,0.0,0.0,0.0,0.0,0.0,0.0,0.0,0.0,0.0,0.0,0.0,0.0,0.0,0.0,0.0,0.0,0.0,0.0,0.0,0.0,0.0,0.0,0.0,0.0,0.0,0.0,0.0,0.0,0.0,0.0,0.0,0.0,0.0,0.0,0.0,0.0,0.0,0.0,0.0,0.0,0.0,0.0,0.0,0.0,0.0,0.0,0.0,0.0,0.0,0.0,0.0,0.0,0.0,0.0,0.0,0.0,0.0,0.0,0.0,0.0,0.0,0.0,0.0,0.0,0.0,0.0,0.0,0.0,0.0,0.0,0.0,0.0,0.0,0.0,0.0,0.0,0.0,0.0,0.0,0.0,0.0,0.0,0.0,0.0,0.0,0.0,0.0,0.0,0.0,0.0,0.0,0.0,0.0,0.0,0.0,0.0,0.0,0.0,0.0,0.0,0.0,0.0,0.0,0.0,0.0,0.0,0.0,0.0,0.0,0.0,0.0,0.0,0.0,0.0,0.0,0.0,0.0,0.0,0.0,0.0,0.0,0.0,0.0,0.0,0.0,0.0,0.0,0.0,0.0,0.0,0.0,0.0,0.0,0.0,0.0,0.0,0.0,0.0,0.0,0.0,0.0,0.0,0.0,0.0,0.0,0.0,0.0,0.0,0.0,0.0,0.0,0.0,0.0,0.0,0.0,0.0,0.0,0.0,0.0,0.0,0.0,0.0,0.0,0.0,0.0,0.0,0.0,0.0,0.0,0.0,0.0,0.0,0.0,0.0,0.0,0.0,0.0,0.0,0.0,0.0,0.0,0.0,0.0,0.0,0.0,0.0,0.0,0.0,0.0,0.0,0.0,0.0,0.0,0.0,0.0,0.0,0.0,0.0,0.0,0.0,0.0,0.0,0.0,0.0,0.0,0.0,0.0,0.0,0.0,0.0,0.0,0.0,0.0,0.0,0.0,0.0,0.0,0.0,0.0,0.0,0.0,0.0,0.0,0.0,0.0,0.0,0.0,0.0,0.0,0.0,0.0,0.0,0.0,0.0,0.0,0.0,0.0,0.0,0.0,0.0,0.0,0.0,0.0,0.0,0.0,0.0,0.0,0.0,0.0,0.0,0.0,0.0,0.0,0.0,0.0,0.0,0.0,0.0,0.0,0.0,0.0,0.0,0.0,0.0,0.0,0.0,0.0,0.0,0.0,0.0,0.0,0.0,0.0,0.0,0.0,0.0,0.0,0.0,0.0,0.0,0.0,0.0,0.0,0.0,0.0,0.0,0.0,0.0,0.0,0.0,0.0,0.0,0.0,0.0,0.0,0.0,0.0,0.0,0.0,0.0,0.0,0.0,0.0,0.0,0.0,0.0,0.0,0.0,0.0,0.0,0.0,0.0,0.0,0.0,0.0,0.0,0.0,0.0,0.0,0.0,0.0,0.0,0.0,0.0,0.0,0.0,0.0,0.0,0.0,0.0,0.0,0.0,0.0,0.0,0.0,0.0,0.0,0.0,0.0,0.0,0.0,0.0,0.0,0.0,0.0,0.0,0.0,0.0,0.0,0.0,0.0,0.0,0.0,0.0,0.0,0.0,0.0,0.0,0.0,0.0,0.0,0.0,0.0,0.0,0.0,0.0,0.0,0.0,0.0,0.0,0.0,0.0,0.0,0.0,0.0,0.0,0.0,0.0,0.0,0.0,0.0,0.0,0.0,0.0,0.0,0.0,0.0,0.0,0.0,0.0,0.0,0.0,0.0,0.0,0.0,0.0,0.0,0.0,0.0,0.0,0.0,0.0,0.0,0.0,0.0,0.0,0.0,0.0,0.0,0.0,0.0,0.0,0.0,0.0,0.0,0.0,0.0,0.0,0.0,0.0,0.0,0.0,0.0,0.0,0.0,0.0,0.0,0.0,0.0,0.0,0.0,0.0,0.0,0.0,0.0,0.0,0.0,0.0,0.0,0.0,0.0,0.0,0.0,0.0,0.0,-0.2411,0.0,0.0,0.0,0.0,0.0,0.0,0.0,0.0,0.0,0.0,0.0,0.0,0.0,0.0,0.0,0.0,0.0,0.0,0.0,0.0,0.0,0.0,0.0,0.0,0.0,0.0,0.0,0.0,0.0,0.0,0.0,0.0,0.0,0.0,0.0,0.0,0.0,0.0,0.0,0.0,0.0,0.0,0.0,0.0,0.0,0.0,0.0,0.0,0.0,0.0,0.0,0.0,0.0,0.0,0.0,0.0,0.0,0.0,0.0,0.0,0.0,0.0,0.0,0.0,0.0,0.0,0.0,0.0,0.0,0.0,0.0,0.0,0.0,0.0,0.0,0.0,0.0,0.0,0.0,0.0,0.0,0.0,0.0,0.0,0.0,0.0,0.0,0.0,0.0,0.0,0.0,0.0,0.0,0.0,0.0,0.0,0.0,0.0,0.0,0.0,0.0,0.0,0.0,0.0,0.0,0.0,0.0,0.0,0.0,0.0,-0.2572,-0.2331,-0.2498,-0.2482,-0.2242,0.0,0.0,0.0,0.0,0.0,0.0,0.0,0.0,0.0,0.0,0.0,0.0,0.0,0.0,0.0,0.0,0.0,0.0,0.0,0.0,0.0,0.0,0.0,0.0,0.0,0.0,0.0,0.0,0.0,0.0,0.0,0.0,0.0,0.0,0.0,0.0,0.0,0.0,0.0,0.0,0.0,0.0,0.0,0.0,0.0,0.0,0.0,0.0,0.0,0.0,0.0,0.0,0.0,0.0,0.0,0.0,0.0,0.0,0.0,0.0,0.0,0.0,0.0,0.0,0.0,0.0,0.0,0.0,0.0,0.0,0.0,0.0,0.0,0.0,0.0,0.0,0.0,0.0,0.0,0.0,0.0,0.0,0.0,0.0,0.0,0.0,0.0,0.0,0.0,0.0,0.0,0.0,0.0,0.0,0.0,0.0,0.0,0.0,0.0,0.0,0.0,0.0,0.0,0.0,0.0,0.0,0.0,0.0,0.0,0.0,0.0,0.0,-0.2514,-0.2617,-0.2272,0.0,0.0,0.0,0.0,0.0,0.0,0.0,0.0,0.0,0.0,0.0,0.0,0.0,0.0,0.0,0.0,0.0,0.0,0.0,0.0,0.0,0.0,0.0,0.0,0.0,0.0,0.0,0.0,0.0,0.0,0.0,0.0,0.0,0.0,0.0,0.0,0.0,0.0,0.0,0.0,0.0,0.0,0.0,0.0,0.0,0.0,0.0,0.0,0.0,0.0,0.0,0.0,0.0,0.0,0.0,0.0,0.0,0.0,0.0,0.0,0.0,0.0,0.0,0.0,0.0,0.0,0.0,0.0,0.0,0.0,0.0,0.0,0.0,0.0,0.0,0.0,0.0,0.0,0.0,0.0,0.0,0.0,0.0,0.0,0.0,0.0,0.0,0.0,0.0,0.0,0.0,0.0,0.0,0.0,0.0,0.0,0.0,0.0,0.0,0.0,0.0,0.0,0.0,0.0,0.0,0.0,0.0,0.0,0.0,0.0,-0.248,-0.2033,-0.2682,0.0,-0.2984,0.0,0.0,0.0,0.0,0.0,0.0,0.0,0.0,0.0,0.0,0.0,0.0,0.0,0.0,0.0,0.0,0.0,0.0,0.0,0.0,0.0,0.0,0.0,0.0,0.0,0.0,0.0,0.0,0.0,0.0,0.0,0.0,0.0,0.0,0.0,0.0,0.0,0.0,0.0,0.0,0.0,0.0,0.0,0.0,0.0,0.0,0.0,0.0,0.0,0.0,0.0,0.0,0.0,0.0,0.0,0.0,0.0,0.0,0.0,0.0,0.0,0.0,0.0,0.0,0.0,0.0,0.0,0.0,0.0,0.0,0.0,0.0,0.0,0.0,0.0,0.0,0.0,0.0,0.0,0.0,0.0,0.0,0.0,0.0,0.0,0.0,0.0,0.0,0.0,0.0,0.0,0.0,0.0,0.0,0.0,0.0,0.0,0.0,0.0,0.0,0.0,0.0,0.0,0.0,0.0,0.0,0.0,0.0,0.0,0.0,-0.2053,-0.1602,-0.2156,-0.2544,0.0,0.0,0.0,0.0,0.0,0.0,0.0,0.0,0.0,0.0,0.0,0.0,0.0,0.0,0.0,0.0,0.0,0.0,0.0,0.0,0.0,0.0,0.0,0.0,0.0,0.0,0.0,0.0,0.0,0.0,0.0,0.0,0.0,0.0,0.0,0.0,0.0,0.0,0.0,0.0,0.0,0.0,0.0,0.0,0.0,0.0,0.0,0.0,0.0,0.0,0.0,0.0,0.0,0.0,0.0,0.0,0.0,0.0,0.0,0.0,0.0,0.0,0.0,0.0,0.0,0.0,0.0,0.0,0.0,0.0,0.0,0.0,0.0,0.0,0.0,0.0,0.0,0.0,0.0,0.0,0.0,0.0,0.0,0.0,0.0,0.0,0.0,0.0,0.0,0.0,0.0,0.0,0.0,0.0,0.0,0.0,0.0,0.0,0.0,0.0,0.0,0.0,0.0,0.0,0.0,0.0,0.0,0.0,0.0,0.0,-0.2052,-0.1816,-0.1479,-0.1968,-0.2272,-0.2314,0.0,0.0,0.0,0.0,0.0,0.0,0.0,0.0,0.0,0.0,0.0,0.0,0.0,0.0,0.0,0.0,0.0,0.0,0.0,0.0,0.0,0.0,0.0,0.0,0.0,0.0,0.0,0.0,0.0,0.0,0.0,0.0,0.0,0.0,0.0,0.0,0.0,0.0,0.0,0.0,0.0,0.0,0.0,0.0,0.0,0.0,0.0,0.0,0.0,0.0,0.0,0.0,0.0,0.0,0.0,0.0,0.0,0.0,0.0,0.0,0.0,0.0,0.0,0.0,0.0,0.0,0.0,0.0,0.0,0.0,0.0,0.0,0.0,0.0,0.0,0.0,0.0,0.0,0.0,0.0,0.0,0.0,0.0,0.0,0.0,0.0,0.0,0.0,0.0,0.0,0.0,0.0,0.0,0.0,0.0,0.0,0.0,0.0,0.0,0.0,0.0,0.0,0.0,0.0,0.0,0.0,0.0,0.0,0.0,-0.2149,-0.1925,-0.1781,-0.248,-0.2524,0.0,0.0,0.0,0.0,0.0,0.0,0.0,0.0,0.0,0.0,0.0,0.0,0.0,0.0,0.0,0.0,0.0,0.0,0.0,0.0,0.0,0.0,0.0,0.0,0.0,0.0,0.0,0.0,0.0,0.0,0.0,0.0,0.0,0.0,0.0,0.0,0.0,0.0,0.0,0.0,0.0,0.0,0.0,0.0,0.0,0.0,0.0,0.0,0.0,0.0,0.0,0.0,0.0,0.0,0.0,0.0,0.0,0.0,0.0,0.0,0.0,0.0,0.0,0.0,0.0,0.0,0.0,0.0,0.0,0.0,0.0,0.0,0.0,0.0,0.0,0.0,0.0,0.0,0.0,0.0,0.0,0.0,0.0,0.0,0.0,0.0,0.0,0.0,0.0,0.0,0.0,0.0,0.0,0.0,0.0,0.0,0.0,0.0,0.0,0.0,0.0,0.0,0.0,0.0,0.0,0.0,0.0,0.0,0.0,-0.2174,-0.152,-0.1375,-0.1779,-0.1613,-0.1445,0.0,0.0,0.0,0.0,0.0,0.0,0.0,0.0,0.0,0.0,0.0,0.0,0.0,0.0,0.0,0.0,0.0,0.0,0.0,0.0,0.0,0.0,0.0,0.0,0.0,0.0,0.0,0.0,0.0,0.0,0.0,0.0,0.0,0.0,0.0,0.0,0.0,0.0,0.0,0.0,0.0,0.0,0.0,0.0,0.0,0.0,0.0,0.0,0.0,0.0,0.0,0.0,0.0,0.0,0.0,0.0,0.0,0.0,0.0,0.0,0.0,0.0,0.0,0.0,0.0,0.0,0.0,0.0,0.0,0.0,0.0,0.0,0.0,0.0,0.0,0.0,0.0,0.0,0.0,0.0,0.0,0.0,0.0,0.0,0.0,0.0,0.0,0.0,0.0,0.0,0.0,0.0,0.0,0.0,0.0,0.0,0.0,0.0,0.0,0.0,0.0,0.0,0.0,0.0,0.0,0.0,0.0,0.0,0.0,-0.1794,0.0,-0.1216,-0.1191,-0.0981,-0.0793,0.0,0.0,0.0,0.0,0.0,0.0,0.0,0.0,0.0,0.0,0.0,0.0,0.0,0.0,0.0,0.0,0.0,0.0,0.0,0.0,0.0,0.0,0.0,0.0,0.0,0.0,0.0,0.0,0.0,0.0,0.0,0.0,0.0,0.0,0.0,0.0,0.0,0.0,0.0,0.0,0.0,0.0,0.0,0.0,0.0,0.0,0.0,0.0,0.0,0.0,0.0,0.0,0.0,0.0,0.0,0.0,0.0,0.0,0.0,0.0,0.0,0.0,0.0,0.0,0.0,0.0,0.0,0.0,0.0,0.0,0.0,0.0,0.0,0.0,0.0,0.0,0.0,0.0,0.0,0.0,0.0,0.0,0.0,0.0,0.0,0.0,0.0,0.0,0.0,0.0,0.0,0.0,0.0,0.0,0.0,0.0,0.0,0.0,0.0,0.0,0.0,0.0,0.0,0.0,0.0,0.0,0.0,0.0,-0.2294,-0.1409,-0.1884,-0.1494,-0.0113,-0.0726,-0.0735,0.0,0.0,0.0,0.0,0.0,0.0,0.0,0.0,0.0,0.0,0.0,0.0,0.0,0.0,0.0,0.0,0.0,0.0,0.0,0.0,0.0,0.0,0.0,0.0,0.0,0.0,0.0,0.0,0.0,0.0,0.0,0.0,0.0,0.0,0.0,0.0,0.0,0.0,0.0,0.0,0.0,0.0,0.0,0.0,0.0,0.0,0.0,0.0,0.0,0.0,0.0,0.0,0.0,0.0,0.0,0.0,0.0,0.0,0.0,0.0,0.0,0.0,0.0,0.0,0.0,0.0,0.0,0.0,0.0,0.0,0.0,0.0,0.0,0.0,0.0,0.0,0.0,0.0,0.0,0.0,0.0,0.0,0.0,0.0,0.0,0.0,0.0,0.0,0.0,0.0,0.0,0.0,0.0,0.0,0.0,0.0,0.0,0.0,0.0,0.0,0.0,0.0,0.0,0.0,0.0,0.0,0.0,0.0,0.0,-0.2681,-0.2191,-0.1707,-0.1246,-0.0665,-0.0231,0.0,0.0,0.0,0.0,0.0,0.0,0.0,0.0,0.0,0.0,0.0,0.0,0.0,0.0,0.0,0.0,0.0,0.0,0.0,0.0,0.0,0.0,0.0,0.0,0.0,0.0,0.0,0.0,0.0,0.0,0.0,0.0,0.0,0.0,0.0,0.0,0.0,0.0,0.0,0.0,0.0,0.0,0.0,0.0,0.0,0.0,0.0,0.0,0.0,0.0,0.0,0.0,0.0,0.0,0.0,0.0,0.0,0.0,0.0,0.0,0.0,0.0,0.0,0.0,0.0,0.0,0.0,0.0,0.0,0.0,0.0,0.0,0.0,0.0,0.0,0.0,0.0,0.0,0.0,0.0,0.0,0.0,0.0,0.0,0.0,0.0,0.0,0.0,0.0,0.0,0.0,0.0,0.0,0.0,0.0,0.0,0.0,0.0,0.0,0.0,0.0,0.0,0.0,0.0,0.0,0.0,0.0,0.0,0.0,-0.3805,-0.294,-0.22,-0.163,-0.0876,-0.0333,0.0,0.0,0.0,0.0,0.0,0.0,0.0,0.0,0.0,0.0,0.0,0.0,0.0,0.0,0.0,0.0,0.0,0.0,0.0,0.0,0.0,0.0,0.0,0.0,0.0,0.0,0.0,0.0,0.0,0.0,0.0,0.0,0.0,0.0,0.0,0.0,0.0,0.0,0.0,0.0,0.0,0.0,0.0,0.0,0.0,0.0,0.0,0.0,0.0,0.0,0.0,0.0,0.0,0.0,0.0,0.0,0.0,0.0,0.0,0.0,0.0,0.0,0.0,0.0,0.0,0.0,0.0,0.0,0.0,0.0,0.0,0.0,0.0,0.0,0.0,0.0,0.0,0.0,0.0,0.0,0.0,0.0,0.0,0.0,0.0,0.0,0.0,0.0,0.0,0.0,0.0,0.0,0.0,0.0,0.0,0.0,0.0,0.0,0.0,0.0,0.0,0.0,0.0,0.0,0.0,0.0,0.0,0.0,0.0,-0.4707,-0.4077,-0.2995,-0.1518,-0.135,-0.0922,0.0,0.0,0.0,0.0,0.0,0.0,0.0,0.0,0.0,0.0,0.0,0.0,0.0,0.0,0.0,0.0,0.0,0.0,0.0,0.0,0.0,0.0,0.0,0.0,0.0,0.0,0.0,0.0,0.0,0.0,0.0,0.0,0.0,0.0,0.0,0.0,0.0,0.0,0.0,0.0,0.0,0.0,0.0,0.0,0.0,0.0,0.0,0.0,0.0,0.0,0.0,0.0,0.0,0.0,0.0,0.0,0.0,0.0,0.0,0.0,0.0,0.0,0.0,0.0,0.0,0.0,0.0,0.0,0.0,0.0,0.0,0.0,0.0,0.0,0.0,0.0,0.0,0.0,0.0,0.0,0.0,0.0,0.0,0.0,0.0,0.0,0.0,0.0,0.0,0.0,0.0,0.0,0.0,0.0,0.0,0.0,0.0,0.0,0.0,0.0,0.0,0.0,0.0,0.0,0.0,0.0,0.0,0.0,0.0,-0.4968,-0.5036,-0.4462,-0.3175,-0.1943,-0.1145,0.0,0.0,0.0,0.0,0.0,0.0,0.0,0.0,0.0,0.0,0.0,0.0,0.0,0.0,0.0,0.0,0.0,0.0,0.0,0.0,0.0,0.0,0.0,0.0,0.0,0.0,0.0,0.0,0.0,0.0,0.0,0.0,0.0,0.0,0.0,0.0,0.0,0.0,0.0,0.0,0.0,0.0,0.0,0.0,0.0,0.0,0.0,0.0,0.0,0.0,0.0,0.0,0.0,0.0,0.0,0.0,0.0,0.0,0.0,0.0,0.0,0.0,0.0,0.0,0.0,0.0,0.0,0.0,0.0,0.0,0.0,0.0,0.0,0.0,0.0,0.0,0.0,0.0,0.0,0.0,0.0,0.0,0.0,0.0,0.0,0.0,0.0,0.0,0.0,0.0,0.0,0.0,0.0,0.0,0.0,0.0,0.0,0.0,0.0,0.0,0.0,0.0,0.0,0.0,0.0,0.0,0.0,0.0,-0.5215,-0.5399,-0.5607,-0.5375,-0.4746,-0.2953,-0.1737,0.0,0.0,0.0,0.0,0.0,0.0,0.0,0.0,0.0,0.0,0.0,0.0,0.0,0.0,0.0,0.0,0.0,0.0,0.0,0.0,0.0,0.0,0.0,0.0,0.0,0.0,0.0,0.0,0.0,0.0,0.0,0.0,0.0,0.0,0.0,0.0,0.0,0.0,0.0,0.0,0.0,0.0,0.0,0.0,0.0,0.0,0.0,0.0,0.0,0.0,0.0,0.0,0.0,0.0,0.0,0.0,0.0,0.0,0.0,0.0,0.0,0.0,0.0,0.0,0.0,0.0,0.0,0.0,0.0,0.0,0.0,0.0,0.0,0.0,0.0,0.0,0.0,0.0,0.0,0.0,0.0,0.0,0.0,0.0,0.0,0.0,0.0,0.0,0.0,0.0,0.0,0.0,0.0,0.0,0.0,0.0,0.0,0.0,0.0,0.0,0.0,0.0,0.0,0.0,0.0,0.0,0.0,0.0,-0.5899,-0.5824,-0.5874,-0.5949,-0.5962,-0.3978,-0.244,0.0,0.0,0.0,0.0,0.0,0.0,0.0,0.0,0.0,0.0,0.0,0.0,0.0,0.0,0.0,0.0,0.0,0.0,0.0,0.0,0.0,0.0,0.0,0.0,0.0,0.0,0.0,0.0,0.0,0.0,0.0,0.0,0.0,0.0,0.0,0.0,0.0,0.0,0.0,0.0,0.0,0.0,0.0,0.0,0.0,0.0,0.0,0.0,0.0,0.0,0.0,0.0,0.0,0.0,0.0,0.0,0.0,0.0,0.0,0.0,0.0,0.0,0.0,0.0,0.0,0.0,0.0,0.0,0.0,0.0,0.0,0.0,0.0,0.0,0.0,0.0,0.0,0.0,0.0,0.0,0.0,0.0,0.0,0.0,0.0,0.0,0.0,0.0,0.0,0.0,0.0,0.0,0.0,0.0,0.0,0.0,0.0,0.0,0.0,0.0,0.0,0.0,0.0,0.0,0.0,0.0,0.0,0.0,-0.5664,-0.5969,-0.6309,-0.641,-0.6233,-0.4069,-0.2733,0.0,0.0,0.0,0.0,0.0,0.0,0.0,0.0,0.0,0.0,0.0,0.0,0.0,0.0,0.0,0.0,0.0,0.0,0.0,0.0,0.0,0.0,0.0,0.0,0.0,0.0,0.0,0.0,0.0,0.0,0.0,0.0,0.0,0.0,0.0,0.0,0.0,0.0,0.0,0.0,0.0,0.0,0.0,0.0,0.0,0.0,0.0,0.0,0.3457,0.0,0.0,0.0,0.0,0.0,0.0,0.0,0.0,0.0,0.0,0.0,0.0,0.0,0.0,0.0,0.0,0.0,0.0,0.0,0.0,0.0,0.0,0.0,0.0,0.0,0.0,0.0,0.0,0.0,0.0,0.0,0.0,0.0,0.0,0.0,0.0,0.0,0.0,0.0,0.0,0.0,0.0,0.0,0.0,0.0,0.0,0.0,0.0,0.0,0.0,0.0,0.0,0.0,0.0,0.0,0.0,0.0,0.0,0.0,-0.6603,-0.6348,-0.658,-0.6627,-0.6451,-0.4709,-0.3438,0.0,0.0,0.0,0.0,0.0,0.0,0.0,0.0,0.0,0.0,0.0,0.0,0.0,0.0,0.0,0.0,0.0,0.0,0.0,0.0,0.0,0.0,0.0,0.0,0.0,0.0,0.0,0.0,0.0,0.0,0.0,0.0,0.0,0.0,0.0,0.0,0.0,0.0,0.0,0.0,0.0,0.0,0.0,0.0,0.0,0.0,0.0,0.0,0.0,0.0,0.0,0.0,0.0,0.0,0.0,0.0,0.0,0.0,0.0,0.0,0.0,0.0,0.0,0.0,0.0,0.0,0.0,0.0,0.0,0.0,0.0,0.0,0.0,0.0,0.0,0.0,0.0,0.0,0.0,0.0,0.0,0.0,0.0,0.0,0.0,0.0,0.0,0.0,0.0,0.0,0.0,0.0,0.0,0.0,0.0,0.0,0.0,0.0,0.0,0.0,0.0,0.0,0.0,0.0,0.0,0.0,0.0,-0.7314,-0.7592,-0.6764,-0.6756,-0.6749,-0.6674,-0.5427,-0.4172,-0.297,0.0,0.0,0.0,0.0,0.0,0.0,0.0,0.0,0.0,0.0,0.0,0.0,0.0,0.0,0.0,0.0,0.0,0.0,0.0,0.0,0.0,0.0,0.0,0.0,0.0,0.0,0.0,0.0,0.0,0.0,0.0,0.0,0.0,0.0,0.0,0.0,0.0,0.0,-0.0044,0.0505,0.0,0.0,0.0,0.0,0.0,0.0,0.0,0.0,0.3025,0.0,0.0,0.0,0.0,0.0,0.0,0.0,0.0,0.0,0.0,0.0,0.0,0.0,0.0,0.0,0.0,0.0,0.0,0.0,0.0,0.0,0.0,0.0,0.0,0.0,0.0,0.0,0.0,0.0,0.0,0.0,0.0,0.0,0.0,0.0,0.0,0.0,0.0,0.0,0.0,0.0,0.0,0.0,0.0,0.0,0.0,0.0,0.0,0.0,0.0,0.0,0.0,0.0,0.0,0.0,0.0,-0.6715,-0.6977,-0.7037,-0.6893,-0.6985,-0.691,-0.6688,-0.5629,-0.4419,-0.3102,0.0,0.0,0.0,0.0,0.0,0.0,0.0,0.0,0.0,0.0,0.0,0.0,0.0,0.0,0.0,0.0,0.0,0.0,0.0,0.0,0.0,0.0,0.0,0.0,0.0,0.0,0.0,0.0,0.0,0.0,0.0,0.0,0.0,0.0,0.0,0.0,0.0,0.0,0.0,0.0511,0.0871,0.0,0.0,0.0,0.0,0.0,0.0,0.0,0.0,0.2878,0.0,0.0,0.0,0.0,0.0,0.0,0.0,0.0,0.0,0.0,0.0,0.0,0.0,0.0,0.0,0.0,0.0,0.0,0.0,0.0,0.0,0.0,0.0,0.0,0.0,0.0,0.0,0.0,0.0,0.0,0.0,0.0,0.0,0.0,0.0,0.0,0.0,0.0,0.0,0.0,0.0,0.0,0.0,0.0,0.0,0.0,0.0,0.0,0.0,0.0,0.0,0.0,0.0,0.0,0.0,-0.7216,-0.7824,-0.779,-0.7035,-0.7058,-0.6979,-0.6688,-0.5961,-0.4786,0.0,0.0,0.0,0.0,0.0,0.0,0.0,0.0,0.0,0.0,0.0,0.0,0.0,0.0,0.0,0.0,0.0,0.0,0.0,0.0,0.0,0.0,0.0,0.0,0.0,0.0,0.0,0.0,0.0,0.0,0.0,0.0,0.0,0.0,0.0,0.0,0.0,0.0,0.0,0.0,0.01,0.052,0.0778,0.0,0.0,0.0,0.0,0.0,0.0,0.2029,0.1998,0.0,0.0,0.0,0.0,0.0,0.0,0.0,0.0,0.0,0.0,0.0,0.0,0.0,0.0,0.0,0.0,0.0,0.0,0.0,0.0,0.0,0.0,0.0,0.0,0.0,0.0,0.0,0.0,0.0,0.0,0.0,0.0,0.0,0.0,0.0,0.0,0.0,0.0,0.0,0.0,0.0,0.0,0.0,0.0,0.0,0.0,0.0,0.0,0.0,0.0,0.0,0.0,0.0,0.0,0.0,-0.7633,-0.8703,-0.8565,-0.7182,-0.7125,-0.7026,-0.6756,-0.6369,-0.52,0.0,0.0,0.0,0.0,0.0,0.0,0.0,0.0,0.0,0.0,0.0,0.0,0.0,0.0,0.0,0.0,0.0,0.0,0.0,0.0,0.0,0.0,0.0,0.0,0.0,0.0,0.0,0.0,0.0,0.0,0.0,0.0,0.0,0.0,0.0,0.0,0.0,0.0,0.0,0.0,0.0,0.017,0.0643,0.072,0.0,0.0,0.0,0.0,0.083,0.1177,0.0,0.0,0.0,0.0,0.0,0.0,0.0,0.0,0.0,0.0,0.0,0.0,0.0,0.0,0.0,0.0,0.0,0.0,0.0,0.0,0.0,0.0,0.0,0.0,0.0,0.0,0.0,0.0,0.0,0.0,0.0,0.0,0.0,0.0,0.0,0.0,0.0,0.0,0.0,0.0,0.0,0.0,0.0,0.0,0.0,0.0,0.0,0.0,0.0,0.0,0.0,0.0,0.0,0.0,0.0,0.0,-0.7968,-0.8713,-0.8474,-0.7188,-0.7272,-0.7226,-0.6891,-0.6722,-0.5561,0.0,0.0,0.0,0.0,0.0,0.0,0.0,0.0,0.0,0.0,0.0,0.0,0.0,0.0,0.0,0.0,0.0,0.0,0.0,0.0,0.0,0.0,0.0,0.0,0.0,0.0,0.0,0.0,0.0,0.0,0.0,0.0,0.0,0.0,0.0,0.0,0.0,0.0,0.0,0.0,0.0,0.003,0.0088,0.0553,0.0911,0.0,0.0,0.1708,0.0982,0.1038,0.0,0.0,0.0,0.0,0.0,0.0,0.0,0.0,0.0,0.0,0.0,0.0,0.0,0.0,0.0,0.0,0.0,0.0,0.0,0.0,0.0,0.0,0.0,0.0,0.0,0.0,0.0,0.0,0.0,0.0,0.0,0.0,0.0,0.0,0.0,0.0,0.0,0.0,0.0,0.0,0.0,0.0,0.0,0.0,0.0,0.0,0.0,0.0,0.0,0.0,0.0,0.0,0.0,0.0,0.0,-0.7954,-0.7573,-0.9042,-0.9043,-0.7449,-0.738,-0.7272,-0.7011,-0.6661,-0.5484,0.0,0.0,0.0,0.0,0.0,0.0,0.0,0.0,0.0,0.0,0.0,0.0,0.0,0.0,0.0,0.0,0.0,0.0,0.0,0.0,0.0,0.0,0.0,0.0,0.0,0.0,0.0,0.0,0.0,0.0,0.0,0.0,0.0,0.0,0.0,0.0,0.0,0.0,0.0,0.0,0.0,0.0,0.0,0.022,0.0,0.0,0.0,0.0763,0.0446,0.0,0.0,0.0,0.0,0.0,0.0,0.0,0.0,0.0,0.0,0.0,0.0,0.0,0.0,0.0,0.0,0.0,0.0,0.0,0.0,0.0,0.0,0.0,0.0,0.0,0.0,0.0,0.0,0.0,0.0,0.0,0.0,0.0,0.0,0.0,0.0,0.0,0.0,0.0,0.0,0.0,0.0,0.0,0.0,0.0,0.0,0.0,0.0,0.0,0.0,0.0,0.0,0.0,0.0,0.0,0.0,0.0,-0.7185,-0.9305,-0.9517,-0.7701,-0.7546,-0.7387,-0.7175,-0.6722,0.0,0.0,0.0,0.0,0.0,0.0,0.0,0.0,0.0,0.0,0.0,0.0,0.0,0.0,0.0,0.0,0.0,0.0,0.0,0.0,0.0,0.0,0.0,0.0,0.0,0.0,0.0,0.0814,0.0,0.0,0.0,0.0,0.0,0.0,0.0,0.0,0.0,0.0,0.0,0.0,0.0,0.0,0.0,0.0,0.0,0.0,0.0,0.0,0.0,0.0,0.0,0.0,0.0,0.0,0.0,0.0,0.0,0.0,0.0,0.0,0.0,0.0,0.0,0.0,0.0,0.0,0.0,0.0,0.0,0.0,0.0,0.0,0.0,0.0,0.0,0.0,0.0,0.0,0.0,0.0,0.0,0.0,0.0,0.0,0.0,0.0,0.0,0.0,0.0,0.0,0.0,0.0,0.0,0.0,0.0,0.0,0.0,0.0,0.0,0.0,0.0,0.0,0.0,0.0,0.0,0.0,0.0,-0.7222,-0.9415,-0.9596,-0.7691,-0.7719,-0.7645,-0.7382,-0.7026,-0.5818,0.0,0.0,0.0,0.0,0.0,0.0,0.0,0.0,0.0,0.0,0.0,0.0,0.0,0.0,0.0,0.0,0.0,0.0,0.0,0.0,0.0,0.0,0.0,0.0,0.0,0.0,0.0,0.0,0.0,0.0,0.0,0.0,0.0,0.0,0.0,0.0,0.0,0.0,0.0,0.0,0.0,0.0,0.0,0.0,0.0,0.0,0.0,0.0,0.0,0.0,0.0,0.0,0.0,0.0,0.0,0.0,0.0,0.0,0.0,0.0,0.0,0.0,0.0,0.0,0.0,0.0,0.0,0.0,0.0,0.0,0.0,0.0,0.0,0.0,0.0,0.0,0.0,0.0,0.0,0.0,0.0,0.0,0.0,0.0,0.0,0.0,0.0,0.0,0.0,0.0,0.0,0.0,0.0,0.0,0.0,0.0,0.0,0.0,0.0,0.0,0.0,0.0,0.0,0.0,0.0,-0.7273,-0.6642,-0.8724,-0.9151,-0.7903,-0.7834,-0.776,-0.7645,-0.7242,-0.6204,0.0,0.0,0.0,0.0,0.0,0.0,0.0,0.0,0.0,0.0,0.0,0.0,0.0,0.0,0.0,0.0,0.0,0.0,0.0,0.0,0.0,0.0,0.0,0.0,0.0,0.0,0.0,0.0,-0.0338,-0.054,0.009,0.0,0.0,0.0,0.0,0.0,0.0,0.0,0.0,0.0,0.0,0.0,0.0,0.0,0.0,0.0,0.0,0.0,0.0,0.0,0.0,0.0,0.0,0.0,0.0,0.0,0.0,0.0,0.0,0.0,0.0,0.0,0.0,0.0,0.0,0.0,0.0,0.0,0.0,0.0,0.0,0.0,0.0,0.0,0.0,0.0,0.0,0.0,0.0,0.0,0.0,0.0,0.0,0.0,0.0,0.0,0.0,0.0,0.0,0.0,0.0,0.0,0.0,0.0,0.0,0.0,0.0,0.0,0.0,0.0,0.0,0.0,0.0,0.0,0.0,-0.7363,-0.6429,-0.8793,-0.9396,-0.8124,-0.8004,-0.7885,-0.7807,-0.7421,-0.6516,0.0,0.0,0.0,0.0,0.0,0.0,0.0,0.0,0.0,0.0,0.0,0.0,0.0,0.0,0.0,0.0,0.0,0.0,0.0,0.0,0.0,0.0,0.0,0.0,0.0,0.0,0.0,0.0,-0.1159,-0.1253,-0.0603,0.0,0.0,0.0,0.0,0.0,0.0,0.0,0.0,0.0,0.0,0.0,0.0,0.0,0.0,0.0,0.0,0.0,0.0,0.0,0.0,0.0,0.0,0.0,0.0,0.0,0.0,0.0,0.0,0.0,0.0,0.0,0.0,0.0,0.0,0.0,0.0,0.0,0.0,0.0,0.0,0.0,0.0,0.0,0.0,0.0,0.0,0.0,0.0,-0.8117,0.0,0.0,-0.8566,0.0,0.0,0.0,0.0,0.0,0.0,0.0,0.0,0.0,0.0,0.0,0.0,0.0,0.0,0.0,0.0,0.0,0.0,0.0,0.0,0.0,0.0,-0.8494,-0.6771,-0.9878,-1.0506,-0.8357,-0.8287,-0.8138,-0.7828,-0.7553,-0.6775,-0.5416,0.0,0.0,0.0,0.0,0.0,0.0,0.0,0.0,0.0,0.0,0.0,0.0,0.0,0.0,0.0,0.0,0.0,0.0,0.0,0.0,0.0,0.0,0.0,0.0,0.0,0.0,-0.2082,-0.2042,-0.1911,0.0,0.0,0.0,0.0,0.0,0.0,0.0,0.0,0.0,0.0,0.0,0.0,0.0,0.0,0.0,0.0,0.0,0.0,0.0,0.0,0.0,0.0,0.0,0.0,0.0,0.0,0.0,0.0,0.0,0.0,0.0,0.0,0.0,0.0,0.0,0.0,0.0,0.0,0.0,0.0,0.0,0.0,0.0,0.0,0.0,0.0,0.0,0.0,-1.0067,-1.0147,0.0,0.0,0.0,0.0,0.0,0.0,0.0,0.0,0.0,0.0,0.0,-1.3634,-1.3655,0.0,0.0,0.0,0.0,0.0,0.0,0.0,0.0,0.0,0.0,0.0,0.0,-0.8309,-0.7035,-0.9284,-0.9871,-0.8475,-0.8349,-0.8294,-0.8255,-0.7875,-0.6969,-0.5452,0.0,0.0,0.0,0.0,0.0,0.0,0.0,0.0,0.0,0.0,0.0,0.0,0.0,0.0,0.0,0.0,0.0,0.0,0.0,0.0,0.0,0.0,0.0,0.0,0.0,-0.2329,0.0,0.0,0.0,0.0,0.0,0.0,0.0,0.0,0.0,0.0,0.0,0.0,0.0,0.0,0.0,0.0,0.0,0.0,0.0,0.0,0.0,0.0,0.0,0.0,0.0,0.0,0.0,0.0,0.0,0.0,0.0,0.0,0.0797,0.1389,0.1485,0.1474,0.1442,0.0,0.0,0.0,0.0,0.0,0.0,0.0,0.0,0.0,0.0,0.0,0.0,0.0,0.0,-1.2572,0.0,-1.2245,0.0,0.0,0.0,0.0,0.0,0.0,0.0,0.0,-1.4776,-1.5458,-1.5481,-1.5925,-1.5515,0.0,-1.3999,-1.2172,0.0,0.0,0.0,0.0,0.0,0.0,0.0,0.0,-0.9467,-0.8632,-1.065,-1.0961,-0.9437,-0.9242,-0.8979,-0.8498,-0.8045,-0.723,-0.6023,-0.5352,-0.4729,0.0,0.0,0.0,0.0,0.0,0.0,0.0,0.0,0.0,0.0,0.0,0.0,0.0,0.0,0.0,0.0,0.0,0.0,0.0,0.0,0.0,0.0,0.0,-0.3419,0.0,0.0,0.0,0.0,0.0,0.0,0.0,0.0,0.0,-0.0113,0.0,0.0,0.0,0.0,0.0,0.0,0.0,0.0,0.0,0.0,0.0,0.0,0.0,0.0,0.0,0.0,0.0,0.0,0.0,0.016,0.0624,0.0,0.0,0.1013,0.1186,0.1187,0.1161,0.1242,0.1168,0.0688,0.1041,0.141,0.0,0.0,0.0,0.0,0.0,0.0,0.0,0.0,-1.5695,-1.5654,0.0,-1.4892,0.0,0.0,0.0,0.0,0.0,-1.4456,0.0,0.0,-1.7075,-1.7742,-1.7326,-1.7541,-1.7341,-1.682,-1.706,-1.5905,-1.3395,-0.9629,0.0,0.0,0.0,0.0,0.0,0.0,-1.1952,-1.1579,-1.3718,-1.3666,-1.1097,-1.0902,-1.0129,-0.8558,-0.8065,-0.7601,-0.7125,-0.6708,-0.5983,-0.4816,-0.4284,0.0,0.0,0.0,0.0,0.0,0.0,0.0,0.0,0.0,0.0,0.0,0.0,0.0,0.0,0.0,0.0,0.0,0.0,0.0,0.0,-0.3843,0.0,0.0,0.0,0.0,0.0,0.0,0.0,0.0,0.0,0.0,-0.0518,0.0,0.0,0.0,0.0,0.0,0.0,0.0,0.0,0.0,0.0,0.0,0.0,0.0,0.0,0.0,0.0,0.0,0.0,0.0,0.0,0.0,0.0,0.0,0.0,0.0,0.0,0.0,0.0,0.0,0.0,0.0,0.0381,-2.3505,0.0,0.0,0.0,0.0,-1.8691,-1.9909,-2.1023,-2.058,-2.0045,-1.935,-1.7523,0.0,0.0,0.0,0.0,0.0,0.0,-1.642,-1.7181,-1.8183,-1.877,-1.9067,-1.9132,-1.8971,-1.8597,-1.8263,-1.7516,-1.631,-1.3928,-1.1151,-0.8132,0.0,0.0,0.0,0.0,-1.3311,-1.2446,-1.4075,-1.4226,-1.2627,-1.1505,-1.0129,-0.8538,-0.8357,-0.8079,-0.7614,-0.7292,-0.6795,-0.6021,-0.514,0.0,0.0,0.0,0.0,0.0,0.0,0.0,0.0,0.0,0.0,0.0,0.0,0.0,0.0,0.0,0.0,0.0,0.0,0.0,-0.3293,-0.4285,-0.4877,0.0,0.0,0.0,0.0,0.0,0.0,0.0,0.0,0.0,-0.3048,-0.2924,-0.2856,0.0,0.0,-0.2864,-0.2861,-0.2942,-0.2617,-0.1569,-0.1502,0.0,0.0,0.0,0.0,0.0,0.0,0.0,0.0,0.0,0.0,0.0,0.0,0.0,0.0,0.0,0.0,0.0,0.0,0.0,0.0,0.0,0.0,-2.9591,-2.5399,-2.3767,-2.2753,-2.2214,-2.226,-2.3386,-2.5092,-2.3718,-2.3347,-2.3631,-2.1172,-1.9269,-1.7889,-1.6712,0.0,0.0,0.0,-1.8116,-1.8876,-1.9386,-1.9746,-1.996,-1.9973,-1.9826,-1.9519,-1.9093,-1.8584,-1.8103,-1.673,-1.4351,-1.1052,0.0,0.0,-1.1104,-1.3673,-1.4763,-1.4276,-1.484,-1.4836,-1.4116,-1.2061,-1.0246,-0.8716,-0.8608,-0.8445,-0.8174,-0.7821,-0.7441,-0.7042,-0.6118,-0.5219,0.0,0.0,0.0,0.0,0.0,0.0,0.0,0.0,0.0,0.0,0.0,0.0,0.0,0.0,0.0,0.0,-0.2077,-0.3145,-0.4554,-0.5145,0.0,0.0,0.0,0.0,0.0,0.0,0.0,-0.4765,-0.5148,-0.5359,-0.5165,-0.5523,-0.5393,-0.4333,-0.4214,-0.4196,-0.4196,0.0,-0.3992,-0.3109,-0.3058,-0.2594,-0.1128,-0.0888,-0.0682,-0.008,0.0,0.0,0.0,0.0,0.0,0.0,0.0,0.0,0.0,0.0,0.0,0.0,0.0,0.0,0.0,0.0,0.0,-3.491,-3.2973,-2.9489,-2.8185,-2.8197,-2.5524,-2.5723,-2.7733,-2.5514,-2.5833,-2.7698,-2.5062,-2.3293,-2.211,-1.9459,0.0,-1.913,-1.9693,-2.008,-2.0344,-2.0655,-2.0641,-2.0344,-2.0317,-2.0187,-1.9907,-1.9613,-1.9348,-1.8983,-1.8409,-1.7303,-1.5706,-1.419,-1.3965,-1.4971,-1.5611,-1.6208,-1.6755,-1.5999,-1.5553,-1.5358,-1.2588,-1.046,-0.9127,-0.8825,-0.8689,-0.8682,-0.8263,-0.7966,-0.7776,-0.7136,-0.6244,-0.5103,0.0,0.0,0.0,0.0,0.0,0.0,0.0,0.0,0.0,0.0,0.0,0.0,0.0,0.0,0.0,-0.3449,0.0,-0.5944,-0.6212,0.0,0.0,0.0,-0.6035,-0.5246,-0.6222,-0.6392,-0.4977,0.0,0.0,-0.6801,-0.7754,-0.763,-0.52,-0.4843,-0.4827,-0.4827,-0.4911,-0.4782,-0.4676,-0.4684,-0.4133,-0.2675,-0.2405,-0.2,-0.0862,-0.0364,0.0,0.0,0.0,0.0,0.0,0.0,0.0,0.0,0.0,0.0,0.0,0.0,0.0,0.0,0.0,0.0,-3.5874,-3.5883,-3.2053,-2.9182,-2.7275,-2.7536,-2.7329,-2.6839,-2.7445,-2.7933,-2.8113,-2.5654,-2.3398,-2.1383,-2.0679,-2.0588,-2.0967,-2.11,-2.1328,-2.1563,-2.1643,-2.1676,-2.1563,-2.1381,-2.1114,-2.0788,-2.0539,-2.0214,-1.9877,-1.9332,-1.8859,-1.8424,-1.7607,-1.6471,-1.5103,-1.6452,-1.7235,-1.7368,-1.7396,-1.6725,-1.537,-1.2588,-1.0945,-1.0598,-0.9442,-0.8777,-0.8547,-0.8438,-0.8201,-0.7821,-0.7428,-0.6943,-0.6284,-0.508,0.0,0.0,0.0,0.0,0.0,0.0,0.0,0.0,0.0,-0.2437,-0.207,0.0,-0.2856,0.0,-0.5188,-0.6132,-0.6363,-0.6443,0.0,0.0,-0.6763,-0.6787,-0.7204,-0.7373,-0.7409,-0.7409,-0.7894,-0.8213,-0.8169,-0.8441,-0.852,-0.8109,-0.7768,-0.7553,-0.7553,-0.7644,-0.7302,-0.6285,-0.6127,-0.5653,-0.4275,-0.3932,-0.3781,-0.3491,-0.341,-0.3438,-0.3438,-0.3438,-0.3075,-0.1984,-0.1678,-0.1259,-0.0224,0.0,0.0,0.0,0.0,0.0,0.0,0.0,0.0,-3.7719,-3.7817,-3.4517,-3.1573,-2.9102,-2.8771,-2.8581,-2.8529,-2.8255,-2.8512,-2.9037,-2.732,-2.5864,-2.4635,-2.4272,-2.3849,-2.3436,-2.3257,-2.2794,-2.2211,-2.2178,-2.2111,-2.201,-2.185,-2.1622,-2.1328,-2.1015,-2.0722,-2.0414,-1.9973,-1.9722,-1.9589,-1.9134,-1.8176,-1.6844,-1.7595,-1.8023,-1.801,-1.8129,-1.673,-1.3771,-1.276,-1.1554,-1.0078,-0.9241,-0.8703,-0.8492,-0.8357,-0.8167,-0.7891,-0.757,-0.7219,-0.6796,-0.5912,-0.5128,0.0,0.0,0.0,0.0,0.0,0.0,0.0,0.0,0.0,0.0,0.0,-0.4242,-0.5562,-0.6416,-0.6947,-0.7076,-0.7212,-0.7403,-0.7645,-0.7563,-0.7716,-0.8187,-0.8153,-0.8214,-0.8526,-0.8648,-0.875,-0.8886,-0.8995,-0.9069,-0.926,-0.907,-0.8907,-0.8913,-0.896,-0.8675,-0.7864,-0.7766,-0.7259,-0.5731,-0.4916,-0.4498,-0.4498,-0.4498,-0.4498,-0.4498,-0.4498,-0.4219,-0.338,-0.2682,-0.1956,-0.1119,-0.0392,0.0,0.0,0.0,0.0,0.0,0.0,0.0,-3.9482,-3.9016,-3.6421,-3.4064,-3.1947,-2.9607,-2.9333,-3.0319,-2.831,-2.8439,-3.0067,-2.9304,-2.8841,-2.8658,-2.8278,-2.7243,-2.5809,-2.5453,-2.4405,-2.293,-2.264,-2.2378,-2.2131,-2.2058,-2.1943,-2.1722,-2.1323,-2.1029,-2.082,-2.0454,-2.013,-1.9907,-1.9626,-1.9345,-1.9063,-1.8811,-1.8624,-1.8544,-1.8337,-1.6327,-1.2534,-1.3053,-1.211,-0.9446,-0.8905,-0.8628,-0.8485,-0.8182,-0.8033,-0.7982,-0.7645,-0.7335,-0.7026,-0.6722,-0.6179,0.0,-0.5162,0.0,0.0,0.0,0.0,0.0,0.0,0.0,0.0,-0.4674,-0.5617,-0.6887,-0.7299,-0.7614,-0.7848,-0.8126,-0.8262,-0.8148,-0.8384,-0.8554,-0.8594,-0.8743,-0.8818,-0.8953,-0.9103,-0.9241,-0.9213,-0.9328,-0.9381,-0.9401,-0.9395,-0.9374,-0.9422,-0.941,-0.93,-0.9255,-0.9234,-0.8543,-0.7292,-0.6051,-0.5294,-0.5234,-0.5382,-0.5146,-0.5294,-0.5294,-0.5118,-0.4813,-0.3858,-0.2928,-0.2614,-0.1381,-0.0395,0.0,0.0,0.0,0.0,0.0,0.0,-3.865,-3.9408,-3.5701,-3.3669,-3.2742,-3.0647,-2.8554,-2.6658,-2.7721,-2.896,-3.0206,-2.9851,-2.8712,-2.7216,-2.8513,-2.8141,-2.6433,-2.6338,-2.6036,-2.5422,-2.3853,-2.2993,-2.2719,-2.2445,-2.2311,-2.2218,-2.1756,-2.1475,-2.1408,-2.0873,-2.0561,-2.0508,-2.0214,-2.001,-1.9943,0.0,0.0,0.0,-1.7453,-1.6857,-1.7043,-1.3717,-1.2156,-1.2504,-1.0054,0.0,-0.8349,-0.8281,-0.8167,-0.802,-0.7817,0.0,0.0,0.0,0.0,0.0,0.0,0.0,0.0,0.0,0.0,0.0,-0.688,-0.6608,-0.6327,-0.6856,-0.729,-0.7465,-0.7879,-0.8145,-0.8206,-0.8362,-0.8526,-0.8716,-0.8791,-0.8912,-0.9206,-0.9232,-0.9266,-0.9293,-0.9349,-0.9369,-0.9369,-0.9396,-0.9429,-0.9544,-0.9564,-0.9612,-0.969,-0.9537,-0.941,-0.934,-0.9362,-0.9269,-0.8925,-0.8526,-0.8163,-0.8481,-0.8452,-0.8388,-0.829,-0.8325,-0.7893,-0.6873,-0.6358,-0.5685,-0.4586,-0.3112,-0.2034,-0.2008,-0.0964,0.0,0.0,0.0,0.0,-3.7098,0.0,-3.5261,-3.4334,0.0,-3.2751,-3.0926,-2.918,-2.7812,-2.8582,-3.0857,-3.154,-3.1196,-3.0188,-3.0703,-2.9432,-2.6783,-2.6599,-2.5961,-2.4973,-2.3835,-2.3212,-2.3086,-2.2779,-2.2552,-2.2371,-2.2124,-2.1943,-2.1783,-2.1355,-2.106,-2.0913,-2.0588,-2.0344,-2.0197,-2.005,-1.9733,-1.9158,-1.8287,-1.7764,-1.7541,-1.5315,-1.3542,-1.2408,0.0,0.0,0.0,0.0,0.0,0.0,0.0,0.0,0.0,0.0,0.0,-0.7577,-0.7403,-0.7308,-0.7382,-0.7509,-0.7709,-0.7927,-0.8226,-0.8113,-0.7506,-0.7882,-0.8174,-0.8236,-0.856,-0.8764,-0.8839,-0.8913,-0.8988,-0.9109,-0.9129,-0.9225,-0.9383,-0.941,-0.941,-0.9417,-0.9449,-0.9496,-0.9496,-0.9564,-0.9625,-0.97,-0.9713,-0.9717,-0.9795,-0.97,-0.9578,-0.9503,-0.9422,-0.941,-0.941,-0.941,-0.941,-0.941,-0.941,-0.941,-0.941,-0.941,-0.912,-0.8323,-0.7648,-0.6798,-0.6094,-0.475,-0.3667,-0.3552,-0.2365,-0.1306,-0.1177,-0.0588,0.0,-3.5772,-3.7231,-3.556,-3.5669,-3.6793,-3.5167,-3.3937,-3.283,0.0,0.0,0.0,-3.3357,-3.3872,-3.3782,-3.3027,-3.0837,-2.7595,-2.6894,-2.5788,-2.4342,-2.3735,-2.3412,-2.3394,-2.3086,-2.2819,-2.2579,-2.2438,-2.2265,-2.2091,-2.181,-2.1515,-2.1189,-2.0949,-2.0655,-2.0304,-2.0277,-2.0054,-1.9546,-1.9495,-1.8755,-1.7292,-1.6908,-1.5276,-1.2275,-1.1928,-1.1001,-0.9422,-0.9227,-0.905,-0.8739,-0.8585,-0.8377,-0.8153,-0.8135,-0.8228,-0.837,-0.8391,-0.8423,-0.8451,-0.8478,-0.856,-0.8696,-0.9022,-0.8961,-0.829,-0.8499,-0.8743,-0.8967,-0.9123,-0.9267,-0.9396,-0.941,-0.9424,-0.9415,-0.9422,-0.9458,-0.9492,-0.949,-0.9523,-0.9517,-0.9652,-0.9734,-0.9747,-0.9836,-0.9903,-0.9903,-0.9886,-0.9903,-0.989,-0.9819,-0.9731,-0.9659,-0.9564,-0.9505,-0.9462,-0.9476,-0.9462,-0.9483,-0.9476,-0.9456,-0.9462,-0.9492,-0.9462,-0.9395,-0.836,-0.7779,-0.7509,-0.6366,-0.541,-0.5351,-0.3796,-0.2507,-0.2352,-0.1167,0.0,-3.5869,-3.7784,-3.7488,-3.7392,-3.7384,-3.7111,-3.5517,-3.3061,-3.1707,-3.2395,-3.441,-3.4397,-3.4179,-3.3783,-3.3674,-3.2245,-2.9783,-2.811,-2.7063,-2.6461,-2.4817,-2.3941,-2.3688,-2.3407,-2.3233,-2.3132,-2.2638,-2.2371,-2.2325,-2.2058,-2.181,-2.1555,-2.1489,-2.1194,-2.0686,-2.0646,-2.0454,-2.009,-1.9867,-1.9631,-1.9358,-1.7621,-1.6421,-1.577,-1.4297,-1.3264,-1.2648,-1.2582,-1.19,-1.0466,-1.0329,-0.9789,-0.8688,-0.8641,-0.8656,-0.8804,-0.8818,-0.8899,-0.9071,-0.9179,-0.9293,-0.9429,-0.9395,-0.9328,-0.9205,-0.926,-0.9301,-0.9349,-0.9354,-0.9383,-0.941,-0.943,-0.9469,-0.9564,-0.9585,-0.9625,-0.9747,-0.9832,-0.9907,-0.9907,-1.0062,-1.0199,-1.0179,-1.0206,-1.022,-1.0202,-1.0168,-1.0233,-1.0179,-0.9985,-0.9805,-0.9765,-0.9744,-0.9731,-0.9731,-0.9724,-0.9761,-0.9761,-0.9731,-0.9761,-0.9731,-0.9761,-0.9724,-0.9724,-0.9439,-0.9318,-0.9252,-0.814,-0.7236,-0.6924,-0.4879,-0.2909,-0.2846,-0.1467,0.0,-3.2422,-3.4286,-3.4367,-3.568,-3.7783,-3.8733,-3.8396,-3.7051,-3.6268,-3.5609,-3.5282,-3.5993,-3.5659,-3.4415,-3.3102,-3.1279,-2.9002,-2.7078,-2.6003,-2.562,-2.4661,-2.4128,-2.3981,-2.3701,-2.3487,-2.3278,-2.3012,-2.2819,-2.2679,-2.2365,-2.2151,-2.2004,-2.1743,-2.1448,-2.1194,-2.102,-2.0842,-2.0695,-2.0224,-2.0027,-1.9997,-1.9094,-1.8031,-1.692,-1.6075,-1.5074,-1.3789,-1.3713,-1.3361,-1.2582,-1.2555,-1.1891,-1.048,-1.0377,-1.0023,-0.9256,-0.9178,-0.9205,-0.9301,-0.949,-0.9686,-0.9805,-0.9863,-0.99,-0.99,-0.9713,-0.9652,-0.9734,-0.9815,-0.99,-0.99,-0.99,-0.9927,-0.9995,-0.9971,-0.9998,-1.0059,-1.0096,-1.0175,-1.0181,-1.0236,-1.0308,-1.0308,-1.0308,-1.0308,-1.0308,-1.0315,-1.0315,-1.0315,-1.0168,-1.0073,-1.0066,-1.0073,-1.0073,-1.0066,-1.0066,-1.0073,-1.0066,-1.0066,-1.0073,-1.0073,-1.0066,-1.0032,-0.9934,-0.9913,-0.9879,-0.9819,-0.9268,-0.8806,-0.8495,-0.693,-0.5372,-0.4913,-0.3198,-0.1171,-2.9453,-3.1407,-3.1407,-3.392,-3.786,-3.8823,-3.9662,-4.0373,-3.9142,-3.7745,-3.6571,-3.7115,-3.6506,-3.4865,-3.211,-2.986,-2.8059,-2.6097,-2.5024,-2.4693,-2.4502,-2.4369,-2.4275,-2.4008,-2.3741,-2.3492,-2.3359,-2.3172,-2.2953,-2.2659,-2.2485,-2.2378,-2.193,-2.1676,-2.1689,-2.1448,-2.1269,-2.1189,-2.0762,-2.0468,-2.0304,-2.0237,-1.943,-1.804,-1.7872,-1.7085,-1.5508,-1.5389,-1.5213,-1.4827,-1.4417,-1.3529,-1.2078,-1.1591,-1.0862,-0.9755,-0.9585,-0.9614,-0.9628,-0.9795,-0.9971,-1.0062,-1.0215,-1.0329,-1.0335,-1.0114,-0.9974,-1.0069,-1.0188,-1.0295,-1.0281,-1.0295,-1.0308,-1.0308,-1.0308,-1.0288,-1.0308,-1.0335,-1.0331,-1.0331,-1.039,-1.0385,-1.0378,-1.0378,-1.0424,-1.0399,-1.0378,-1.0378,-1.0378,-1.0378,-1.0378,-1.0365,-1.0363,-1.0295,-1.0308,-1.0301,-1.0295,-1.0308,-1.0301,-1.0281,-1.0288,-1.0301,-1.0274,-1.0096,-1.0069,-1.0066,-0.9958,-0.9907,-0.9821,-0.9643,-0.831,-0.7233,-0.6465,-0.4853,-0.2417,-2.9439,-3.1283,-3.1324,-3.392,-3.7401,-3.6012,-3.7252,-3.9817,-3.7907,-3.7669,-3.8285,-3.6664,-3.5392,-3.4424,-3.0975,-2.8958,-2.826,-2.6326,-2.5317,-2.5064,-2.501,-2.485,-2.4546,-2.4302,-2.4142,-2.4035,-2.3559,-2.3319,-2.3273,-2.2966,-2.2719,-2.2418,-2.2098,-2.1984,-2.1937,-2.1911,-2.1796,-2.1555,-2.1489,-2.1208,-2.0655,-2.0344,-2.011,-1.9949,-1.9905,-1.973,-1.9079,-1.9283,-1.8521,-1.6967,-1.5454,-1.3973,-1.2621,-1.1072,-1.0194,-1.0199,-1.0213,-1.0195,-1.0227,-1.0254,-1.0243,-1.0256,-1.029,-1.039,-1.0473,-1.0453,-1.0378,-1.0317,-1.029,-1.0335,-1.0315,-1.0335,-1.0356,-1.0376,-1.0369,-1.0308,-1.0363,-1.0392,-1.0473,-1.0473,-1.0595,-1.0677,-1.0649,-1.0643,-1.0656,-1.0629,-1.0622,-1.0629,-1.0629,-1.0596,-1.0636,-1.0609,-1.0466,-1.0349,-1.0342,-1.0315,-1.0349,-1.0342,-1.0322,-1.0349,-1.0363,-1.0349,-1.027,-1.0276,-1.0256,-1.0243,-1.0222,-1.0236,-1.0247,-1.0042,-0.8939,-0.7436,-0.6105,-0.539,-0.3954,-2.8712,-2.9495,-2.9495,-3.1164,-3.3629,-3.4217,-3.5214,-3.634,-3.5123,-3.4939,-3.5222,-3.298,-3.3108,-3.4929,-3.1061,-2.9075,-2.8624,-2.6707,-2.5611,-2.5331,-2.517,-2.501,-2.4877,-2.4596,-2.4332,-2.4209,-2.3955,-2.3754,-2.3567,-2.3287,-2.2993,-2.2672,-2.2392,-2.2245,-2.2231,-2.2104,-2.1957,-2.185,-2.185,-2.1729,-2.143,-2.0989,-2.0668,-2.0521,-2.0494,-2.0361,-2.0094,-2.0024,-1.9687,-1.9001,-1.8286,-1.677,-1.4304,-1.3518,-1.2284,-1.0555,-1.0308,-1.0317,-1.0399,-1.0437,-1.048,-1.0656,-1.0644,-1.0738,-1.0907,-1.0887,-1.0893,-1.0825,-1.0676,-1.0541,-1.0548,-1.059,-1.0644,-1.0683,-1.0744,-1.0825,-1.0839,-1.088,-1.086,-1.0785,-1.0779,-1.0779,-1.0744,-1.0717,-1.0717,-1.0717,-1.0724,-1.0738,-1.0724,-1.0717,-1.0717,-1.0711,-1.0609,-1.0555,-1.0534,-1.0541,-1.0534,-1.0534,-1.0541,-1.0541,-1.0527,-1.0541,-1.0521,-1.0426,-1.0412,-1.0371,-1.0308,-1.0315,-1.0308,-1.0131,-0.999,-0.8794,-0.7156,-0.6837,-0.5676,-2.8192,-2.8165,-2.8098,-2.9201,-3.1036,-3.1885,-3.2897,-3.3584,-3.2716,-3.253,-3.2846,-3.0461,-3.1047,-3.3175,-3.0176,-2.8477,-2.8096,-2.6754,-2.5957,-2.5638,-2.5449,-2.5277,-2.517,-2.4903,-2.4649,-2.4449,-2.4275,-2.4048,-2.3817,-2.3567,-2.3287,-2.2993,-2.2779,-2.2619,-2.2525,-2.2358,-2.2178,-2.2111,-2.2098,-2.2058,-2.1937,-2.1577,-2.1243,-2.1087,-2.0993,-2.0815,-2.0601,-2.049,-2.0437,-2.0437,-2.0007,-1.8456,-1.5689,-1.5078,-1.3532,-1.0969,-1.0553,-1.0601,-1.067,-1.071,-1.0772,-1.0975,-1.0968,-1.105,-1.1172,-1.12,-1.12,-1.1166,-1.0968,-1.0839,-1.0853,-1.0941,-1.0968,-1.0982,-1.1111,-1.12,-1.1179,-1.12,-1.1145,-1.0988,-1.0968,-1.0934,-1.0873,-1.0853,-1.086,-1.0867,-1.0853,-1.0839,-1.0839,-1.0853,-1.0853,-1.0839,-1.0846,-1.0806,-1.0744,-1.0697,-1.0717,-1.0717,-1.0697,-1.069,-1.0717,-1.0684,-1.0677,-1.0568,-1.0561,-1.0541,-1.0487,-1.0432,-1.0431,-1.0399,-1.0302,-0.9974,-0.8901,-0.8646,-0.8156,-2.8192,-2.8138,-2.7843,-2.8937,-3.0817,-2.8724,-3.0009,-3.3126,-3.1072,-3.1129,-3.2333,-3.0376,-2.9667,-3.0064,-2.7799,-2.6584,-2.6557,-2.6478,-2.6199,-2.5984,-2.5931,-2.5797,-2.5478,-2.5197,-2.505,-2.493,-2.4502,-2.4102,-2.3843,-2.3803,-2.3607,-2.3313,-2.3225,-2.3126,-2.292,-2.2853,-2.2672,-2.2432,-2.2405,-2.2285,-2.2044,-2.1977,-2.1937,-2.1884,-2.1689,-2.1515,-2.1475,-2.1216,-2.1069,-2.1069,-1.9636,-1.7857,-1.6,-1.4409,-1.2781,-1.1344,-1.1132,-1.1138,-1.1138,-1.1125,-1.1152,-1.1186,-1.1193,-1.12,-1.1234,-1.124,-1.124,-1.1206,-1.1206,-1.1179,-1.1179,-1.1179,-1.1193,-1.1193,-1.1206,-1.122,-1.1213,-1.1247,-1.12,-1.1186,-1.1172,-1.1118,-1.1159,-1.1179,-1.1145,-1.1145,-1.1159,-1.1152,-1.1132,-1.1145,-1.1145,-1.1138,-1.1125,-1.1043,-1.0799,-1.0792,-1.0772,-1.0772,-1.0799,-1.0738,-1.0724,-1.0717,-1.0711,-1.0677,-1.0683,-1.0677,-1.069,-1.0683,-1.0656,-1.0643,-1.0629,-1.0267,-0.992,-1.0399,-0.9984,-2.8192,-2.8179,-2.8072,-2.8302,-2.8493,-2.7663,-2.8038,-2.8956,-2.8106,-2.8049,-2.86,-2.8016,-2.781,-2.7868,-2.7067,-2.6667,-2.6653,-2.648,-2.6372,-2.6252,-2.6078,-2.5944,-2.5824,-2.5491,-2.5251,-2.5064,-2.49,-2.4516,-2.4088,-2.4048,-2.3901,-2.3661,-2.3607,-2.346,-2.3207,-2.3153,-2.3006,-2.2739,-2.2746,-2.2679,-2.2572,-2.2586,-2.2572,-2.2559,-2.2117,-2.1863,-2.183,-2.1724,-2.167,-2.167,-2.1072,-1.94,-1.6481,-1.357,-1.1817,-1.1289,-1.12,-1.12,-1.12,-1.12,-1.124,-1.1301,-1.1342,-1.139,-1.1436,-1.1457,-1.1457,-1.1457,-1.145,-1.1457,-1.1436,-1.1369,-1.1342,-1.1356,-1.1396,-1.1443,-1.1457,-1.1457,-1.1423,-1.1356,-1.1268,-1.12,-1.122,-1.12,-1.12,-1.12,-1.12,-1.1206,-1.12,-1.12,-1.1213,-1.12,-1.1193,-1.1166,-1.1084,-1.1043,-1.1036,-1.0975,-1.0962,-1.0867,-1.0833,-1.0785,-1.0765,-1.0778,-1.0765,-1.0772,-1.0778,-1.0745,-1.0778,-1.0765,-1.0758,-1.0785,-1.0684,-1.0778,-1.0765,-2.8192,-2.8165,-2.8085,-2.7817,-2.7443,-2.7242,-2.6894,-2.6533,-2.6426,-2.64,-2.644,-2.66,-2.6734,-2.6787,-2.672,-2.6707,-2.6787,-2.652,-2.64,-2.6373,-2.6225,-2.6145,-2.6091,-2.5785,-2.5558,-2.5396,-2.5157,-2.4823,-2.4396,-2.4306,-2.4195,-2.3964,-2.395,-2.3768,-2.3514,-2.3474,-2.3327,-2.3108,-2.302,-2.2979,-2.292,-2.2893,-2.2893,-2.284,-2.2505,-2.2251,-2.2138,-2.2064,-2.1648,-2.1205,-2.1106,-1.949,-1.5933,-1.2908,-1.126,-1.1301,-1.1349,-1.1342,-1.1342,-1.1307,-1.1355,-1.145,-1.1463,-1.1518,-1.1577,-1.166,-1.1687,-1.1694,-1.1742,-1.1762,-1.1742,-1.1667,-1.1608,-1.1504,-1.1558,-1.1584,-1.1584,-1.1577,-1.1529,-1.1477,-1.1389,-1.1363,-1.1349,-1.1349,-1.1356,-1.1314,-1.1349,-1.1342,-1.1342,-1.1307,-1.1307,-1.1314,-1.1328,-1.1335,-1.1307,-1.1307,-1.122,-1.1172,-1.109,-1.1043,-1.0961,-1.09,-1.0846,-1.0853,-1.0853,-1.086,-1.086,-1.086,-1.086,-1.0853,-1.09,-1.0982,-1.0907,-1.0887,-1.0887,-2.8192,-2.8152,-2.7871,-2.7722,-2.7589,-2.7148,-2.6827,-2.676,-2.6533,-2.6426,-2.64,-2.6426,-2.6613,-2.6734,-2.6587,-2.6573,-2.6734,-2.652,-2.64,-2.6386,-2.6373,-2.636,-2.6333,-2.6118,-2.5957,-2.5877,-2.5396,-2.4943,-2.4649,-2.4599,-2.4489,-2.4249,-2.4209,-2.4062,-2.3803,-2.3754,-2.3621,-2.3394,-2.3327,-2.3193,-2.296,-2.2974,-2.2987,-2.2974,-2.292,-2.2752,-2.2485,-2.2191,-2.1296,-1.9681,-1.9447,-1.7629,-1.4614,-1.2394,-1.1457,-1.1572,-1.1577,-1.1613,-1.1584,-1.1619,-1.1619,-1.1647,-1.1633,-1.1653,-1.1687,-1.1769,-1.18,-1.185,-1.1945,-1.207,-1.2064,-1.2043,-1.1941,-1.1681,-1.1667,-1.1674,-1.1653,-1.1597,-1.159,-1.1597,-1.1619,-1.1626,-1.1626,-1.1619,-1.1619,-1.1619,-1.1619,-1.1619,-1.1619,-1.1619,-1.1619,-1.1606,-1.1579,-1.1552,-1.1586,-1.1592,-1.1416,-1.1308,-1.1254,-1.12,-1.1151,-1.1118,-1.107,-1.1063,-1.1057,-1.1063,-1.1057,-1.1023,-1.1084,-1.1091,-1.1132,-1.1132,-1.1091,-1.107,-1.1104,-2.8192,-2.8179,-2.8085,-2.7924,-2.7696,-2.7495,-2.7215,-2.6841,-2.6707,-2.6573,-2.6453,-2.66,-2.6747,-2.6787,-2.672,-2.6734,-2.676,-2.6533,-2.64,-2.64,-2.64,-2.64,-2.6373,-2.6293,-2.6185,-2.5957,-2.561,-2.5224,-2.4983,-2.4943,-2.4796,-2.4556,-2.4466,-2.4356,-2.4088,-2.4062,-2.3928,-2.3661,-2.3669,-2.3616,-2.3522,-2.3522,-2.3522,-2.3522,-2.3522,-2.3469,-2.3362,-2.2893,-2.1731,-1.985,-1.9816,-1.8116,-1.4753,-1.2529,-1.1649,-1.1705,-1.1726,-1.178,-1.1904,-1.1918,-1.1911,-1.1955,-1.1918,-1.1925,-1.1962,-1.1996,-1.1986,-1.2023,-1.207,-1.2098,-1.2098,-1.2098,-1.2064,-1.1968,-1.1925,-1.1904,-1.1934,-1.1911,-1.1962,-1.1962,-1.1925,-1.1925,-1.1955,-1.1911,-1.1898,-1.1898,-1.1904,-1.1904,-1.1911,-1.1891,-1.187,-1.1796,-1.1775,-1.1705,-1.1721,-1.1708,-1.1619,-1.1477,-1.1438,-1.1363,-1.1336,-1.1315,-1.1268,-1.1247,-1.124,-1.1234,-1.1227,-1.1234,-1.1261,-1.1234,-1.122,-1.1206,-1.12,-1.1227,-1.1268,-2.8192,-2.8192,-2.8192,-2.8085,-2.7898,-2.7749,-2.7495,-2.7134,-2.6867,-2.668,-2.66,-2.6627,-2.6627,-2.6667,-2.6667,-2.6667,-2.664,-2.6466,-2.64,-2.64,-2.64,-2.64,-2.64,-2.64,-2.6279,-2.6011,-2.5772,-2.5531,-2.5251,-2.5237,-2.509,-2.485,-2.4759,-2.4626,-2.4396,-2.4356,-2.4222,-2.3968,-2.3928,-2.391,-2.383,-2.3817,-2.3817,-2.3803,-2.3803,-2.3817,-2.3777,-2.3429,-2.1982,-1.9558,-1.8024,-1.5883,-1.3641,-1.2394,-1.1823,-1.1891,-1.1918,-1.1959,-1.2084,-1.2077,-1.2098,-1.2098,-1.2098,-1.2091,-1.2104,-1.2139,-1.2186,-1.2179,-1.2241,-1.2268,-1.2268,-1.2268,-1.2223,-1.2261,-1.2152,-1.2111,-1.2098,-1.2098,-1.2091,-1.2077,-1.2084,-1.2098,-1.2098,-1.2098,-1.2098,-1.2098,-1.2098,-1.2098,-1.2098,-1.2091,-1.1993,-1.1945,-1.1925,-1.1877,-1.1816,-1.1803,-1.1803,-1.1708,-1.1613,-1.1525,-1.1463,-1.1436,-1.1402,-1.1409,-1.1402,-1.1416,-1.1409,-1.1389,-1.1396,-1.1335,-1.1307,-1.1362,-1.1396,-1.1382,-1.1409,-2.8192,-2.8192,-2.8192,-2.8179,-2.8138,-2.7898,-2.7709,-2.7589,-2.7148,-2.6881,-2.6774,-2.6587,-2.6453,-2.6413,-2.644,-2.644,-2.64,-2.6413,-2.64,-2.64,-2.64,-2.64,-2.64,-2.64,-2.6292,-2.6091,-2.6024,-2.585,-2.5545,-2.5531,-2.5398,-2.513,-2.509,-2.4957,-2.4716,-2.4626,-2.4479,-2.4262,-2.4222,-2.4102,-2.3924,-2.3897,-2.3897,-2.391,-2.3924,-2.3924,-2.3924,-2.3513,-2.1726,-1.8077,-1.4939,-1.3111,-1.2263,-1.2098,-1.207,-1.2104,-1.2111,-1.2125,-1.2132,-1.2173,-1.2166,-1.2135,-1.2173,-1.2125,-1.2179,-1.2237,-1.2298,-1.2305,-1.2393,-1.2467,-1.2467,-1.2467,-1.2467,-1.2461,-1.2271,-1.2179,-1.2132,-1.2145,-1.2173,-1.2159,-1.2132,-1.2132,-1.2166,-1.2166,-1.2159,-1.2159,-1.2166,-1.2179,-1.2179,-1.22,-1.2139,-1.2118,-1.2111,-1.205,-1.1952,-1.1925,-1.1918,-1.1884,-1.1803,-1.1748,-1.1681,-1.1647,-1.1599,-1.1606,-1.1599,-1.1577,-1.155,-1.1538,-1.1531,-1.1511,-1.1531,-1.157,-1.159,-1.1606,-1.1626,-2.8192,-2.8192,-2.8192,-2.8192,-2.8179,-2.8085,-2.7938,-2.7696,-2.7549,-2.7201,-2.6894,-2.6747,-2.6587,-2.6453,-2.64,-2.64,-2.64,-2.64,-2.64,-2.64,-2.64,-2.64,-2.64,-2.64,-2.6346,-2.6305,-2.6239,-2.6119,-2.5891,-2.5877,-2.5692,-2.5411,-2.5398,-2.5251,-2.501,-2.4957,-2.4796,-2.4532,-2.4492,-2.4452,-2.4386,-2.4346,-2.4409,-2.4372,-2.4359,-2.4382,-2.4213,-2.2939,-2.0897,-1.8108,-1.5681,-1.3571,-1.241,-1.2155,-1.2166,-1.2247,-1.2268,-1.2277,-1.2352,-1.2411,-1.2379,-1.2386,-1.2372,-1.2386,-1.2386,-1.242,-1.2447,-1.2454,-1.2488,-1.2515,-1.2508,-1.2515,-1.2515,-1.2494,-1.2433,-1.2379,-1.2366,-1.2386,-1.2386,-1.2386,-1.2372,-1.2366,-1.2359,-1.2359,-1.2359,-1.2359,-1.2397,-1.239,-1.2363,-1.2332,-1.2305,-1.225,-1.2216,-1.2149,-1.2132,-1.2098,-1.2077,-1.2064,-1.2036,-1.2023,-1.1938,-1.1911,-1.185,-1.1803,-1.1769,-1.1732,-1.1681,-1.1599,-1.1619,-1.1681,-1.1685,-1.1739,-1.178,-1.1823,-1.1877,-2.8192,-2.8192,-2.8192,-2.8192,-2.8192,-2.8192,-2.8085,-2.7924,-2.7736,-2.7522,-2.7215,-2.7054,-2.6841,-2.6587,-2.6573,-2.6493,-2.64,-2.64,-2.64,-2.64,-2.64,-2.64,-2.64,-2.64,-2.64,-2.64,-2.64,-2.6293,-2.6198,-2.6172,-2.6011,-2.5784,-2.5705,-2.5545,-2.5277,-2.5264,-2.5184,-2.4973,-2.4853,-2.4823,-2.4823,-2.4653,-2.4599,-2.4599,-2.4599,-2.4599,-2.4401,-2.345,-2.1782,-1.9424,-1.6889,-1.4739,-1.3627,-1.266,-1.2367,-1.2379,-1.2379,-1.242,-1.2474,-1.2501,-1.2535,-1.2544,-1.2557,-1.2637,-1.2678,-1.273,-1.2737,-1.2705,-1.2737,-1.2691,-1.2737,-1.2737,-1.273,-1.2712,-1.2698,-1.2637,-1.2528,-1.2488,-1.2501,-1.2501,-1.2501,-1.2501,-1.2501,-1.2508,-1.2508,-1.2494,-1.2474,-1.2474,-1.2474,-1.2501,-1.2501,-1.244,-1.24,-1.2352,-1.2332,-1.2305,-1.2336,-1.2309,-1.2302,-1.2281,-1.22,-1.2173,-1.2033,-1.1959,-1.1938,-1.1898,-1.1816,-1.1775,-1.1837,-1.1884,-1.1911,-1.1925,-1.1965,-1.202,-1.2081,-2.8192,-2.8192,-2.8192,-2.8192,-2.8192,-2.8192,-2.8179,-2.8125,-2.7924,-2.7722,-2.7602,-2.7456,-2.7108,-2.6787,-2.672,-2.6667,-2.64,-2.64,-2.64,-2.64,-2.64,-2.64,-2.64,-2.64,-2.64,-2.64,-2.64,-2.6386,-2.6346,-2.636,-2.6292,-2.6091,-2.6038,-2.5877,-2.5611,-2.5558,-2.5545,-2.5424,-2.5224,-2.513,-2.509,-2.4943,-2.4813,-2.4799,-2.4799,-2.4786,-2.4759,-2.451,-2.3751,-2.2058,-1.8214,-1.6505,-1.5799,-1.4006,-1.3116,-1.2944,-1.288,-1.2576,-1.2562,-1.2596,-1.2623,-1.2732,-1.2713,-1.2807,-1.2928,-1.2948,-1.2948,-1.2941,-1.2996,-1.2955,-1.2955,-1.2982,-1.2962,-1.2948,-1.2969,-1.2853,-1.263,-1.2549,-1.2549,-1.2549,-1.2556,-1.2549,-1.2549,-1.2549,-1.2562,-1.271,-1.269,-1.2657,-1.2657,-1.2664,-1.2657,-1.2617,-1.2589,-1.2569,-1.2562,-1.2562,-1.2562,-1.2594,-1.2562,-1.2522,-1.2411,-1.2336,-1.2213,-1.2101,-1.2088,-1.2054,-1.1999,-1.2043,-1.207,-1.2077,-1.2033,-1.2098,-1.2139,-1.2169,-1.223,-2.8192,-2.8192,-2.8192,-2.8192,-2.8192,-2.8192,-2.8192,-2.8179,-2.8112,-2.7951,-2.7722,-2.7629,-2.7321,-2.68,-2.6827,-2.6667,-2.644,-2.64,-2.64,-2.64,-2.64,-2.64,-2.64,-2.64,-2.64,-2.64,-2.64,-2.64,-2.64,-2.6426,-2.6412,-2.6319,-2.6253,-2.6185,-2.5944,-2.5852,-2.5732,-2.5545,-2.5451,-2.5424,-2.5411,-2.5331,-2.5264,-2.5264,-2.5277,-2.5304,-2.5317,-2.5317,-2.509,-2.4048,-2.1935,-1.9595,-1.8144,-1.6263,-1.5282,-1.5018,-1.3897,-1.3086,-1.3013,-1.323,-1.2947,-1.3134,-1.3228,-1.2922,-1.2982,-1.3023,-1.3016,-1.3003,-1.3003,-1.303,-1.3037,-1.3009,-1.303,-1.3037,-1.303,-1.3003,-1.2921,-1.2894,-1.2873,-1.288,-1.284,-1.2901,-1.2887,-1.2867,-1.2873,-1.2894,-1.2894,-1.2894,-1.288,-1.282,-1.28,-1.2805,-1.2805,-1.2785,-1.2785,-1.2785,-1.2785,-1.2785,-1.2799,-1.2766,-1.2656,-1.2554,-1.2451,-1.2356,-1.2281,-1.2241,-1.22,-1.2152,-1.2159,-1.2173,-1.2213,-1.2281,-1.2336,-1.2345,-1.2406,-2.8192,-2.8192,-2.8192,-2.8192,-2.8192,-2.8192,-2.8192,-2.8192,-2.8192,-2.8098,-2.7978,-2.7951,-2.7642,-2.7255,-2.7215,-2.7028,-2.6627,-2.644,-2.64,-2.64,-2.64,-2.64,-2.64,-2.64,-2.64,-2.6439,-2.6533,-2.6587,-2.66,-2.6587,-2.66,-2.6573,-2.6466,-2.6319,-2.6225,-2.6185,-2.6092,-2.5945,-2.5785,-2.5718,-2.5718,-2.5585,-2.5518,-2.5518,-2.5518,-2.5518,-2.5491,-2.5504,-2.5504,-2.5157,-2.4137,-2.2545,-2.0687,-1.8669,-1.7723,-1.7405,-1.6849,-1.6066,-1.6058,-1.5948,-1.5703,-1.4647,-1.4614,-1.3989,-1.3505,-1.3166,-1.3166,-1.3166,-1.3173,-1.3173,-1.3166,-1.3214,-1.3207,-1.3207,-1.3207,-1.3166,-1.3186,-1.3091,-1.3003,-1.3003,-1.2982,-1.2982,-1.2996,-1.3037,-1.3016,-1.2975,-1.2969,-1.2969,-1.2955,-1.2941,-1.2955,-1.2941,-1.2962,-1.2969,-1.2969,-1.2955,-1.2941,-1.2935,-1.2928,-1.2928,-1.2873,-1.2792,-1.2678,-1.2569,-1.2461,-1.2379,-1.2332,-1.2315,-1.2315,-1.2332,-1.24,-1.2461,-1.2528,-1.261,-1.2678,-2.8192,-2.8192,-2.8192,-2.8192,-2.8192,-2.8192,-2.8192,-2.8192,-2.8192,-2.8179,-2.8179,-2.8192,-2.7951,-2.7722,-2.7655,-2.7348,-2.6881,-2.66,-2.6493,-2.64,-2.64,-2.64,-2.64,-2.64,-2.64,-2.6426,-2.6653,-2.6747,-2.676,-2.6827,-2.6881,-2.6841,-2.66,-2.6493,-2.6466,-2.64,-2.6333,-2.6266,-2.6158,-2.6065,-2.6038,-2.5812,-2.5732,-2.5732,-2.5732,-2.5732,-2.5745,-2.5718,-2.5678,-2.5638,-2.5651,-2.4701,-2.3143,-2.1168,-1.9938,-1.992,-1.9431,-1.8897,-1.8788,-1.8957,-1.8381,-1.6984,-1.6427,-1.5642,-1.4441,-1.3645,-1.3356,-1.3363,-1.3356,-1.3356,-1.3397,-1.3363,-1.337,-1.3376,-1.339,-1.3397,-1.3356,-1.3173,-1.3125,-1.3098,-1.3139,-1.3159,-1.3132,-1.3105,-1.3098,-1.3064,-1.3057,-1.3057,-1.305,-1.3064,-1.3105,-1.3132,-1.3166,-1.318,-1.3173,-1.3159,-1.3139,-1.3118,-1.3091,-1.3091,-1.3084,-1.3016,-1.2888,-1.2779,-1.2678,-1.2603,-1.2569,-1.2576,-1.2583,-1.2596,-1.263,-1.2691,-1.2779,-1.2914,-1.2948,-2.8192,-2.8192,-2.8192,-2.8192,-2.8192,-2.8192,-2.8192,-2.8192,-2.8192,-2.8192,-2.8192,-2.8179,-2.8018,-2.7776,-2.7709,-2.7375,-2.6974,-2.676,-2.6613,-2.6453,-2.6413,-2.64,-2.64,-2.64,-2.64,-2.6466,-2.6694,-2.6854,-2.6921,-2.7041,-2.7175,-2.7134,-2.6894,-2.676,-2.668,-2.6547,-2.6453,-2.6453,-2.636,-2.6319,-2.6253,-2.6213,-2.6159,-2.6159,-2.6132,-2.6159,-2.6199,-2.6226,-2.6239,-2.6239,-2.6239,-2.6016,-2.5177,-2.33,-2.2433,-2.2129,-2.1166,-2.0626,-2.0516,-2.0117,-1.9796,-1.8996,-1.8004,-1.6874,-1.5868,-1.4664,-1.4217,-1.3687,-1.3645,-1.3521,-1.3397,-1.3397,-1.3403,-1.3403,-1.3417,-1.3424,-1.341,-1.3363,-1.3308,-1.3295,-1.3308,-1.3336,-1.3254,-1.3227,-1.322,-1.3214,-1.3214,-1.322,-1.3227,-1.3254,-1.3288,-1.3315,-1.3342,-1.3349,-1.3349,-1.3329,-1.3308,-1.3281,-1.3268,-1.3261,-1.3241,-1.322,-1.3098,-1.2996,-1.2908,-1.2873,-1.2873,-1.2873,-1.2867,-1.2786,-1.2887,-1.2962,-1.3003,-1.3043,-1.305,-2.8192,-2.8192,-2.8192,-2.8192,-2.8192,-2.8192,-2.8192,-2.8192,-2.8192,-2.8192,-2.8192,-2.8179,-2.8112,-2.7991,-2.7965,-2.771,-2.7308,-2.6921,-2.676,-2.66,-2.648,-2.64,-2.64,-2.64,-2.64,-2.652,-2.68,-2.7041,-2.7081,-2.7348,-2.7468,-2.7415,-2.7201,-2.7054,-2.7028,-2.6974,-2.6747,-2.6667,-2.6613,-2.6533,-2.6413,-2.64,-2.64,-2.64,-2.64,-2.64,-2.64,-2.64,-2.6386,-2.6386,-2.6386,-2.64,-2.603,-2.5477,-2.4623,-2.4497,-2.3712,-2.3192,-2.3232,-2.322,-2.2888,-2.1592,-2.0382,-1.941,-1.8485,-1.7433,-1.6188,-1.5324,-1.4987,-1.4541,-1.3562,-1.3452,-1.3437,-1.3505,-1.3519,-1.3553,-1.3587,-1.3553,-1.3532,-1.3505,-1.3431,-1.339,-1.337,-1.3363,-1.339,-1.3397,-1.3403,-1.3417,-1.3424,-1.3444,-1.3464,-1.3451,-1.3458,-1.3464,-1.3471,-1.3471,-1.3471,-1.3464,-1.3451,-1.3451,-1.3424,-1.3356,-1.3302,-1.3227,-1.3146,-1.3118,-1.2996,-1.2955,-1.2982,-1.3023,-1.3064,-1.3105,-1.3132,-1.3159,-1.3193,-2.8192,-2.8192,-2.8192,-2.8192,-2.8192,-2.8192,-2.8192,-2.8192,-2.8192,-2.8192,-2.8192,-2.8192,-2.8192,-2.8179,-2.8138,-2.7991,-2.7669,-2.7188,-2.6974,-2.676,-2.66,-2.648,-2.64,-2.64,-2.6426,-2.66,-2.6961,-2.7296,-2.7349,-2.7657,-2.7804,-2.7709,-2.7536,-2.7389,-2.7376,-2.7269,-2.7108,-2.7001,-2.6907,-2.676,-2.6547,-2.648,-2.644,-2.64,-2.64,-2.64,-2.64,-2.64,-2.64,-2.64,-2.64,-2.64,-2.64,-2.6386,-2.6413,-2.6453,-2.6466,-2.64,-2.6268,-2.6109,-2.5117,-2.3981,-2.3395,-2.2238,-2.1118,-1.9986,-1.9137,-1.7827,-1.6741,-1.6104,-1.4771,-1.3791,-1.3601,-1.3585,-1.3632,-1.3653,-1.37,-1.3693,-1.3632,-1.362,-1.3532,-1.3471,-1.3444,-1.3417,-1.3417,-1.3498,-1.3505,-1.3559,-1.3566,-1.3531,-1.3538,-1.3553,-1.3546,-1.3546,-1.3559,-1.358,-1.3587,-1.36,-1.3593,-1.3593,-1.3566,-1.3519,-1.3485,-1.3464,-1.3403,-1.3322,-1.32,-1.3091,-1.3159,-1.3207,-1.3227,-1.3234,-1.3308,-1.3363,-1.341,-2.8192,-2.8192,-2.8192,-2.8192,-2.8192,-2.8192,-2.8192,-2.8192,-2.8192,-2.8192,-2.8192,-2.8192,-2.8192,-2.8192,-2.8192,-2.8005,-2.7749,-2.7575,-2.7281,-2.6961,-2.6814,-2.6667,-2.6453,-2.64,-2.656,-2.6734,-2.7081,-2.7282,-2.7429,-2.7831,-2.8098,-2.8031,-2.7789,-2.7655,-2.767,-2.7523,-2.7296,-2.7255,-2.7242,-2.7054,-2.6827,-2.6734,-2.6653,-2.6507,-2.6453,-2.6466,-2.6507,-2.6507,-2.648,-2.6466,-2.6426,-2.6413,-2.64,-2.64,-2.6547,-2.6613,-2.656,-2.64,-2.6453,-2.6493,-2.6494,-2.5664,-2.4761,-2.3814,-2.3177,-2.2069,-2.1076,-2.04,-1.8624,-1.7179,-1.6237,-1.4939,-1.4131,-1.401,-1.428,-1.4209,-1.4115,-1.4764,-1.4629,-1.4124,-1.4175,-1.379,-1.354,-1.3464,-1.3444,-1.3532,-1.3572,-1.3668,-1.366,-1.3653,-1.3653,-1.3632,-1.3626,-1.3626,-1.3619,-1.3639,-1.3695,-1.368,-1.368,-1.368,-1.3653,-1.3632,-1.3693,-1.366,-1.3599,-1.3559,-1.3424,-1.3349,-1.3349,-1.337,-1.3417,-1.3485,-1.3518,-1.3572,-1.3634,-2.8192,-2.8192,-2.8192,-2.8192,-2.8192,-2.8192,-2.8192,-2.8192,-2.8192,-2.8192,-2.8192,-2.8192,-2.8192,-2.8192,-2.8192,-2.8112,-2.7978,-2.7789,-2.7589,-2.7308,-2.7148,-2.7001,-2.6921,-2.672,-2.6747,-2.6894,-2.7094,-2.7296,-2.7496,-2.7857,-2.8192,-2.8165,-2.8058,-2.7991,-2.7965,-2.7871,-2.771,-2.7563,-2.7403,-2.7242,-2.7108,-2.7068,-2.7014,-2.6894,-2.6907,-2.6894,-2.6894,-2.6921,-2.6921,-2.6881,-2.6921,-2.6921,-2.6934,-2.6934,-2.6961,-2.7028,-2.6974,-2.6948,-2.6934,-2.6881,-2.6947,-2.6974,-2.6201,-2.5885,-2.5605,-2.4972,-2.3637,-2.2649,-2.0512,-1.8894,-1.773,-1.6451,-1.6097,-1.5887,-1.5875,-1.598,-1.5945,-1.5812,-1.5918,-1.5337,-1.4915,-1.4996,-1.485,-1.4604,-1.4302,-1.3702,-1.3756,-1.3783,-1.3754,-1.3747,-1.3754,-1.3761,-1.3754,-1.3761,-1.3747,-1.3747,-1.3754,-1.3768,-1.3768,-1.3768,-1.3768,-1.3781,-1.3842,-1.3829,-1.3741,-1.3666,-1.3605,-1.3578,-1.36,-1.362,-1.3648,-1.3695,-1.3687,-1.3714,-1.3734,-2.8192,-2.8192,-2.8192,-2.8192,-2.8192,-2.8192,-2.8192,-2.8192,-2.8192,-2.8192,-2.8192,-2.8192,-2.8192,-2.8192,-2.8192,-2.8165,-2.8165,-2.7951,-2.7776,-2.7642,-2.7495,-2.7376,-2.7215,-2.7014,-2.6987,-2.7028,-2.7295,-2.7496,-2.7684,-2.7938,-2.8192,-2.8192,-2.8152,-2.8165,-2.8179,-2.8125,-2.8018,-2.7857,-2.767,-2.7536,-2.7402,-2.7416,-2.7362,-2.7309,-2.7309,-2.7309,-2.7309,-2.7282,-2.7269,-2.7269,-2.7242,-2.7215,-2.7229,-2.7215,-2.7296,-2.7376,-2.7376,-2.7402,-2.7416,-2.7389,-2.7376,-2.7416,-2.751,-2.7288,-2.7357,-2.7482,-2.7111,-2.5188,-2.302,-2.102,-1.9552,-1.8891,-1.8376,-1.8413,-1.8414,-1.8512,-1.8609,-1.8416,-1.8311,-1.8052,-1.7751,-1.7442,-1.7101,-1.6331,-1.5466,-1.4199,-1.3905,-1.3955,-1.3926,-1.3889,-1.3923,-1.395,-1.3957,-1.3964,-1.395,-1.393,-1.391,-1.3883,-1.3926,-1.3953,-1.3944,-1.3957,-1.3991,-1.3944,-1.3883,-1.391,-1.396,-1.3856,-1.3795,-1.3741,-1.3714,-1.3831,-1.3871,-1.3862,-1.4463,-2.8192,-2.8192,-2.8192,-2.8192,-2.8192,-2.8192,-2.8192,-2.8192,-2.8192,-2.8192,-2.8192,-2.8192,-2.8192,-2.8192,-2.8192,-2.8192,-2.8179,-2.8165,-2.7991,-2.7789,-2.7655,-2.7549,-2.7456,-2.7389,-2.7348,-2.7535,-2.7602,-2.7791,-2.8031,-2.8045,-2.8179,-2.8192,-2.8192,-2.8192,-2.8192,-2.8179,-2.8165,-2.8085,-2.8005,-2.7898,-2.7736,-2.7642,-2.7603,-2.7416,-2.7336,-2.7309,-2.7322,-2.7389,-2.7416,-2.7429,-2.7443,-2.7429,-2.7469,-2.7456,-2.755,-2.767,-2.771,-2.7804,-2.7857,-2.767,-2.7523,-2.7697,-2.7884,-2.8005,-2.7965,-2.8072,-2.7846,-2.7249,-2.4945,-2.375,-2.2888,-2.2471,-2.1057,-2.0326,-2.0388,-2.0935,-2.0985,-2.0985,-2.0849,-2.0792,-2.0494,-2.0095,-1.9389,-1.863,-1.7742,-1.6537,-1.5039,-1.5046,-1.4267,-1.4156,-1.419,-1.4217,-1.4231,-1.4238,-1.4245,-1.4211,-1.4143,-1.4129,-1.4129,-1.417,-1.4217,-1.4217,-1.4163,-1.4177,-1.4143,-1.4211,-1.4224,-1.4089,-1.3923,-1.3835,-1.3829,-1.3973,-1.4068,-1.4129,-1.5344,-2.8192,-2.8192,-2.8192,-2.8192,-2.8192,-2.8192,-2.8192,-2.8192,-2.8192,-2.8192,-2.8192,-2.8192,-2.8192,-2.8192,-2.8192,-2.8192,-2.8192,-2.8179,-2.8098,-2.8058,-2.7978,-2.7938,-2.7817,-2.767,-2.7589,-2.7696,-2.7722,-2.7722,-2.7871,-2.8098,-2.8179,-2.8192,-2.8192,-2.8192,-2.8192,-2.8192,-2.8192,-2.8192,-2.8192,-2.8098,-2.8072,-2.8018,-2.7951,-2.7871,-2.7844,-2.7844,-2.7857,-2.7857,-2.7844,-2.7831,-2.7817,-2.7804,-2.7791,-2.7791,-2.7857,-2.7965,-2.7978,-2.8058,-2.8138,-2.7965,-2.7924,-2.7965,-2.8112,-2.8192,-2.8192,-2.8192,-2.8192,-2.7448,-2.6151,-2.4819,-2.2514,-2.2858,-2.3008,-2.217,-2.2223,-2.3105,-2.3374,-2.3397,-2.301,-2.2816,-2.274,-2.2514,-2.1741,-2.0889,-1.9986,-1.8954,-1.7409,-1.6001,-1.5264,-1.4568,-1.4589,-1.4923,-1.5011,-1.4857,-1.485,-1.4622,-1.4394,-1.4312,-1.4319,-1.4353,-1.4373,-1.4299,-1.4265,-1.4299,-1.4326,-1.4333,-1.4292,-1.4204,-1.4129,-1.4052,-1.4065,-1.4156,-1.4251,-1.4428,-1.6177,-2.8192,-2.8192,-2.8192,-2.8192,-2.8192,-2.8192,-2.8192,-2.8192,-2.8192,-2.8192,-2.8192,-2.8192,-2.8192,-2.8192,-2.8192,-2.8192,-2.8192,-2.8192,-2.8192,-2.8165,-2.8152,-2.8192,-2.8112,-2.8005,-2.7884,-2.7871,-2.7829,-2.7869,-2.7951,-2.8098,-2.8165,-2.8192,-2.8192,-2.8192,-2.8192,-2.8192,-2.8192,-2.8192,-2.8192,-2.7617,-2.735,-2.787,-2.7435,-2.7451,-2.7606,-2.8125,-2.8112,-2.8098,-2.8112,-2.8125,-2.8138,-2.8165,-2.8179,-2.8179,-2.8192,-2.8192,-2.8192,-2.8192,-2.8192,-2.8179,-2.8179,-2.8152,-2.8165,-2.8192,-2.8192,-2.8136,-2.801,-2.6927,-2.5896,-2.4776,-2.2697,-2.4209,-2.5331,-2.485,-2.5273,-2.5922,-2.5909,-2.5879,-2.5251,-2.4725,-2.4855,-2.5227,-2.5046,-2.4198,-2.248,-2.0931,-1.8374,-1.7113,-1.6515,-1.5794,-1.516,-1.5579,-1.6016,-1.5801,-1.555,-1.5705,-1.5646,-1.4434,-1.4448,-1.4482,-1.4475,-1.4414,-1.4421,-1.4489,-1.4496,-1.4448,-1.4434,-1.4434,-1.4401,-1.4353,-1.4373,-1.4401,-1.4939,-1.5383,-1.7299,-2.8192,-2.8192,-2.8192,-2.8192,-2.8192,-2.8192,-2.8192,-2.8192,-2.8192,-2.8192,-2.8192,-2.8192,-2.8192,-2.8192,-2.8192,-2.8192,-2.8192,-2.8192,-2.8192,-2.8192,-2.8192,-2.8192,-2.8179,-2.8125,-2.8085,-2.8152,-2.8125,-2.8098,-2.8138,-2.8165,-2.8179,-2.8192,-2.8192,-2.8192,-2.8192,-2.8192,-2.8192,-2.8192,-2.8136,-2.68,-2.6461,-2.7194,-2.6588,-2.6715,-2.7405,-2.8179,-2.8192,-2.8192,-2.8192,-2.8192,-2.8192,-2.8192,-2.8192,-2.8192,-2.8192,-2.8192,-2.8192,-2.8192,-2.8192,-2.8192,-2.8192,-2.8192,-2.8192,-2.8192,-2.8192,-2.8052,-2.763,-2.6715,-2.6758,-2.6473,-2.6206,-2.6358,-2.6978,-2.7012,-2.7191,-2.7796,-2.7697,-2.7615,-2.6838,-2.6481,-2.7367,-2.8074,-2.8188,-2.765,-2.5445,-2.3076,-1.9839,-1.8369,-1.8068,-1.7718,-1.7282,-1.7079,-1.7639,-1.7052,-1.6894,-1.7161,-1.6821,-1.539,-1.4563,-1.4545,-1.4579,-1.4618,-1.4593,-1.4647,-1.4613,-1.4545,-1.4606,-1.4674,-1.4658,-1.4604,-1.4631,-1.4749,-1.5373,-1.6197,-1.7772,-2.8192,-2.8192,-2.8192,-2.8192,-2.8192,-2.8192,-2.8192,-2.8192,-2.8192,-2.8192,-2.8192,-2.8192,-2.8192,-2.8192,-2.8192,-2.8192,-2.8192,-2.8192,-2.8192,-2.8192,-2.8192,-2.8192,-2.8192,-2.8192,-2.8192,-2.8192,-2.8192,-2.8192,-2.8179,-2.8192,-2.8192,-2.8192,-2.8192,-2.8192,-2.8192,-2.8192,-2.8192,-2.7883,-2.6982,-2.6024,-2.6758,-2.6461,-2.6321,-2.6715,-2.7659,-2.8179,-2.8192,-2.8192,-2.8192,-2.8192,-2.8192,-2.8192,-2.8192,-2.8192,-2.8192,-2.8192,-2.8192,-2.8192,-2.8192,-2.8192,-2.8192,-2.8205,-2.8219,-2.8219,-2.8192,-2.8192,-2.763,-2.722,-2.7568,-2.7025,-2.5848,-2.7179,-2.7688,-2.6542,-2.6741,-2.8069,-2.8413,-2.8403,-2.8102,-2.8091,-2.8628,-2.847,-2.8524,-2.8751,-2.7195,-2.6374,-2.3688,-2.1674,-2.105,-2.0798,-2.0403,-1.9733,-1.9526,-1.8676,-1.8183,-1.778,-1.6806,-1.5216,-1.4685,-1.464,-1.4681,-1.4741,-1.4728,-1.4735,-1.4714,-1.4694,-1.4755,-1.4848,-1.4862,-1.4855,-1.4841,-1.4808,-1.5068,-1.5966,-1.7284,-2.8192,-2.8192,-2.8192,-2.8192,-2.8192,-2.8192,-2.8192,-2.8192,-2.8192,-2.8192,-2.8192,-2.8192,-2.8192,-2.8192,-2.8192,-2.8192,-2.8192,-2.8192,-2.8192,-2.8192,-2.8192,-2.8192,-2.8192,-2.8192,-2.8192,-2.8192,-2.8192,-2.8192,-2.8192,-2.8192,-2.8192,-2.8192,-2.8192,-2.8192,-2.8192,-2.8192,-2.8192,-2.7883,-2.7109,-2.6376,-2.6546,-2.6418,-2.6363,-2.6842,-2.7532,-2.8192,-2.8192,-2.8192,-2.8192,-2.8192,-2.8192,-2.8192,-2.8192,-2.8192,-2.8192,-2.8192,-2.8192,-2.8232,-2.8326,-2.8366,-2.8433,-2.854,-2.8419,-2.8353,-2.8379,-2.8486,-2.783,-2.7573,-2.8076,-2.7169,-2.6259,-2.7818,-2.8061,-2.6947,-2.7464,-2.8804,-2.8938,-2.8898,-2.8845,-2.8965,-2.8724,-2.8591,-2.8591,-2.8845,-2.8526,-2.8181,-2.7674,-2.5775,-2.3828,-2.3315,-2.2891,-2.2274,-2.1167,-2.0077,-1.8822,-1.7651,-1.653,-1.5043,-1.4828,-1.4848,-1.4903,-1.4977,-1.4923,-1.4843,-1.4923,-1.4943,-1.4943,-1.4964,-1.4991,-1.4997,-1.4991,-1.495,-1.4896,-1.5945,-1.7257,-2.8192,-2.8192,-2.8192,-2.8192,-2.8192,-2.8192,-2.8192,-2.8192,-2.8192,-2.8192,-2.8192,-2.8192,-2.8192,-2.8192,-2.8192,-2.8192,-2.8192,-2.8192,-2.8192,-2.8192,-2.8192,-2.8192,-2.8192,-2.8192,-2.8192,-2.8192,-2.8192,-2.8192,-2.8192,-2.8192,-2.8192,-2.8192,-2.8192,-2.8192,-2.8192,-2.8192,-2.8192,-2.7968,-2.7194,-2.6248,-2.5683,-2.6546,-2.6109,-2.6376,-2.6969,-2.7968,-2.8192,-2.8192,-2.8192,-2.8192,-2.8192,-2.8192,-2.8192,-2.8192,-2.8192,-2.8192,-2.8192,-2.8393,-2.8497,-2.8537,-2.8711,-2.8818,-2.8778,-2.8684,-2.8657,-2.8721,-2.8186,-2.7822,-2.7996,-2.7277,-2.6796,-2.7885,-2.8971,-2.8771,-2.8974,-2.9339,-2.9285,-2.9232,-2.9179,-2.9018,-2.8604,-2.85,-2.8674,-2.8915,-2.9085,-2.9039,-2.8647,-2.815,-2.6318,-2.5071,-2.4687,-2.4315,-2.3049,-2.1381,-2.0007,-1.86,-1.6696,-1.538,-1.5085,-1.5065,-1.5126,-1.5166,-1.5072,-1.5059,-1.5126,-1.514,-1.5079,-1.5092,-1.5133,-1.5133,-1.5086,-1.5086,-1.5031,-1.6261,-1.7638,-2.8192,-2.8192,-2.8192,-2.8192,-2.8192,-2.8192,-2.8192,-2.8192,-2.8192,-2.8192,-2.8192,-2.8192,-2.8192,-2.8192,-2.8192,-2.8192,-2.8192,-2.8192,-2.8192,-2.8192,-2.8192,-2.8192,-2.8192,-2.8192,-2.8192,-2.8192,-2.8192,-2.8192,-2.8192,-2.8192,-2.8192,-2.8192,-2.8192,-2.8192,-2.8192,-2.8192,-2.8192,-2.7883,-2.6969,-2.5811,-2.5032,-2.5598,-2.5245,-2.5556,-2.6715,-2.7757,-2.8136,-2.8192,-2.8192,-2.8192,-2.8192,-2.8192,-2.8192,-2.8192,-2.8192,-2.8219,-2.8366,-2.8537,-2.8617,-2.8761,-2.8935,-2.9125,-2.9152,-2.9098,-2.8988,-2.8901,-2.8662,-2.8483,-2.8408,-2.8008,-2.7952,-2.8767,-2.9352,-2.9432,-2.9553,-2.9539,-2.9446,-2.9219,-2.9108,-2.8898,-2.8484,-2.8591,-2.8751,-2.8818,-2.9032,-2.9285,-2.9322,-2.9063,-2.8584,-2.7304,-2.6093,-2.5707,-2.4844,-2.3168,-2.1464,-1.9959,-1.7683,-1.5867,-1.6137,-1.6058,-1.5676,-1.5622,-1.5362,-1.5181,-1.5181,-1.5181,-1.5167,-1.5181,-1.5181,-1.5181,-1.5147,-1.5167,-1.5415,-1.6338,-1.7218,-2.8192,-2.8192,-2.8192,-2.8192,-2.8192,-2.8192,-2.8192,-2.8192,-2.8192,-2.8192,-2.8192,-2.8192,-2.8192,-2.8192,-2.8192,-2.8192,-2.8192,-2.8192,-2.8192,-2.8192,-2.8192,-2.8192,-2.8192,-2.8192,-2.8192,-2.8192,-2.8192,-2.8192,-2.8192,-2.8192,-2.8192,-2.8192,-2.8192,-2.8192,-2.8192,-2.8192,-2.8192,-2.7799,-2.6982,-2.5726,-2.499,-2.4605,-2.4691,-2.4904,-2.6333,-2.7194,-2.8136,-2.8192,-2.8192,-2.8192,-2.8192,-2.8192,-2.8192,-2.8192,-2.8299,-2.8353,-2.847,-2.8751,-2.8965,-2.9125,-2.9259,-2.9379,-2.9526,-2.9526,-2.9486,-2.9371,-2.9327,-2.9282,-2.9313,-2.9371,-2.9522,-2.9659,-2.9646,-2.9659,-2.9673,-2.9642,-2.9388,-2.9108,-2.8925,-2.8711,-2.8671,-2.8778,-2.8845,-2.8885,-2.8978,-2.9219,-2.9446,-2.9482,-2.9409,-2.9001,-2.7542,-2.6592,-2.5945,-2.49,-2.3152,-2.1544,-2.0104,-1.8892,-1.9178,-1.8786,-1.7305,-1.6479,-1.6565,-1.5964,-1.5181,-1.5181,-1.5181,-1.5181,-1.5181,-1.5181,-1.5181,-1.5181,-1.5181,-1.5462,-1.6318,-2.8192,-2.8192,-2.8192,-2.8192,-2.8192,-2.8192,-2.8192,-2.8192,-2.8192,-2.8192,-2.8192,-2.8192,-2.8192,-2.8192,-2.8192,-2.8192,-2.8192,-2.8192,-2.8192,-2.8192,-2.8192,-2.8192,-2.8192,-2.8192,-2.8192,-2.8192,-2.8192,-2.8192,-2.8192,-2.8192,-2.8192,-2.8192,-2.8192,-2.8192,-2.8192,-2.8192,-2.8192,-2.8052,-2.7532,-2.663,-2.4764,-2.438,-2.4605,-2.438,-2.516,-2.6151,-2.7659,-2.8192,-2.8192,-2.8192,-2.8192,-2.8192,-2.8192,-2.8192,-2.8353,-2.8444,-2.8537,-2.8778,-2.9072,-2.9285,-2.9526,-2.97,-2.99,-2.9833,-2.9766,-2.9726,-2.9713,-2.97,-2.9686,-2.9686,-2.9766,-2.978,-2.978,-2.97,-2.9646,-2.9486,-2.9179,-2.8911,-2.8684,-2.8511,-2.8497,-2.8631,-2.8871,-2.8898,-2.9005,-2.9148,-2.9348,-2.9619,-2.9766,-2.982,-2.9027,-2.7612,-2.7386,-2.6547,-2.4534,-2.3198,-2.2739,-2.2234,-2.205,-2.1221,-1.9567,-1.8647,-1.7949,-1.7025,-1.6011,-1.5368,-1.5181,-1.5181,-1.5181,-1.5181,-1.5181,-1.5181,-1.5187,-1.5208,-1.5505,-2.8192,-2.8192,-2.8192,-2.8192,-2.8192,-2.8192,-2.8192,-2.8192,-2.8192,-2.8192,-2.8192,-2.8192,-2.8192,-2.8192,-2.8192,-2.8192,-2.8192,-2.8192,-2.8192,-2.8192,-2.8192,-2.8192,-2.8192,-2.8192,-2.8192,-2.8192,-2.8192,-2.8192,-2.8192,-2.8192,-2.8192,-2.8192,-2.8192,-2.8192,-2.8192,-2.8192,-2.8192,-2.8192,-2.7575,-2.5969,-2.3341,-2.3684,-2.4166,-2.4081,-2.4551,-2.6885,-2.8094,-2.8192,-2.8192,-2.8192,-2.8192,-2.8192,-2.8192,-2.8192,-2.8219,-2.8312,-2.8497,-2.8724,-2.8951,-2.9232,-2.9472,-2.9606,-2.9726,-2.9847,-2.99,-2.9913,-2.9913,-2.9913,-2.9913,-2.9913,-2.99,-2.9887,-2.9833,-2.9713,-2.9579,-2.9245,-2.8911,-2.8671,-2.8457,-2.8377,-2.8379,-2.8524,-2.8791,-2.8921,-2.9058,-2.9205,-2.9379,-2.9579,-2.9766,-2.986,-2.9873,-2.8944,-2.9169,-2.8211,-2.6229,-2.5218,-2.499,-2.4123,-2.3518,-2.2647,-2.1774,-1.9928,-1.836,-1.7763,-1.6986,-1.5924,-1.5181,-1.5181,-1.5181,-1.5208,-1.5228,-1.5242,-1.5282,-1.5309,-1.535,-2.8192,-2.8192,-2.8192,-2.8192,-2.8192,-2.8192,-2.8192,-2.8192,-2.8192,-2.8192,-2.8192,-2.8192,-2.8192,-2.8192,-2.8192,-2.8192,-2.8192,-2.8192,-2.8192,-2.8192,-2.8192,-2.8192,-2.8192,-2.8192,-2.8192,-2.8192,-2.8192,-2.8192,-2.8192,-2.8192,-2.8192,-2.8192,-2.8192,-2.8192,-2.8192,-2.8192,-2.8192,-2.8179,-2.7448,-2.5373,-2.274,-2.3738,-2.4252,-2.4166,-2.502,-2.7139,-2.8094,-2.8192,-2.8192,-2.8192,-2.8192,-2.8192,-2.8192,-2.8192,-2.8272,-2.8406,-2.8524,-2.8657,-2.8831,-2.9032,-2.9285,-2.9366,-2.9392,-2.9428,-2.9673,-2.9686,-2.9806,-2.982,-2.99,-2.9913,-2.9847,-2.9806,-2.97,-2.9566,-2.9352,-2.9072,-2.8751,-2.847,-2.8379,-2.8299,-2.8339,-2.8484,-2.8738,-2.8935,-2.9068,-2.9366,-2.9526,-2.9553,-2.9726,-2.9887,-2.99,-2.9913,-2.9913,-2.9824,-2.8436,-2.7702,-2.7521,-2.6513,-2.5264,-2.499,-2.4295,-2.0981,-1.8685,-1.8368,-1.7491,-1.5737,-1.5181,-1.5215,-1.5262,-1.5303,-1.5316,-1.5323,-1.5371,-1.5425,-1.5486,-2.8192,-2.8192,-2.8192,-2.8192,-2.8192,-2.8192,-2.8192,-2.8192,-2.8192,-2.8192,-2.8192,-2.8192,-2.8192,-2.8192,-2.8192,-2.8192,-2.8192,-2.8192,-2.8192,-2.8192,-2.8192,-2.8192,-2.8192,-2.8192,-2.8192,-2.8192,-2.8192,-2.8192,-2.8192,-2.8192,-2.8192,-2.8192,-2.8192,-2.8192,-2.8192,-2.8192,-2.8192,-2.7841,-2.7054,-2.5768,-2.5032,-2.4819,-2.4605,-2.4605,-2.516,-2.6236,-2.7575,-2.8192,-2.8192,-2.8192,-2.8192,-2.8192,-2.8192,-2.8192,-2.8299,-2.8433,-2.8473,-2.8591,-2.8778,-2.8828,-2.8921,-2.8948,-2.8961,-2.9095,-2.9366,-2.9526,-2.9646,-2.974,-2.982,-2.9887,-2.982,-2.9686,-2.9553,-2.9339,-2.9098,-2.8871,-2.8564,-2.8393,-2.8366,-2.8299,-2.8446,-2.8564,-2.8751,-2.8961,-2.9188,-2.9486,-2.9619,-2.9633,-2.97,-2.9833,-2.9913,-2.9913,-2.9913,-2.9779,-2.9631,-2.9362,-2.8899,-2.8809,-2.7702,-2.7657,-2.6831,-2.3828,-2.1258,-1.9427,-1.8283,-1.6585,-1.5498,-1.5303,-1.535,-1.5418,-1.5438,-1.5418,-1.552,-1.5581,-1.5635,-2.8192,-2.8192,-2.8192,-2.8192,-2.8192,-2.8192,-2.8192,-2.8192,-2.8192,-2.8192,-2.8192,-2.8192,-2.8192,-2.8192,-2.8192,-2.8192,-2.8192,-2.8192,-2.8192,-2.8192,-2.8192,-2.8192,-2.8192,-2.8192,-2.8192,-2.8192,-2.8192,-2.8192,-2.8192,-2.8192,-2.8192,-2.8192,-2.8192,-2.8192,-2.8192,-2.8192,-2.8136,-2.7841,-2.7883,-2.7109,-2.6673,-2.6066,-2.4819,-2.5331,-2.6588,-2.7448,-2.815,-2.8192,-2.8192,-2.8192,-2.8192,-2.8192,-2.8192,-2.8192,-2.8259,-2.8299,-2.8339,-2.8379,-2.847,-2.8604,-2.8657,-2.8655,-2.8721,-2.8908,-2.9165,-2.9366,-2.9472,-2.9553,-2.9673,-2.9847,-2.9793,-2.9579,-2.9406,-2.9045,-2.8751,-2.8551,-2.8353,-2.8444,-2.8551,-2.8604,-2.8724,-2.8858,-2.8978,-2.9192,-2.9379,-2.9593,-2.9753,-2.978,-2.9793,-2.986,-2.9913,-2.9913,-2.9913,-2.9913,-2.9869,-2.9824,-2.9541,-2.9824,-2.9837,-2.9176,-2.8249,-2.6921,-2.4637,-2.241,-1.9835,-1.7844,-1.6897,-1.5935,-1.5506,-1.5526,-1.5539,-1.5566,-1.5627,-1.573,-1.5791]},{"header":{"parameterUnit":"m.s-1","parameterCategory":1,"la1":31.0,"la2":29.5877,"lo1":-88.7671,"lo2":-86.6584,"dy":0.0162,"dx":0.0185,"nx":115,"ny":88,"refTime":"2026-03-29T00:00:00:Z","depth":0,"parameterNumber":3,"parameterNumberName":"V-component_of_WINDS"},"data":[0.0,0.0,0.0,0.0,0.0,0.0,0.0,0.0,0.0,0.0,0.0,0.0,0.0,0.0,0.0,0.0,0.0,0.0,0.0,0.0,0.0,0.0,0.0,0.0,0.0,0.0,0.0,0.0,0.0,0.0,0.0,0.0,0.0,0.0,0.0,0.0,0.0,0.0,0.0,0.0,0.0,0.0,0.0,0.0,0.0,0.0,0.0,0.0,0.0,0.0,0.0,0.0,0.0,0.0,0.0,0.0,0.0,0.0,0.0,0.0,0.0,0.0,0.0,0.0,0.0,0.0,0.0,0.0,0.0,0.0,0.0,0.0,0.0,0.0,0.0,0.0,0.0,0.0,0.0,0.0,0.0,0.0,0.0,0.0,0.0,0.0,0.0,0.0,0.0,0.0,0.0,0.0,0.0,0.0,0.0,0.0,0.0,0.0,0.0,0.0,0.0,0.0,0.0,0.0,0.0,0.0,0.0,0.0,0.0,0.0,0.0,0.0,0.0,0.0,0.0,0.0,0.0,0.0,0.0,0.0,0.0,0.0,0.0,0.0,0.0,0.0,0.0,0.0,0.0,0.0,0.0,0.0,0.0,0.0,0.0,0.0,0.0,0.0,0.0,0.0,0.0,0.0,0.0,0.0,0.0,0.0,0.0,0.0,0.0,0.0,0.0,0.0,0.0,0.0,0.0,0.0,0.0,0.0,0.0,0.0,0.0,0.0,0.0,0.0,0.0,0.0,0.0,0.0,0.0,0.0,0.0,0.0,0.0,0.0,0.0,0.0,0.0,0.0,0.0,0.0,0.0,0.0,0.0,0.0,0.0,0.0,0.0,0.0,0.0,0.0,0.0,0.0,0.0,0.0,0.0,0.0,0.0,0.0,0.0,0.0,0.0,0.0,0.0,0.0,0.0,0.0,0.0,0.0,0.0,0.0,0.0,0.0,0.0,0.0,0.0,0.0,0.0,0.0,0.0,0.0,0.0,0.0,0.0,0.0,0.0,0.0,0.0,0.0,0.0,0.0,0.0,0.0,0.0,0.0,0.0,0.0,0.0,0.0,0.0,0.0,0.0,0.0,0.0,0.0,0.0,0.0,0.0,0.0,0.0,0.0,0.0,0.0,0.0,0.0,0.0,0.0,0.0,0.0,0.0,0.0,0.0,0.0,0.0,0.0,0.0,0.0,0.0,0.0,0.0,0.0,0.0,0.0,0.0,0.0,0.0,0.0,0.0,0.0,0.0,0.0,0.0,0.0,0.0,0.0,0.0,0.0,0.0,0.0,0.0,0.0,0.0,0.0,0.0,0.0,0.0,0.0,0.0,0.0,0.0,0.0,0.0,0.0,0.0,0.0,0.0,0.0,0.0,0.0,0.0,0.0,0.0,0.0,0.0,0.0,0.0,0.0,0.0,0.0,0.0,0.0,0.0,0.0,0.0,0.0,0.0,0.0,0.0,0.0,0.0,0.0,0.0,0.0,0.0,0.0,0.0,0.0,0.0,0.0,0.0,0.0,0.0,0.0,0.0,0.0,0.0,0.0,0.0,0.0,0.0,0.0,0.0,0.0,0.0,0.0,0.0,0.0,0.0,0.0,0.0,0.0,0.0,0.0,0.0,0.0,0.0,0.0,0.0,0.0,0.0,0.0,0.0,0.0,0.0,0.0,0.0,0.0,0.0,0.0,0.0,0.0,0.0,0.0,0.0,0.0,0.0,0.0,0.0,0.0,0.0,0.0,0.0,0.0,0.0,0.0,0.0,0.0,0.0,0.0,0.0,0.0,0.0,0.0,0.0,0.0,0.0,0.0,0.0,0.0,0.0,0.0,0.0,0.0,0.0,0.0,0.0,0.0,0.0,0.0,0.0,0.0,0.0,0.0,0.0,0.0,0.0,0.0,0.0,0.0,0.0,0.0,0.0,0.0,0.0,0.0,0.0,0.0,0.0,0.0,0.0,0.0,0.0,0.0,0.0,0.0,0.0,0.0,0.0,0.0,0.0,0.0,0.0,0.0,0.0,0.0,0.0,0.0,0.0,0.0,0.0,0.0,0.0,0.0,0.0,0.0,0.0,0.0,0.0,0.0,0.0,0.0,0.0,0.0,0.0,0.0,0.0,0.0,0.0,0.0,0.0,0.0,0.0,0.0,0.0,0.0,0.0,0.0,0.0,0.0,0.0,0.0,0.0,0.0,0.0,0.0,0.0,0.0,0.0,0.0,0.0,0.0,0.0,0.0,0.0,0.0,0.0,0.0,0.0,0.0,0.0,0.0,0.0,0.0,0.0,0.0,0.0,0.0,0.0,0.0,0.0,0.0,0.0,0.0,0.0,0.0,0.0,0.0,0.0,0.0,0.0,0.0,0.0,0.0,0.0,0.0,0.0,0.0,0.0,0.0,0.0,0.0,0.0,0.0,0.0,0.0,0.0,0.0,0.0,0.0,0.0,0.0,0.0,0.0,0.0,0.0,0.0,0.0,0.0,0.0,0.0,0.0,0.0,0.0,0.0,0.0,0.0,0.0,0.0,0.0,0.0,0.0,0.0,0.0,0.0,0.0,0.0,0.0,0.0,0.0,0.0,0.0,0.0,0.0,0.0,0.0,0.0,0.0,0.0,0.0,0.0,0.0,0.0,0.0,0.0,0.0,0.0,0.0,0.0,0.0,0.0,0.0,0.0,0.0,0.0,0.0,0.0,0.0,0.0,0.0,0.0,0.0,0.0,0.0,0.0,0.0,0.0,0.0,0.0,0.0,0.0,0.0,0.0,0.0,0.0,0.0,0.0,0.0,0.0,0.0,0.0,0.0,0.0,0.0,0.0,0.0,0.0,0.0,0.0,0.0,0.0,0.0,0.0,0.0,0.0,0.0,0.0,0.0,0.0,0.0,0.0,0.0,0.0,0.0,0.0,0.0,0.0,0.0,0.0,0.0,0.0,0.0,0.0,0.0,0.0,0.0,0.0,0.0,0.0,0.0,0.0,0.0,0.0,0.0,0.0,0.0,0.0,0.0,0.0,0.0,0.0,0.0,0.0,0.0,0.0,0.0,0.0,0.0,0.0,0.0,0.0,0.0,0.0,0.0,0.0,0.0,0.0,0.0,0.0,0.0,0.0,0.0,0.0,0.0,0.0,0.0,0.0,0.0,0.0,0.0,0.0,0.0,0.0,0.0,0.0,0.0,0.0,0.0,0.0,0.0,0.0,0.0,0.0,0.0,0.0,0.0,0.0,0.0,0.0,0.0,0.0,0.0,0.0,0.0,0.0,0.0,0.0,0.0,0.0,0.0,0.0,0.0,0.0,0.0,0.0,0.0,0.0,0.0,0.0,0.0,0.0,0.0,0.0,0.0,0.0,0.0,0.0,0.0,0.0,0.0,0.0,0.0,0.0,0.0,0.0,0.0,0.0,0.0,0.0,0.0,0.0,0.0,0.0,0.0,0.0,0.0,0.0,0.0,0.0,0.0,0.0,0.0,0.0,0.0,0.0,0.0,0.0,0.0,0.0,0.0,0.0,0.0,0.0,0.0,0.0,0.0,0.0,0.0,0.0,0.0,0.0,0.0,0.0,0.0,0.0,0.0,0.0,0.0,0.0,0.0,0.0,0.0,0.0,0.0,0.0,0.0,0.0,0.0,0.0,0.0,0.0,0.0,0.0,0.0,0.0,0.0,0.0,0.0,0.0,0.0,0.0,0.0,0.0,0.0,0.0,0.0,0.0,0.0,0.0,0.0,0.0,0.0,0.0,0.0,0.0,0.0,0.0,0.0,0.0,0.0,0.0,0.0,0.0,0.0,0.0,0.0,0.0,0.0,0.0,0.0,0.0,0.0,0.0,0.0,0.0,0.0,0.0,0.0,0.0,0.0,0.0,0.0,0.0,0.0,0.0,0.0,0.0,0.0,0.0,0.0,0.0,0.0,0.0,0.0,0.0,0.0,0.0,0.0,0.0,0.0,0.0,0.0,0.0,0.0,0.0,0.0,0.0,0.0,0.0,0.0,0.0,0.0,0.0,0.0,0.0,0.0,0.0,0.0,0.0,0.0,0.0,0.0,0.0,0.0,0.0,0.0,0.0,0.0,0.0,0.0,0.0,0.0,0.0,0.0,0.0,0.0,0.0,0.0,0.0,0.0,0.0,0.0,0.0,0.0,0.0,0.0,0.0,0.0,0.0,0.0,0.0,0.0,0.0,0.0,0.0,0.0,0.0,0.0,0.0,0.0,0.0,0.0,0.0,0.0,0.0,0.0,0.0,0.0,0.0,0.0,0.0,0.0,0.0,0.0,0.0,0.0,0.0,0.0,1.3894,0.0,0.0,0.0,0.0,0.0,0.0,0.0,0.0,0.0,0.0,0.0,0.0,0.0,0.0,0.0,0.0,0.0,0.0,0.0,0.0,0.0,0.0,0.0,0.0,0.0,0.0,0.0,0.0,0.0,0.0,0.0,0.0,0.0,0.0,0.0,0.0,0.0,0.0,0.0,0.0,0.0,0.0,0.0,0.0,0.0,0.0,0.0,0.0,0.0,0.0,0.0,0.0,0.0,0.0,0.0,0.0,0.0,0.0,0.0,0.0,0.0,0.0,0.0,0.0,0.0,0.0,0.0,0.0,0.0,0.0,0.0,0.0,0.0,0.0,0.0,0.0,0.0,0.0,0.0,0.0,0.0,0.0,0.0,0.0,0.0,0.0,0.0,0.0,0.0,0.0,0.0,0.0,0.0,0.0,0.0,0.0,0.0,0.0,0.0,0.0,0.0,0.0,0.0,0.0,0.0,0.0,0.0,0.0,0.0,0.0,1.5214,1.5253,1.483,1.4635,1.4673,0.0,0.0,0.0,0.0,0.0,0.0,0.0,0.0,0.0,0.0,0.0,0.0,0.0,0.0,0.0,0.0,0.0,0.0,0.0,0.0,0.0,0.0,0.0,0.0,0.0,0.0,0.0,0.0,0.0,0.0,0.0,0.0,0.0,0.0,0.0,0.0,0.0,0.0,0.0,0.0,0.0,0.0,0.0,0.0,0.0,0.0,0.0,0.0,0.0,0.0,0.0,0.0,0.0,0.0,0.0,0.0,0.0,0.0,0.0,0.0,0.0,0.0,0.0,0.0,0.0,0.0,0.0,0.0,0.0,0.0,0.0,0.0,0.0,0.0,0.0,0.0,0.0,0.0,0.0,0.0,0.0,0.0,0.0,0.0,0.0,0.0,0.0,0.0,0.0,0.0,0.0,0.0,0.0,0.0,0.0,0.0,0.0,0.0,0.0,0.0,0.0,0.0,0.0,0.0,0.0,0.0,0.0,0.0,0.0,0.0,0.0,0.0,1.5817,1.58,1.5854,0.0,0.0,0.0,0.0,0.0,0.0,0.0,0.0,0.0,0.0,0.0,0.0,0.0,0.0,0.0,0.0,0.0,0.0,0.0,0.0,0.0,0.0,0.0,0.0,0.0,0.0,0.0,0.0,0.0,0.0,0.0,0.0,0.0,0.0,0.0,0.0,0.0,0.0,0.0,0.0,0.0,0.0,0.0,0.0,0.0,0.0,0.0,0.0,0.0,0.0,0.0,0.0,0.0,0.0,0.0,0.0,0.0,0.0,0.0,0.0,0.0,0.0,0.0,0.0,0.0,0.0,0.0,0.0,0.0,0.0,0.0,0.0,0.0,0.0,0.0,0.0,0.0,0.0,0.0,0.0,0.0,0.0,0.0,0.0,0.0,0.0,0.0,0.0,0.0,0.0,0.0,0.0,0.0,0.0,0.0,0.0,0.0,0.0,0.0,0.0,0.0,0.0,0.0,0.0,0.0,0.0,0.0,0.0,0.0,0.0,1.5941,1.75,1.7491,0.0,1.7481,0.0,0.0,0.0,0.0,0.0,0.0,0.0,0.0,0.0,0.0,0.0,0.0,0.0,0.0,0.0,0.0,0.0,0.0,0.0,0.0,0.0,0.0,0.0,0.0,0.0,0.0,0.0,0.0,0.0,0.0,0.0,0.0,0.0,0.0,0.0,0.0,0.0,0.0,0.0,0.0,0.0,0.0,0.0,0.0,0.0,0.0,0.0,0.0,0.0,0.0,0.0,0.0,0.0,0.0,0.0,0.0,0.0,0.0,0.0,0.0,0.0,0.0,0.0,0.0,0.0,0.0,0.0,0.0,0.0,0.0,0.0,0.0,0.0,0.0,0.0,0.0,0.0,0.0,0.0,0.0,0.0,0.0,0.0,0.0,0.0,0.0,0.0,0.0,0.0,0.0,0.0,0.0,0.0,0.0,0.0,0.0,0.0,0.0,0.0,0.0,0.0,0.0,0.0,0.0,0.0,0.0,0.0,0.0,0.0,0.0,1.7104,1.7858,1.78,1.7748,0.0,0.0,0.0,0.0,0.0,0.0,0.0,0.0,0.0,0.0,0.0,0.0,0.0,0.0,0.0,0.0,0.0,0.0,0.0,0.0,0.0,0.0,0.0,0.0,0.0,0.0,0.0,0.0,0.0,0.0,0.0,0.0,0.0,0.0,0.0,0.0,0.0,0.0,0.0,0.0,0.0,0.0,0.0,0.0,0.0,0.0,0.0,0.0,0.0,0.0,0.0,0.0,0.0,0.0,0.0,0.0,0.0,0.0,0.0,0.0,0.0,0.0,0.0,0.0,0.0,0.0,0.0,0.0,0.0,0.0,0.0,0.0,0.0,0.0,0.0,0.0,0.0,0.0,0.0,0.0,0.0,0.0,0.0,0.0,0.0,0.0,0.0,0.0,0.0,0.0,0.0,0.0,0.0,0.0,0.0,0.0,0.0,0.0,0.0,0.0,0.0,0.0,0.0,0.0,0.0,0.0,0.0,0.0,0.0,0.0,1.7419,1.8034,1.8535,1.8529,1.8179,1.7504,0.0,0.0,0.0,0.0,0.0,0.0,0.0,0.0,0.0,0.0,0.0,0.0,0.0,0.0,0.0,0.0,0.0,0.0,0.0,0.0,0.0,0.0,0.0,0.0,0.0,0.0,0.0,0.0,0.0,0.0,0.0,0.0,0.0,0.0,0.0,0.0,0.0,0.0,0.0,0.0,0.0,0.0,0.0,0.0,0.0,0.0,0.0,0.0,0.0,0.0,0.0,0.0,0.0,0.0,0.0,0.0,0.0,0.0,0.0,0.0,0.0,0.0,0.0,0.0,0.0,0.0,0.0,0.0,0.0,0.0,0.0,0.0,0.0,0.0,0.0,0.0,0.0,0.0,0.0,0.0,0.0,0.0,0.0,0.0,0.0,0.0,0.0,0.0,0.0,0.0,0.0,0.0,0.0,0.0,0.0,0.0,0.0,0.0,0.0,0.0,0.0,0.0,0.0,0.0,0.0,0.0,0.0,0.0,0.0,1.8587,1.8612,2.0234,2.02,1.9092,0.0,0.0,0.0,0.0,0.0,0.0,0.0,0.0,0.0,0.0,0.0,0.0,0.0,0.0,0.0,0.0,0.0,0.0,0.0,0.0,0.0,0.0,0.0,0.0,0.0,0.0,0.0,0.0,0.0,0.0,0.0,0.0,0.0,0.0,0.0,0.0,0.0,0.0,0.0,0.0,0.0,0.0,0.0,0.0,0.0,0.0,0.0,0.0,0.0,0.0,0.0,0.0,0.0,0.0,0.0,0.0,0.0,0.0,0.0,0.0,0.0,0.0,0.0,0.0,0.0,0.0,0.0,0.0,0.0,0.0,0.0,0.0,0.0,0.0,0.0,0.0,0.0,0.0,0.0,0.0,0.0,0.0,0.0,0.0,0.0,0.0,0.0,0.0,0.0,0.0,0.0,0.0,0.0,0.0,0.0,0.0,0.0,0.0,0.0,0.0,0.0,0.0,0.0,0.0,0.0,0.0,0.0,0.0,0.0,1.7089,1.7591,1.9209,2.1842,1.9935,1.8616,0.0,0.0,0.0,0.0,0.0,0.0,0.0,0.0,0.0,0.0,0.0,0.0,0.0,0.0,0.0,0.0,0.0,0.0,0.0,0.0,0.0,0.0,0.0,0.0,0.0,0.0,0.0,0.0,0.0,0.0,0.0,0.0,0.0,0.0,0.0,0.0,0.0,0.0,0.0,0.0,0.0,0.0,0.0,0.0,0.0,0.0,0.0,0.0,0.0,0.0,0.0,0.0,0.0,0.0,0.0,0.0,0.0,0.0,0.0,0.0,0.0,0.0,0.0,0.0,0.0,0.0,0.0,0.0,0.0,0.0,0.0,0.0,0.0,0.0,0.0,0.0,0.0,0.0,0.0,0.0,0.0,0.0,0.0,0.0,0.0,0.0,0.0,0.0,0.0,0.0,0.0,0.0,0.0,0.0,0.0,0.0,0.0,0.0,0.0,0.0,0.0,0.0,0.0,0.0,0.0,0.0,0.0,0.0,0.0,1.6976,0.0,2.0433,2.2038,1.9976,1.8381,0.0,0.0,0.0,0.0,0.0,0.0,0.0,0.0,0.0,0.0,0.0,0.0,0.0,0.0,0.0,0.0,0.0,0.0,0.0,0.0,0.0,0.0,0.0,0.0,0.0,0.0,0.0,0.0,0.0,0.0,0.0,0.0,0.0,0.0,0.0,0.0,0.0,0.0,0.0,0.0,0.0,0.0,0.0,0.0,0.0,0.0,0.0,0.0,0.0,0.0,0.0,0.0,0.0,0.0,0.0,0.0,0.0,0.0,0.0,0.0,0.0,0.0,0.0,0.0,0.0,0.0,0.0,0.0,0.0,0.0,0.0,0.0,0.0,0.0,0.0,0.0,0.0,0.0,0.0,0.0,0.0,0.0,0.0,0.0,0.0,0.0,0.0,0.0,0.0,0.0,0.0,0.0,0.0,0.0,0.0,0.0,0.0,0.0,0.0,0.0,0.0,0.0,0.0,0.0,0.0,0.0,0.0,0.0,1.6994,2.0303,2.195,2.2059,2.0703,2.0456,1.8462,0.0,0.0,0.0,0.0,0.0,0.0,0.0,0.0,0.0,0.0,0.0,0.0,0.0,0.0,0.0,0.0,0.0,0.0,0.0,0.0,0.0,0.0,0.0,0.0,0.0,0.0,0.0,0.0,0.0,0.0,0.0,0.0,0.0,0.0,0.0,0.0,0.0,0.0,0.0,0.0,0.0,0.0,0.0,0.0,0.0,0.0,0.0,0.0,0.0,0.0,0.0,0.0,0.0,0.0,0.0,0.0,0.0,0.0,0.0,0.0,0.0,0.0,0.0,0.0,0.0,0.0,0.0,0.0,0.0,0.0,0.0,0.0,0.0,0.0,0.0,0.0,0.0,0.0,0.0,0.0,0.0,0.0,0.0,0.0,0.0,0.0,0.0,0.0,0.0,0.0,0.0,0.0,0.0,0.0,0.0,0.0,0.0,0.0,0.0,0.0,0.0,0.0,0.0,0.0,0.0,0.0,0.0,0.0,0.0,1.9465,2.0626,2.1534,2.2152,1.9989,1.8436,0.0,0.0,0.0,0.0,0.0,0.0,0.0,0.0,0.0,0.0,0.0,0.0,0.0,0.0,0.0,0.0,0.0,0.0,0.0,0.0,0.0,0.0,0.0,0.0,0.0,0.0,0.0,0.0,0.0,0.0,0.0,0.0,0.0,0.0,0.0,0.0,0.0,0.0,0.0,0.0,0.0,0.0,0.0,0.0,0.0,0.0,0.0,0.0,0.0,0.0,0.0,0.0,0.0,0.0,0.0,0.0,0.0,0.0,0.0,0.0,0.0,0.0,0.0,0.0,0.0,0.0,0.0,0.0,0.0,0.0,0.0,0.0,0.0,0.0,0.0,0.0,0.0,0.0,0.0,0.0,0.0,0.0,0.0,0.0,0.0,0.0,0.0,0.0,0.0,0.0,0.0,0.0,0.0,0.0,0.0,0.0,0.0,0.0,0.0,0.0,0.0,0.0,0.0,0.0,0.0,0.0,0.0,0.0,0.0,2.1859,2.2425,2.2981,2.3498,2.1115,1.9685,1.9258,0.0,0.0,0.0,0.0,0.0,0.0,0.0,0.0,0.0,0.0,0.0,0.0,0.0,0.0,0.0,0.0,0.0,0.0,0.0,0.0,0.0,0.0,0.0,0.0,0.0,0.0,0.0,0.0,0.0,0.0,0.0,0.0,0.0,0.0,0.0,0.0,0.0,0.0,0.0,0.0,0.0,0.0,0.0,0.0,0.0,0.0,0.0,0.0,0.0,0.0,0.0,0.0,0.0,0.0,0.0,0.0,0.0,0.0,0.0,0.0,0.0,0.0,0.0,0.0,0.0,0.0,0.0,0.0,0.0,0.0,0.0,0.0,0.0,0.0,0.0,0.0,0.0,0.0,0.0,0.0,0.0,0.0,0.0,0.0,0.0,0.0,0.0,0.0,0.0,0.0,0.0,0.0,0.0,0.0,0.0,0.0,0.0,0.0,0.0,0.0,0.0,0.0,0.0,0.0,0.0,0.0,0.0,0.0,2.6697,2.688,2.6157,2.4602,2.3555,2.1934,0.0,0.0,0.0,0.0,0.0,0.0,0.0,0.0,0.0,0.0,0.0,0.0,0.0,0.0,0.0,0.0,0.0,0.0,0.0,0.0,0.0,0.0,0.0,0.0,0.0,0.0,0.0,0.0,0.0,0.0,0.0,0.0,0.0,0.0,0.0,0.0,0.0,0.0,0.0,0.0,0.0,0.0,0.0,0.0,0.0,0.0,0.0,0.0,0.0,0.0,0.0,0.0,0.0,0.0,0.0,0.0,0.0,0.0,0.0,0.0,0.0,0.0,0.0,0.0,0.0,0.0,0.0,0.0,0.0,0.0,0.0,0.0,0.0,0.0,0.0,0.0,0.0,0.0,0.0,0.0,0.0,0.0,0.0,0.0,0.0,0.0,0.0,0.0,0.0,0.0,0.0,0.0,0.0,0.0,0.0,0.0,0.0,0.0,0.0,0.0,0.0,0.0,0.0,0.0,0.0,0.0,0.0,0.0,0.0,2.8357,2.9693,2.9311,2.708,2.5042,2.3057,0.0,0.0,0.0,0.0,0.0,0.0,0.0,0.0,0.0,0.0,0.0,0.0,0.0,0.0,0.0,0.0,0.0,0.0,0.0,0.0,0.0,0.0,0.0,0.0,0.0,0.0,0.0,0.0,0.0,0.0,0.0,0.0,0.0,0.0,0.0,0.0,0.0,0.0,0.0,0.0,0.0,0.0,0.0,0.0,0.0,0.0,0.0,0.0,0.0,0.0,0.0,0.0,0.0,0.0,0.0,0.0,0.0,0.0,0.0,0.0,0.0,0.0,0.0,0.0,0.0,0.0,0.0,0.0,0.0,0.0,0.0,0.0,0.0,0.0,0.0,0.0,0.0,0.0,0.0,0.0,0.0,0.0,0.0,0.0,0.0,0.0,0.0,0.0,0.0,0.0,0.0,0.0,0.0,0.0,0.0,0.0,0.0,0.0,0.0,0.0,0.0,0.0,0.0,0.0,0.0,0.0,0.0,0.0,2.7717,3.0621,3.1695,3.1696,3.0611,2.8244,2.5644,0.0,0.0,0.0,0.0,0.0,0.0,0.0,0.0,0.0,0.0,0.0,0.0,0.0,0.0,0.0,0.0,0.0,0.0,0.0,0.0,0.0,0.0,0.0,0.0,0.0,0.0,0.0,0.0,0.0,0.0,0.0,0.0,0.0,0.0,0.0,0.0,0.0,0.0,0.0,0.0,0.0,0.0,0.0,0.0,0.0,0.0,0.0,0.0,0.0,0.0,0.0,0.0,0.0,0.0,0.0,0.0,0.0,0.0,0.0,0.0,0.0,0.0,0.0,0.0,0.0,0.0,0.0,0.0,0.0,0.0,0.0,0.0,0.0,0.0,0.0,0.0,0.0,0.0,0.0,0.0,0.0,0.0,0.0,0.0,0.0,0.0,0.0,0.0,0.0,0.0,0.0,0.0,0.0,0.0,0.0,0.0,0.0,0.0,0.0,0.0,0.0,0.0,0.0,0.0,0.0,0.0,0.0,0.0,2.9574,3.2926,3.3314,3.3737,3.425,3.1823,2.8607,0.0,0.0,0.0,0.0,0.0,0.0,0.0,0.0,0.0,0.0,0.0,0.0,0.0,0.0,0.0,0.0,0.0,0.0,0.0,0.0,0.0,0.0,0.0,0.0,0.0,0.0,0.0,0.0,0.0,0.0,0.0,0.0,0.0,0.0,0.0,0.0,0.0,0.0,0.0,0.0,0.0,0.0,0.0,0.0,0.0,0.0,0.0,0.0,0.0,0.0,0.0,0.0,0.0,0.0,0.0,0.0,0.0,0.0,0.0,0.0,0.0,0.0,0.0,0.0,0.0,0.0,0.0,0.0,0.0,0.0,0.0,0.0,0.0,0.0,0.0,0.0,0.0,0.0,0.0,0.0,0.0,0.0,0.0,0.0,0.0,0.0,0.0,0.0,0.0,0.0,0.0,0.0,0.0,0.0,0.0,0.0,0.0,0.0,0.0,0.0,0.0,0.0,0.0,0.0,0.0,0.0,0.0,0.0,3.1129,3.3853,3.5895,3.6353,3.5234,3.1575,2.8541,0.0,0.0,0.0,0.0,0.0,0.0,0.0,0.0,0.0,0.0,0.0,0.0,0.0,0.0,0.0,0.0,0.0,0.0,0.0,0.0,0.0,0.0,0.0,0.0,0.0,0.0,0.0,0.0,0.0,0.0,0.0,0.0,0.0,0.0,0.0,0.0,0.0,0.0,0.0,0.0,0.0,0.0,0.0,0.0,0.0,0.0,0.0,0.0,1.5798,0.0,0.0,0.0,0.0,0.0,0.0,0.0,0.0,0.0,0.0,0.0,0.0,0.0,0.0,0.0,0.0,0.0,0.0,0.0,0.0,0.0,0.0,0.0,0.0,0.0,0.0,0.0,0.0,0.0,0.0,0.0,0.0,0.0,0.0,0.0,0.0,0.0,0.0,0.0,0.0,0.0,0.0,0.0,0.0,0.0,0.0,0.0,0.0,0.0,0.0,0.0,0.0,0.0,0.0,0.0,0.0,0.0,0.0,0.0,3.2819,3.5888,3.7315,3.7584,3.6584,3.2986,2.9881,0.0,0.0,0.0,0.0,0.0,0.0,0.0,0.0,0.0,0.0,0.0,0.0,0.0,0.0,0.0,0.0,0.0,0.0,0.0,0.0,0.0,0.0,0.0,0.0,0.0,0.0,0.0,0.0,0.0,0.0,0.0,0.0,0.0,0.0,0.0,0.0,0.0,0.0,0.0,0.0,0.0,0.0,0.0,0.0,0.0,0.0,0.0,0.0,0.0,0.0,0.0,0.0,0.0,0.0,0.0,0.0,0.0,0.0,0.0,0.0,0.0,0.0,0.0,0.0,0.0,0.0,0.0,0.0,0.0,0.0,0.0,0.0,0.0,0.0,0.0,0.0,0.0,0.0,0.0,0.0,0.0,0.0,0.0,0.0,0.0,0.0,0.0,0.0,0.0,0.0,0.0,0.0,0.0,0.0,0.0,0.0,0.0,0.0,0.0,0.0,0.0,0.0,0.0,0.0,0.0,0.0,0.0,3.0984,3.4247,3.7996,3.8315,3.8277,3.7973,3.513,3.1955,2.8557,0.0,0.0,0.0,0.0,0.0,0.0,0.0,0.0,0.0,0.0,0.0,0.0,0.0,0.0,0.0,0.0,0.0,0.0,0.0,0.0,0.0,0.0,0.0,0.0,0.0,0.0,0.0,0.0,0.0,0.0,0.0,0.0,0.0,0.0,0.0,0.0,0.0,0.0,1.6133,1.8899,0.0,0.0,0.0,0.0,0.0,0.0,0.0,0.0,1.8702,0.0,0.0,0.0,0.0,0.0,0.0,0.0,0.0,0.0,0.0,0.0,0.0,0.0,0.0,0.0,0.0,0.0,0.0,0.0,0.0,0.0,0.0,0.0,0.0,0.0,0.0,0.0,0.0,0.0,0.0,0.0,0.0,0.0,0.0,0.0,0.0,0.0,0.0,0.0,0.0,0.0,0.0,0.0,0.0,0.0,0.0,0.0,0.0,0.0,0.0,0.0,0.0,0.0,0.0,0.0,0.0,3.1679,3.2302,3.4684,3.8965,3.9742,3.9438,3.8049,3.6838,3.4287,3.031,0.0,0.0,0.0,0.0,0.0,0.0,0.0,0.0,0.0,0.0,0.0,0.0,0.0,0.0,0.0,0.0,0.0,0.0,0.0,0.0,0.0,0.0,0.0,0.0,0.0,0.0,0.0,0.0,0.0,0.0,0.0,0.0,0.0,0.0,0.0,0.0,0.0,0.0,0.0,2.1283,2.1858,0.0,0.0,0.0,0.0,0.0,0.0,0.0,0.0,1.9476,0.0,0.0,0.0,0.0,0.0,0.0,0.0,0.0,0.0,0.0,0.0,0.0,0.0,0.0,0.0,0.0,0.0,0.0,0.0,0.0,0.0,0.0,0.0,0.0,0.0,0.0,0.0,0.0,0.0,0.0,0.0,0.0,0.0,0.0,0.0,0.0,0.0,0.0,0.0,0.0,0.0,0.0,0.0,0.0,0.0,0.0,0.0,0.0,0.0,0.0,0.0,0.0,0.0,0.0,0.0,3.1569,3.3473,3.6163,3.9773,4.0285,3.9704,3.8049,3.635,3.3922,0.0,0.0,0.0,0.0,0.0,0.0,0.0,0.0,0.0,0.0,0.0,0.0,0.0,0.0,0.0,0.0,0.0,0.0,0.0,0.0,0.0,0.0,0.0,0.0,0.0,0.0,0.0,0.0,0.0,0.0,0.0,0.0,0.0,0.0,0.0,0.0,0.0,0.0,0.0,0.0,2.2968,2.3822,2.3776,0.0,0.0,0.0,0.0,0.0,0.0,2.0839,2.0175,0.0,0.0,0.0,0.0,0.0,0.0,0.0,0.0,0.0,0.0,0.0,0.0,0.0,0.0,0.0,0.0,0.0,0.0,0.0,0.0,0.0,0.0,0.0,0.0,0.0,0.0,0.0,0.0,0.0,0.0,0.0,0.0,0.0,0.0,0.0,0.0,0.0,0.0,0.0,0.0,0.0,0.0,0.0,0.0,0.0,0.0,0.0,0.0,0.0,0.0,0.0,0.0,0.0,0.0,0.0,3.1269,3.4425,3.7471,4.0342,4.0669,3.9973,3.8315,3.6122,3.3663,0.0,0.0,0.0,0.0,0.0,0.0,0.0,0.0,0.0,0.0,0.0,0.0,0.0,0.0,0.0,0.0,0.0,0.0,0.0,0.0,0.0,0.0,0.0,0.0,0.0,0.0,0.0,0.0,0.0,0.0,0.0,0.0,0.0,0.0,0.0,0.0,0.0,0.0,0.0,0.0,0.0,2.5898,2.507,2.4911,0.0,0.0,0.0,0.0,2.3775,2.2939,0.0,0.0,0.0,0.0,0.0,0.0,0.0,0.0,0.0,0.0,0.0,0.0,0.0,0.0,0.0,0.0,0.0,0.0,0.0,0.0,0.0,0.0,0.0,0.0,0.0,0.0,0.0,0.0,0.0,0.0,0.0,0.0,0.0,0.0,0.0,0.0,0.0,0.0,0.0,0.0,0.0,0.0,0.0,0.0,0.0,0.0,0.0,0.0,0.0,0.0,0.0,0.0,0.0,0.0,0.0,0.0,3.2032,3.4704,3.7452,4.0381,4.1239,4.085,3.9204,3.8123,3.5742,0.0,0.0,0.0,0.0,0.0,0.0,0.0,0.0,0.0,0.0,0.0,0.0,0.0,0.0,0.0,0.0,0.0,0.0,0.0,0.0,0.0,0.0,0.0,0.0,0.0,0.0,0.0,0.0,0.0,0.0,0.0,0.0,0.0,0.0,0.0,0.0,0.0,0.0,0.0,0.0,0.0,2.7656,2.6836,2.6674,2.6508,0.0,0.0,2.6273,2.6466,2.7559,0.0,0.0,0.0,0.0,0.0,0.0,0.0,0.0,0.0,0.0,0.0,0.0,0.0,0.0,0.0,0.0,0.0,0.0,0.0,0.0,0.0,0.0,0.0,0.0,0.0,0.0,0.0,0.0,0.0,0.0,0.0,0.0,0.0,0.0,0.0,0.0,0.0,0.0,0.0,0.0,0.0,0.0,0.0,0.0,0.0,0.0,0.0,0.0,0.0,0.0,0.0,0.0,0.0,0.0,0.0,2.8805,3.313,3.6434,3.9365,4.1842,4.1854,4.1239,4.0015,3.7777,3.5121,0.0,0.0,0.0,0.0,0.0,0.0,0.0,0.0,0.0,0.0,0.0,0.0,0.0,0.0,0.0,0.0,0.0,0.0,0.0,0.0,0.0,0.0,0.0,0.0,0.0,0.0,0.0,0.0,0.0,0.0,0.0,0.0,0.0,0.0,0.0,0.0,0.0,0.0,0.0,0.0,0.0,0.0,2.8555,2.8866,0.0,0.0,0.0,2.9131,2.9176,0.0,0.0,0.0,0.0,0.0,0.0,0.0,0.0,0.0,0.0,0.0,0.0,0.0,0.0,0.0,0.0,0.0,0.0,0.0,0.0,0.0,0.0,0.0,0.0,0.0,0.0,0.0,0.0,0.0,0.0,0.0,0.0,0.0,0.0,0.0,0.0,0.0,0.0,0.0,0.0,0.0,0.0,0.0,0.0,0.0,0.0,0.0,0.0,0.0,0.0,0.0,0.0,0.0,0.0,0.0,0.0,0.0,3.3895,3.7938,4.102,4.2987,4.2658,4.1893,4.0819,3.8004,0.0,0.0,0.0,0.0,0.0,0.0,0.0,0.0,0.0,0.0,0.0,0.0,0.0,0.0,0.0,0.0,0.0,0.0,0.0,0.0,0.0,0.0,0.0,0.0,0.0,0.0,0.0,1.1455,0.0,0.0,0.0,0.0,0.0,0.0,0.0,0.0,0.0,0.0,0.0,0.0,0.0,0.0,3.0312,3.0508,3.1289,3.1953,0.0,0.0,3.1836,3.1836,3.168,3.0547,0.0,0.0,0.0,0.0,0.0,0.0,0.0,0.0,0.0,0.0,0.0,0.0,0.0,0.0,0.0,0.0,0.0,0.0,0.0,0.0,0.0,0.0,0.0,0.0,0.0,0.0,0.0,0.0,0.0,0.0,0.0,0.0,0.0,0.0,0.0,0.0,0.0,0.0,0.0,0.0,0.0,0.0,0.0,0.0,0.0,0.0,0.0,0.0,0.0,0.0,0.0,0.0,0.0,0.0,0.0,3.3887,3.8474,4.1563,4.3069,4.3778,4.3355,4.1735,3.9973,3.7125,0.0,0.0,0.0,0.0,0.0,0.0,0.0,0.0,0.0,0.0,0.0,0.0,0.0,0.0,0.0,0.0,0.0,0.0,0.0,0.0,0.0,0.0,0.0,0.0,0.0,0.0,0.0,0.0,0.0,0.0,0.0,0.0,0.0,0.0,0.0,0.0,0.0,0.0,0.0,0.0,0.0,3.2305,3.3047,3.3867,3.4726,0.0,0.0,3.4453,3.4453,3.5742,3.4844,2.9141,0.0,0.0,0.0,0.0,0.0,0.0,0.0,0.0,0.0,0.0,0.0,0.0,0.0,0.0,0.0,0.0,0.0,0.0,0.0,0.0,0.0,0.0,0.0,0.0,0.0,0.0,0.0,0.0,0.0,0.0,0.0,0.0,0.0,0.0,0.0,0.0,0.0,0.0,0.0,0.0,0.0,0.0,0.0,0.0,0.0,0.0,0.0,0.0,0.0,0.0,0.0,0.0,0.0,3.1114,3.4881,3.9557,4.2822,4.4538,4.4432,4.4008,4.3355,4.1204,3.8092,0.0,0.0,0.0,0.0,0.0,0.0,0.0,0.0,0.0,0.0,0.0,0.0,0.0,0.0,0.0,0.0,0.0,0.0,0.0,0.0,0.0,0.0,0.0,0.0,0.0,0.0,0.0,0.0,1.82,1.8664,1.8359,0.0,0.0,0.0,0.0,0.0,0.0,0.0,0.0,0.0,0.0,3.3633,3.5547,3.6094,0.0,0.0,3.7305,3.7109,3.7109,3.6758,3.5195,3.1328,2.9375,0.0,0.0,0.0,0.0,0.0,0.0,0.0,0.0,0.0,0.0,0.0,0.0,0.0,0.0,0.0,0.0,0.0,0.0,0.0,0.0,0.0,0.0,0.0,0.0,0.0,0.0,0.0,0.0,0.0,0.0,0.0,0.0,0.0,0.0,0.0,0.0,0.0,0.0,0.0,0.0,0.0,0.0,0.0,0.0,0.0,0.0,0.0,0.0,0.0,0.0,0.0,0.0,3.2376,3.6231,4.0821,4.4088,4.5928,4.5393,4.4859,4.4278,4.2085,3.907,0.0,0.0,0.0,0.0,0.0,0.0,0.0,0.0,0.0,0.0,0.0,0.0,0.0,0.0,0.0,0.0,0.0,0.0,0.0,0.0,0.0,0.0,0.0,0.0,0.0,0.0,0.0,0.0,2.1023,2.1056,1.9405,0.0,0.0,0.0,0.0,0.0,0.0,0.0,0.0,0.0,0.0,3.543,3.7734,3.8281,3.8672,3.9297,3.8945,3.8594,3.8594,3.7578,3.582,3.3008,0.0,0.0,0.0,0.0,0.0,0.0,0.0,0.0,0.0,0.0,0.0,0.0,0.0,0.0,0.0,0.0,0.0,0.0,0.0,0.0,0.0,0.0,0.0,0.0,0.0,0.0,0.0,2.5743,0.0,0.0,2.4358,0.0,0.0,0.0,0.0,0.0,0.0,0.0,0.0,0.0,0.0,0.0,0.0,0.0,0.0,0.0,0.0,0.0,0.0,0.0,0.0,0.0,0.0,3.3833,3.7916,4.2259,4.5281,4.6799,4.6851,4.6004,4.4393,4.2696,4.0215,3.6791,0.0,0.0,0.0,0.0,0.0,0.0,0.0,0.0,0.0,0.0,0.0,0.0,0.0,0.0,0.0,0.0,0.0,0.0,0.0,0.0,0.0,0.0,0.0,0.0,0.0,0.0,2.1619,2.1701,2.1046,0.0,0.0,0.0,0.0,0.0,0.0,0.0,0.0,0.0,0.0,3.5078,3.7851,3.9609,4.0586,4.1094,4.1133,3.9726,3.8672,3.8711,3.8555,3.7383,0.0,0.0,0.0,0.0,0.0,0.0,0.0,0.0,0.0,0.0,0.0,0.0,0.0,0.0,0.0,0.0,0.0,0.0,0.0,0.0,0.0,0.0,0.0,0.0,0.0,0.0,0.0,3.299,3.1286,0.0,0.0,0.0,0.0,0.0,0.0,0.0,0.0,0.0,0.0,0.0,3.7522,3.8966,0.0,0.0,0.0,0.0,0.0,0.0,0.0,0.0,0.0,0.0,0.0,0.0,3.4281,3.8781,4.2873,4.5824,4.7611,4.7197,4.6889,4.6817,4.4662,4.1093,3.6075,0.0,0.0,0.0,0.0,0.0,0.0,0.0,0.0,0.0,0.0,0.0,0.0,0.0,0.0,0.0,0.0,0.0,0.0,0.0,0.0,0.0,0.0,0.0,0.0,0.0,2.391,0.0,0.0,0.0,0.0,0.0,0.0,0.0,0.0,0.0,0.0,0.0,3.1094,3.5078,3.7578,3.9648,4.1328,4.2305,4.2851,0.0,0.0,0.0,0.0,0.0,0.0,0.0,0.0,0.0,0.0,0.0,0.0,0.0,0.0,3.7452,3.1415,2.9572,2.9025,2.9027,0.0,0.0,0.0,0.0,0.0,0.0,0.0,0.0,0.0,0.0,0.0,0.0,0.0,0.0,3.8055,0.0,3.5816,0.0,0.0,0.0,0.0,0.0,0.0,0.0,0.0,4.0598,4.247,4.2461,4.3754,4.3362,0.0,4.0583,3.7323,0.0,0.0,0.0,0.0,0.0,0.0,0.0,0.0,3.5801,4.0177,4.4043,4.678,4.8266,4.7826,4.7717,4.8043,4.5624,4.2079,3.7369,3.3204,3.0179,0.0,0.0,0.0,0.0,0.0,0.0,0.0,0.0,0.0,0.0,0.0,0.0,0.0,0.0,0.0,0.0,0.0,0.0,0.0,0.0,0.0,0.0,0.0,2.5751,0.0,0.0,0.0,0.0,0.0,0.0,0.0,0.0,0.0,2.9648,3.168,3.4492,3.8164,4.0117,4.1641,4.2695,0.0,0.0,0.0,0.0,0.0,0.0,0.0,4.0273,3.9961,3.9258,3.8633,3.8281,4.0391,4.1796,4.0855,0.0,0.0,3.6392,3.4511,3.4003,3.4316,3.5017,3.5684,3.6048,3.7407,3.8568,0.0,0.0,0.0,0.0,0.0,0.0,0.0,0.0,4.2757,4.2647,0.0,4.0846,0.0,0.0,0.0,0.0,0.0,3.9717,0.0,0.0,4.6994,4.883,4.7443,4.8113,4.7645,4.6214,4.6792,4.4758,4.0252,3.4502,0.0,0.0,0.0,0.0,0.0,0.0,3.8418,4.2109,4.5761,4.8055,4.8793,4.8797,4.8564,4.8072,4.574,4.3243,4.0669,3.8165,3.5277,3.1983,2.8666,0.0,0.0,0.0,0.0,0.0,0.0,0.0,0.0,0.0,0.0,0.0,0.0,0.0,0.0,0.0,0.0,0.0,0.0,0.0,0.0,2.6204,0.0,0.0,0.0,0.0,0.0,0.0,0.0,0.0,0.0,0.0,3.273,3.5351,3.8359,4.0937,0.0,0.0,0.0,0.0,4.4805,4.3984,4.3164,4.2656,4.2617,4.3281,4.3476,4.2695,0.0,0.0,4.3047,4.4687,4.5508,4.3125,4.4726,4.5859,4.4062,4.1601,4.0312,4.1016,4.0586,4.0469,4.125,4.2578,4.3709,4.9767,0.0,0.0,0.0,0.0,4.6628,4.8663,5.171,5.0541,4.9072,4.7372,4.6328,0.0,0.0,0.0,0.0,0.0,0.0,4.5112,4.7205,5.0041,5.1657,5.2297,5.2564,5.2123,5.1096,5.0178,4.8454,4.5899,4.2708,3.7722,3.1305,0.0,0.0,0.0,0.0,4.0814,4.4503,4.6674,4.8219,4.9267,4.8979,4.8564,4.8115,4.7394,4.5817,4.332,4.1354,3.8784,3.539,3.2684,0.0,0.0,0.0,0.0,0.0,0.0,0.0,0.0,0.0,0.0,0.0,0.0,0.0,0.0,0.0,0.0,0.0,0.0,0.0,2.7066,2.7441,2.7659,0.0,0.0,0.0,0.0,0.0,0.0,0.0,0.0,0.0,3.9844,3.9932,4.0524,0.0,0.0,4.4439,4.44,4.5647,4.6528,4.638,4.6655,0.0,0.0,4.5781,4.5664,4.6055,4.7266,4.7891,4.7187,4.7656,4.793,4.7109,4.7656,4.7969,4.7461,4.582,4.4648,4.4805,4.5117,4.5469,4.5781,4.668,4.7383,5.6995,5.3625,5.0464,5.0073,5.155,5.2125,5.4107,5.6858,5.5623,5.4422,5.3233,5.2156,4.9549,4.5853,4.4922,0.0,0.0,0.0,4.9774,5.195,5.3261,5.4252,5.484,5.4876,5.4473,5.3628,5.237,5.1059,4.9738,4.7822,4.3844,3.7995,0.0,0.0,3.741,3.9993,4.2799,4.5713,4.7338,4.8525,4.9227,4.9288,4.9258,4.9115,4.8817,4.7894,4.6355,4.4355,4.22,3.9812,3.6681,3.3423,0.0,0.0,0.0,0.0,0.0,0.0,0.0,0.0,0.0,0.0,0.0,2.1602,2.043,0.0,0.0,0.0,2.6207,2.8145,3.0245,3.0744,0.0,0.0,0.0,0.0,0.0,0.0,0.0,3.7787,3.9943,4.2121,4.4467,4.4187,4.4125,4.5262,4.5861,4.6216,4.6216,0.0,4.7724,4.7829,4.8263,4.8485,4.8073,4.7882,4.8081,4.8984,4.9531,4.9883,4.9883,4.9883,4.9883,4.9883,4.9883,4.9883,4.9883,4.9023,4.8086,4.75,4.8008,4.8594,4.8633,4.9297,4.9883,6.2738,6.2013,5.5902,5.4071,5.534,5.6579,5.7945,5.9304,5.8592,5.8623,5.9062,5.7639,5.5718,5.346,5.1276,0.0,5.2648,5.4106,5.517,5.5989,5.6748,5.6712,5.5989,5.5915,5.5464,5.4693,5.3885,5.3067,5.2244,5.0665,4.8863,4.6769,4.3033,4.1214,4.1483,4.3037,4.4607,4.6113,4.7989,4.8956,4.8895,4.968,5.0291,5.0629,4.9889,4.9437,4.924,4.7014,4.5321,4.4244,4.0469,3.6818,3.352,0.0,0.0,0.0,0.0,0.0,0.0,0.0,0.0,0.0,0.0,0.0,0.0,0.0,0.0,0.0,3.0273,0.0,3.4254,3.5119,0.0,0.0,0.0,3.5586,3.5236,3.7812,4.0356,4.2247,0.0,0.0,4.7089,4.7773,4.8347,4.8707,4.8627,4.8471,4.8471,4.8502,4.8554,4.8564,4.8642,4.877,4.8989,4.9512,5.0194,5.0969,5.1405,5.125,5.125,5.1289,5.1328,5.125,5.1367,5.1328,5.1367,5.1211,5.0937,4.9336,4.9687,5.0273,5.0273,5.0781,5.1211,6.573,6.4074,6.3852,6.2939,6.153,6.0685,6.1292,6.2658,6.1283,6.0418,5.9946,5.9,5.7913,5.6812,5.6241,5.6565,5.7508,5.7875,5.8499,5.9245,5.9465,5.9453,5.9245,5.8646,5.7912,5.7116,5.6334,5.5537,5.4704,5.3115,5.2081,5.1491,4.9377,4.6919,4.4334,4.6139,4.7352,4.7719,4.8871,4.927,4.8932,4.968,5.0147,5.0262,5.0333,4.9779,4.8471,4.7855,4.6509,4.4355,4.2124,3.9631,3.693,3.2417,0.0,0.0,0.0,0.0,0.0,0.0,0.0,0.0,0.0,2.8568,2.4914,0.0,2.9,0.0,3.3586,3.5688,3.6084,3.6308,0.0,0.0,3.8354,3.8865,4.2479,4.249,4.3118,4.5494,4.6245,4.7181,4.8655,4.8965,4.9586,5.0842,4.9393,4.8201,4.8201,4.878,4.9227,4.9406,4.9899,5.0348,5.0444,5.0668,5.0875,5.1131,5.1175,5.1174,5.1174,5.1174,5.1197,5.1211,5.1261,5.1273,5.1367,5.1406,5.1289,5.0898,5.0976,5.1094,5.1133,5.125,5.1406,6.7612,6.6166,6.7288,6.7039,6.5848,6.5097,6.5053,6.5417,6.4215,6.3202,6.236,6.0826,5.993,5.9475,5.8779,5.9121,6.0167,5.9901,6.0163,6.0921,6.0933,6.075,6.037,5.993,5.9306,5.8499,5.774,5.6932,5.6088,5.4876,5.4095,5.3728,5.248,5.0625,4.832,4.9007,4.9434,4.9397,4.9894,5.0092,4.9973,5.0241,5.0171,4.9811,5.0013,4.9514,4.8163,4.7394,4.6317,4.4898,4.2931,4.0812,3.8665,3.521,3.2726,0.0,0.0,0.0,0.0,0.0,0.0,0.0,0.0,0.0,0.0,0.0,3.2498,3.4872,3.7462,3.9273,4.0004,4.0773,4.185,4.3355,4.2893,4.362,4.6432,4.624,4.6586,4.8355,4.8889,4.9466,5.0394,5.0851,5.1433,5.2351,5.1274,5.0351,5.0389,5.0818,5.0986,5.0722,5.1014,5.1246,5.1046,5.1053,5.1091,5.1091,5.1091,5.1091,5.1091,5.1091,5.1115,5.1138,5.118,5.1213,5.1277,5.1366,5.1406,5.1445,5.1719,5.1797,5.1484,5.1406,5.1406,6.8904,6.8091,6.8497,6.8698,6.8804,6.9121,6.8686,6.77,6.6999,6.6094,6.494,6.2753,6.1762,6.1632,6.0214,6.0389,6.1736,6.1165,6.1171,6.1739,6.1887,6.1484,6.0701,6.0603,6.0187,5.9478,5.8584,5.7776,5.7104,5.6198,5.5401,5.4693,5.3922,5.3151,5.2464,5.1683,5.1169,5.0949,5.0899,5.1005,5.1223,5.0932,5.0321,4.9458,4.9399,4.8933,4.7966,4.6552,4.5706,4.5556,4.3355,4.1466,3.9973,3.8123,3.6433,0.0,3.3906,0.0,0.0,0.0,0.0,0.0,0.0,0.0,0.0,3.5356,3.6761,3.9561,4.1393,4.3043,4.4509,4.6086,4.6855,4.636,4.7548,4.8509,4.874,4.9428,5.0168,5.0938,5.1625,5.2077,5.2082,5.2736,5.3203,5.3318,5.328,5.3164,5.3433,5.3197,5.2741,5.2154,5.2038,5.1919,5.1478,5.1363,5.1447,5.1414,5.1477,5.1383,5.1447,5.1447,5.1386,5.1455,5.1535,5.1557,5.1496,5.1661,5.1756,5.1836,5.2422,5.2578,5.1875,5.1797,5.1719,7.0267,6.9036,7.0543,7.0887,7.0416,7.1225,7.0786,6.9559,6.8721,6.7103,6.4961,6.3834,6.3369,6.3346,6.2386,6.247,6.3423,6.3293,6.2953,6.2529,6.327,6.3172,6.2316,6.1667,6.13,6.1043,5.9673,5.8902,5.8719,5.7251,5.6492,5.6345,5.5537,5.5071,5.4887,0.0,0.0,0.0,5.1415,5.112,5.0935,5.1081,5.0631,4.9459,4.9417,0.0,4.7197,4.6812,4.6317,4.5629,4.4474,0.0,0.0,0.0,0.0,0.0,0.0,0.0,0.0,0.0,0.0,0.0,4.0434,3.9886,3.8586,4.0835,4.2425,4.2474,4.4543,4.6043,4.6389,4.7274,4.8355,4.9591,5.0014,5.0707,5.2043,5.2356,5.2549,5.2702,5.2851,5.2967,5.2967,5.3121,5.3472,5.4126,5.4241,5.4511,5.5131,5.4087,5.3197,5.2972,5.2928,5.2905,5.2806,5.2713,5.2652,5.28,5.2804,5.2775,5.2711,5.2745,5.2812,5.2875,5.2979,5.2977,5.3083,5.3268,5.3242,5.3321,5.3546,5.3476,5.2656,5.3008,5.3516,7.1934,0.0,7.1897,7.1781,0.0,7.1659,7.1445,7.0446,7.0157,6.8579,6.608,6.4846,6.4318,6.428,6.3125,6.3297,6.4462,6.4116,6.3955,6.4012,6.4069,6.3882,6.3429,6.2585,6.1961,6.1569,6.0786,6.0187,5.9747,5.8572,5.7765,5.7361,5.6565,5.5989,5.5585,5.5181,5.4216,5.2637,5.2367,5.2052,5.1674,5.1807,5.1208,4.9765,0.0,0.0,0.0,0.0,0.0,0.0,0.0,0.0,0.0,0.0,0.0,4.297,4.185,4.1312,4.1735,4.2585,4.3581,4.4812,4.6504,4.6009,4.2705,4.4701,4.6355,4.686,4.8389,4.9543,4.9966,5.0389,5.0971,5.1823,5.1938,5.2318,5.3044,5.3197,5.3197,5.3236,5.3587,5.3857,5.3857,5.4241,5.4587,5.5011,5.5088,5.5285,5.5549,5.5011,5.4318,5.3895,5.3433,5.3197,5.3197,5.3197,5.3197,5.3197,5.3197,5.3197,5.3197,5.3197,5.3248,5.3299,5.3361,5.3436,5.3482,5.3618,5.3703,5.375,5.4167,5.4398,5.3932,5.3942,5.3984,7.3343,7.1998,7.2707,7.2131,7.0773,7.1508,7.1451,7.0806,0.0,0.0,0.0,6.5644,6.4895,6.4722,6.3529,6.3754,6.5011,6.4627,6.474,6.5214,6.4772,6.4433,6.4273,6.3429,6.2695,6.2034,6.1753,6.1276,6.0591,5.982,5.9013,5.8217,5.7556,5.6748,5.5879,5.5805,5.5097,5.3702,5.3471,5.3238,5.2828,5.2624,5.1778,5.0281,5.0164,4.9495,4.8189,4.7471,4.7107,4.7007,4.632,4.6041,4.624,4.6283,4.6663,4.7471,4.7586,4.762,4.7774,4.7928,4.8389,4.9159,5.1005,5.0659,4.7167,4.8202,4.9586,5.1015,5.1741,5.239,5.3121,5.3197,5.3274,5.3395,5.3433,5.3467,5.3659,5.3818,5.401,5.3972,5.4741,5.5203,5.528,5.578,5.6165,5.6165,5.6247,5.6165,5.6088,5.5862,5.5362,5.478,5.4241,5.3736,5.3664,5.3741,5.3664,5.378,5.3741,5.3626,5.3664,5.3659,5.3664,5.3795,5.3728,5.3855,5.3854,5.404,5.4027,5.4032,5.4712,5.5334,5.5262,5.487,5.457,7.3643,7.2679,7.2788,7.231,7.1434,7.1576,7.1334,7.0698,6.9474,6.8205,6.708,6.6163,6.5396,6.4809,6.4602,6.4673,6.507,6.5725,6.5741,6.5185,6.5829,6.5778,6.5081,6.431,6.3833,6.3662,6.2304,6.1569,6.1337,6.0603,5.982,5.9123,5.8939,5.8132,5.6737,5.6627,5.6198,5.5291,5.4583,5.4211,5.4102,5.3048,5.2082,5.118,5.08,4.9827,4.8253,4.8108,4.7839,4.7453,4.7323,4.7717,4.8803,4.8851,4.9245,5.0091,5.0168,5.0471,5.1115,5.189,5.2702,5.3472,5.328,5.2736,5.2202,5.2351,5.2582,5.2851,5.3049,5.3044,5.3197,5.3313,5.3703,5.4241,5.4357,5.4587,5.528,5.5939,5.6362,5.6362,5.7247,5.7659,5.7544,5.7698,5.7775,5.7857,5.7665,5.7852,5.7544,5.6626,5.5785,5.5555,5.5439,5.5362,5.5362,5.5324,5.5357,5.5357,5.5362,5.5357,5.5362,5.5357,5.5324,5.5324,5.5294,5.5314,5.5286,5.55,5.5428,5.5389,5.5763,5.6096,5.606,5.6035,5.6094,7.5352,7.4479,7.4442,7.3561,7.2195,7.1245,7.0717,7.0329,6.8843,6.8042,6.7596,6.6377,6.5847,6.6022,6.6122,6.6227,6.6404,6.7338,6.73,6.6526,6.6513,6.6292,6.5888,6.5118,6.453,6.4066,6.3332,6.2695,6.2205,6.1447,6.086,6.0456,5.9636,5.8829,5.8132,5.7655,5.7262,5.6859,5.5658,5.5023,5.5034,5.4485,5.3694,5.2661,5.2476,5.1715,5.0252,5.0192,5.0084,4.9883,4.989,5.0253,5.1084,5.1145,5.1415,5.1995,5.2049,5.2202,5.2582,5.3818,5.4934,5.5785,5.5934,5.5967,5.5967,5.5088,5.4741,5.5203,5.5665,5.5967,5.5967,5.5967,5.6121,5.6505,5.6549,5.6703,5.7049,5.744,5.7703,5.7742,5.805,5.8275,5.8275,5.8275,5.8275,5.8275,5.8313,5.8313,5.8313,5.7665,5.7126,5.7088,5.7126,5.7126,5.7088,5.7088,5.7126,5.7088,5.7088,5.7126,5.7126,5.7088,5.6896,5.6516,5.6401,5.6209,5.5862,5.5758,5.5794,5.5802,5.5939,5.611,5.6153,5.6315,5.6511,7.6728,7.5823,7.5823,7.4647,7.2728,7.1597,7.0822,7.0104,6.9008,6.8357,6.7974,6.6786,6.6542,6.7064,6.7605,6.7862,6.795,6.8769,6.8752,6.7958,6.732,6.6953,6.6696,6.5962,6.5228,6.4653,6.4286,6.3772,6.3062,6.2254,6.1777,6.1484,6.015,5.9453,5.949,5.8829,5.8437,5.8217,5.7042,5.6235,5.5879,5.5695,5.5154,5.4309,5.4199,5.3675,5.2565,5.2477,5.2407,5.2355,5.2429,5.2786,5.3377,5.3525,5.3837,5.4287,5.4357,5.4351,5.4428,5.5549,5.6549,5.7247,5.7934,5.839,5.8429,5.7357,5.6747,5.7286,5.778,5.8198,5.8121,5.8198,5.8275,5.8275,5.8275,5.8159,5.8275,5.8429,5.8588,5.8588,5.8736,5.8896,5.8858,5.8858,5.8929,5.8973,5.8858,5.8858,5.8858,5.8858,5.8858,5.8781,5.8583,5.8198,5.8275,5.8236,5.8198,5.8275,5.8236,5.8121,5.8159,5.8236,5.8083,5.744,5.7286,5.7088,5.6472,5.6362,5.6417,5.6487,5.6659,5.661,5.6742,5.6903,5.6784,7.6692,7.5874,7.5857,7.4647,7.3009,7.353,7.2426,7.0376,7.0272,6.9378,6.8101,6.7968,6.7627,6.738,6.8862,6.9269,6.8755,6.9601,6.9559,6.8862,6.8715,6.8274,6.7554,6.6769,6.6329,6.6035,6.4837,6.4176,6.3943,6.3099,6.2316,6.1594,6.0713,6.0297,6.0272,6.0199,5.9783,5.9123,5.8939,5.8168,5.6748,5.5989,5.5533,5.5467,5.5441,5.5047,5.4159,5.417,5.3981,5.3712,5.4004,5.4769,5.5777,5.6304,5.6906,5.7659,5.7736,5.7819,5.7813,5.7967,5.8088,5.8165,5.8357,5.8736,5.9396,5.9281,5.8858,5.8511,5.8357,5.8429,5.8313,5.8429,5.8544,5.866,5.8621,5.8275,5.8583,5.8934,5.9396,5.9396,6.0089,6.055,6.0396,6.0358,6.0435,6.0281,6.0242,6.0281,6.0281,6.0287,6.0319,6.0165,5.9358,5.8506,5.8467,5.8313,5.8506,5.8467,5.8352,5.8506,5.8583,5.8506,5.8242,5.828,5.8165,5.8088,5.7973,5.805,5.7929,5.7687,5.7868,5.8199,5.8393,5.8306,5.7912,7.7051,7.6712,7.6712,7.5585,7.4006,7.3693,7.2702,7.1226,7.0832,7.0269,6.9691,6.983,6.912,6.7911,6.9765,7.0193,6.9534,7.0376,7.0367,6.9596,6.9155,6.8715,6.8348,6.7577,6.6966,6.6512,6.5815,6.5264,6.4751,6.398,6.3172,6.2291,6.152,6.1117,6.108,6.0627,6.0224,5.993,5.993,5.96,5.8877,5.7666,5.6785,5.6381,5.6308,5.5941,5.5207,5.5108,5.5021,5.489,5.505,5.5612,5.6579,5.6852,5.7331,5.8191,5.8275,5.8511,5.8973,5.9006,5.9435,6.0435,6.0556,6.0896,6.166,6.1743,6.1583,6.1198,6.0352,5.9781,5.9819,6.0248,6.0556,6.0589,6.0935,6.1198,6.1275,6.1506,6.1589,6.1166,6.1325,6.1325,6.0935,6.0781,6.0781,6.0781,6.0819,6.0896,6.0819,6.0781,6.0781,6.0742,6.0165,5.9858,5.9742,5.9781,5.9742,5.9742,5.9781,5.9781,5.9704,5.9781,5.9665,5.9127,5.905,5.8819,5.8275,5.8313,5.8275,5.8385,5.833,5.8404,5.8548,5.8587,5.8279,7.7326,7.7252,7.7069,7.6072,7.4581,7.3882,7.2923,7.192,7.1375,7.1073,7.0842,7.1007,7.0455,6.9651,7.0875,7.1153,7.0759,7.1319,7.1197,7.044,6.9802,6.9449,6.9155,6.8421,6.7724,6.7173,6.6696,6.6072,6.5325,6.4751,6.398,6.3172,6.2585,6.2144,6.1887,6.1325,6.0933,6.075,6.0713,6.0603,6.0272,5.9281,5.8364,5.7838,5.7581,5.7189,5.6602,5.6393,5.6246,5.6246,5.64,5.6803,5.7548,5.7913,5.8614,5.9545,5.966,5.9929,6.0512,6.0544,6.1089,6.2243,6.2403,6.2666,6.316,6.3314,6.3314,6.3121,6.2204,6.1473,6.155,6.205,6.2403,6.248,6.3012,6.3314,6.3198,6.3314,6.3006,6.2518,6.2403,6.221,6.1666,6.155,6.1589,6.1627,6.155,6.1473,6.1473,6.155,6.155,6.1473,6.1512,6.1281,6.0935,6.0666,6.0781,6.0781,6.0666,6.0627,6.0781,6.0787,6.0748,5.9935,5.9896,5.9781,5.9473,5.9165,5.8967,5.8973,5.899,5.9007,5.9336,5.9176,5.9206,7.7326,7.7179,7.6497,7.563,7.463,7.4707,7.3695,7.196,7.2105,7.1698,7.0948,7.1129,7.1512,7.2024,7.2301,7.2423,7.235,7.2379,7.1982,7.127,7.1123,7.0756,7.0,6.9229,6.8825,6.8495,6.732,6.6219,6.5398,6.5288,6.4861,6.4053,6.3919,6.3539,6.2866,6.2683,6.2291,6.163,6.1557,6.1227,6.0566,6.0382,6.0272,6.0126,5.949,5.9013,5.8902,5.829,5.7886,5.7886,5.8264,5.8752,5.9325,6.0455,6.1618,6.2732,6.2929,6.2968,6.2968,6.2891,6.3045,6.3237,6.3275,6.3314,6.3506,6.3545,6.3545,6.3352,6.3352,6.3198,6.3198,6.3198,6.3275,6.3275,6.3352,6.3429,6.3391,6.3583,6.3314,6.3237,6.316,6.3051,6.3083,6.3198,6.3006,6.3006,6.3083,6.3045,6.2929,6.3006,6.3006,6.2968,6.2891,6.2627,6.1243,6.1204,6.1089,6.1089,6.1243,6.0896,6.0819,6.0781,6.0742,6.0748,6.0589,6.055,6.0627,6.0589,6.0435,6.0358,6.0281,6.0344,6.0085,6.0519,6.047,7.7326,7.7289,7.6995,7.6078,7.4837,7.4857,7.3882,7.235,7.2391,7.2246,7.2029,7.251,7.2924,7.3194,7.3245,7.3266,7.323,7.2753,7.2334,7.2004,7.1527,7.116,7.083,7.0036,6.9376,6.8862,6.8298,6.7357,6.6182,6.6072,6.5668,6.5007,6.4861,6.4457,6.3759,6.3613,6.3209,6.2475,6.2389,6.2205,6.1912,6.1949,6.1912,6.1875,6.0664,5.9967,5.9979,5.9685,5.9538,5.9538,5.9711,6.0152,6.0976,6.2009,6.2804,6.3218,6.3314,6.3314,6.3314,6.3314,6.3545,6.4089,6.4122,6.4391,6.4859,6.4974,6.4974,6.4974,6.4936,6.4974,6.4859,6.4474,6.4122,6.4199,6.4628,6.4897,6.4974,6.4974,6.4782,6.4199,6.3698,6.3314,6.3429,6.3314,6.3314,6.3314,6.3314,6.3352,6.3314,6.3314,6.3391,6.3314,6.3275,6.3121,6.266,6.2429,6.2391,6.2243,6.2166,6.1826,6.1633,6.1166,6.105,6.1127,6.105,6.1089,6.1127,6.1133,6.1127,6.105,6.1012,6.1166,6.0787,6.1127,6.105,7.7326,7.7252,7.7032,7.6298,7.527,7.472,7.3891,7.2899,7.2606,7.2532,7.2642,7.3083,7.345,7.3597,7.3413,7.3501,7.3597,7.2863,7.2532,7.2459,7.1931,7.1711,7.1564,7.0844,7.022,6.9655,6.9119,6.8201,6.7026,6.6893,6.6476,6.5729,6.5692,6.5301,6.4604,6.4494,6.409,6.338,6.3246,6.3135,6.2866,6.2793,6.2793,6.2646,6.1728,6.1031,6.0823,6.0517,6.0501,6.0617,6.0651,6.1231,6.2452,6.3267,6.3858,6.4089,6.416,6.4122,6.4122,6.4128,6.4397,6.4936,6.5013,6.532,6.5865,6.6128,6.6282,6.632,6.659,6.6705,6.659,6.6167,6.5622,6.5243,6.5551,6.5904,6.5904,6.5865,6.5596,6.5089,6.4589,6.4237,6.416,6.416,6.4199,6.4166,6.416,6.4122,6.4122,6.4128,6.4128,6.4166,6.4243,6.4282,6.4128,6.4128,6.3429,6.316,6.2897,6.2627,6.2364,6.182,6.1512,6.155,6.155,6.1589,6.1589,6.1589,6.1589,6.155,6.182,6.2083,6.1858,6.1743,6.1743,7.7326,7.7215,7.6445,7.6166,7.5799,7.4588,7.3832,7.3523,7.2899,7.2606,7.2532,7.2606,7.312,7.345,7.3046,7.301,7.345,7.2863,7.2532,7.2496,7.2459,7.2422,7.2349,7.1637,7.1197,7.0977,6.9655,6.8531,6.7724,6.77,6.7283,6.6623,6.6512,6.6109,6.5288,6.5264,6.4897,6.4273,6.409,6.3723,6.2976,6.3013,6.305,6.3013,6.2866,6.2511,6.1777,6.097,6.0875,6.1252,6.1326,6.2117,6.3616,6.4324,6.4974,6.5628,6.5865,6.5859,6.5904,6.5897,6.5897,6.6051,6.5974,6.609,6.6282,6.6744,6.7135,6.7205,6.7744,6.8237,6.8199,6.8084,6.7507,6.6244,6.6167,6.6205,6.609,6.5981,6.5942,6.5981,6.5897,6.5936,6.5936,6.5897,6.5897,6.5897,6.5897,6.5897,6.5897,6.5897,6.5897,6.582,6.5667,6.5513,6.5705,6.5743,6.4743,6.3929,6.3622,6.3314,6.3243,6.2852,6.2583,6.2545,6.2506,6.2545,6.2506,6.2512,6.266,6.2698,6.2929,6.2929,6.2698,6.2583,6.2775,7.7326,7.7289,7.7032,7.6592,7.6093,7.5542,7.4771,7.3744,7.3377,7.301,7.2679,7.3083,7.3487,7.3597,7.3413,7.345,7.3648,7.2899,7.2532,7.2532,7.2532,7.2532,7.2459,7.2239,7.1821,7.1197,7.0243,6.9302,6.8641,6.8531,6.8128,6.7467,6.7333,6.6916,6.6182,6.6109,6.5742,6.5007,6.4921,6.4774,6.4517,6.4517,6.4517,6.4517,6.4517,6.4371,6.4077,6.2793,6.2336,6.2837,6.2848,6.344,6.4546,6.5214,6.5853,6.6596,6.6712,6.7019,6.7513,6.759,6.7552,6.7583,6.759,6.7628,6.7622,6.7814,6.7975,6.7968,6.8237,6.8391,6.8391,6.8391,6.8199,6.766,6.7628,6.7513,6.7468,6.7552,6.7622,6.7622,6.7628,6.7628,6.7583,6.7552,6.7475,6.7475,6.7513,6.7513,6.7552,6.7436,6.7321,6.6898,6.6782,6.6596,6.6474,6.6397,6.5897,6.5089,6.466,6.4237,6.4083,6.3968,6.3698,6.3583,6.3545,6.3506,6.3468,6.3506,6.366,6.3506,6.3429,6.3352,6.3314,6.3468,6.3698,7.7326,7.7326,7.7326,7.7032,7.6518,7.624,7.5542,7.4551,7.3942,7.3428,7.3083,7.3156,7.3281,7.3266,7.3266,7.3266,7.3193,7.2716,7.2532,7.2532,7.2532,7.2532,7.2532,7.2532,7.2078,7.1344,7.0807,7.0146,6.9376,6.9339,6.8935,6.8274,6.8141,6.7774,6.7026,6.6916,6.6549,6.5852,6.5742,6.5582,6.5362,6.5325,6.5325,6.5288,6.5288,6.5325,6.5215,6.4261,6.4068,6.4727,6.513,6.5685,6.6307,6.667,6.7051,6.7436,6.759,6.7821,6.8314,6.8276,6.8391,6.8391,6.8391,6.8353,6.843,6.8622,6.8891,6.8853,6.9199,6.9353,6.9353,6.9353,6.9321,6.9314,6.8699,6.8468,6.8391,6.8391,6.8353,6.8276,6.8314,6.8391,6.8391,6.8391,6.8391,6.8391,6.8391,6.8391,6.8391,6.8353,6.8013,6.7744,6.7628,6.7359,6.7013,6.6936,6.6936,6.6397,6.5859,6.5359,6.5013,6.4859,6.4666,6.4705,6.4666,6.4743,6.4705,6.4589,6.4628,6.4282,6.4128,6.4436,6.4628,6.4551,6.4705,7.7326,7.7326,7.7326,7.7289,7.7179,7.6518,7.613,7.5799,7.4588,7.3854,7.356,7.3046,7.2679,7.2569,7.2642,7.2642,7.2532,7.2569,7.2532,7.2532,7.2532,7.2532,7.2532,7.2532,7.2114,7.1564,7.138,7.0903,7.0183,7.0146,6.9779,6.9045,6.8935,6.8568,6.7907,6.7774,6.737,6.6659,6.6549,6.6219,6.5618,6.5545,6.5545,6.5582,6.5618,6.5618,6.5618,6.5601,6.5885,6.6736,6.7387,6.7846,6.8243,6.8391,6.8237,6.843,6.8468,6.8545,6.8584,6.8814,6.8776,6.8821,6.8814,6.8545,6.8853,6.9398,6.9744,6.9783,7.0283,7.0706,7.0706,7.0706,7.0706,7.0667,6.959,6.8853,6.8584,6.866,6.8814,6.8737,6.8584,6.8584,6.8776,6.8776,6.8737,6.8737,6.8776,6.8853,6.8853,6.8968,6.8622,6.8507,6.8468,6.8122,6.7782,6.7628,6.759,6.7398,6.6936,6.6628,6.6244,6.6051,6.5782,6.582,6.5782,6.5865,6.5711,6.5436,6.5397,6.5282,6.5397,6.5827,6.5942,6.582,6.5936,7.7326,7.7326,7.7326,7.7326,7.7289,7.7032,7.6628,7.6093,7.5689,7.4735,7.3891,7.3487,7.3046,7.2555,7.2532,7.2532,7.2532,7.2532,7.2532,7.2532,7.2532,7.2532,7.2532,7.2532,7.2386,7.2151,7.2092,7.1762,7.1013,7.0977,7.0587,6.9816,6.9779,6.9376,6.8715,6.8568,6.8128,6.7517,6.7407,6.7297,6.7113,6.7003,6.7063,6.7076,6.704,6.699,6.7093,6.7456,6.7299,6.6849,6.7419,6.8034,6.8415,6.85,6.8776,6.9237,6.9353,6.9629,7.0052,7.0161,7.0206,7.0244,7.0167,7.0244,7.0244,7.0437,7.0591,7.0629,7.0821,7.0975,7.0937,7.0975,7.0975,7.086,7.0514,7.0206,7.0129,7.0244,7.0244,7.0244,7.0167,7.0129,7.009,7.009,7.009,7.009,7.0084,7.0045,6.9891,6.9937,6.9783,6.9475,6.9283,6.8898,6.8584,6.8391,6.8276,6.8199,6.8045,6.7968,6.7705,6.7552,6.7205,6.6936,6.6744,6.675,6.6244,6.5782,6.5897,6.6244,6.6481,6.6789,6.7019,6.7051,6.7359,7.7326,7.7326,7.7326,7.7326,7.7326,7.7326,7.7032,7.6592,7.6203,7.5616,7.4771,7.4331,7.3744,7.3046,7.301,7.2789,7.2532,7.2532,7.2532,7.2532,7.2532,7.2532,7.2532,7.2532,7.2532,7.2532,7.2532,7.2239,7.1857,7.1784,7.1344,7.072,7.0624,7.0183,6.9449,6.9412,6.9192,6.8728,6.8398,6.8201,6.8201,6.7847,6.77,6.77,6.77,6.77,6.7731,6.7983,6.7921,6.7739,6.8214,6.879,6.9099,6.9362,6.9692,7.0206,7.0206,7.0437,7.0744,7.0898,7.1091,7.1367,7.1444,7.1668,7.1898,7.1968,7.2007,7.2052,7.2007,7.1975,7.2007,7.2007,7.1968,7.2091,7.2014,7.1668,7.1052,7.0821,7.0898,7.0898,7.0898,7.0898,7.0898,7.0937,7.0937,7.086,7.0744,7.0744,7.0744,7.0898,7.0898,7.0552,7.0321,7.0052,6.9937,6.9783,6.9738,6.9584,6.9545,6.943,6.8968,6.8814,6.8244,6.7821,6.7705,6.7475,6.7013,6.6782,6.7128,6.7398,6.7552,6.7628,6.7859,6.8167,6.8513,7.7326,7.7326,7.7326,7.7326,7.7326,7.7326,7.7289,7.7142,7.6592,7.6166,7.5836,7.5307,7.4478,7.3722,7.3538,7.3266,7.2532,7.2532,7.2532,7.2532,7.2532,7.2532,7.2532,7.2532,7.2532,7.2532,7.2532,7.2496,7.2386,7.2422,7.2114,7.1564,7.1417,7.0977,7.0367,7.022,7.0183,6.9853,6.9302,6.9045,6.8935,6.8531,6.8288,6.8251,6.8251,6.8214,6.8141,6.8148,6.8251,6.8652,6.9488,6.9753,6.9997,7.0616,7.0986,7.1137,7.1227,7.1321,7.1245,7.1437,7.1591,7.2206,7.2329,7.2629,7.3084,7.3199,7.3199,7.3161,7.3469,7.3238,7.3238,7.3392,7.3276,7.3199,7.3315,7.2661,7.1629,7.1168,7.1168,7.1168,7.1206,7.1168,7.1168,7.1168,7.1245,7.1853,7.1738,7.1783,7.1783,7.1822,7.1783,7.1552,7.1398,7.1283,7.1245,7.1245,7.1245,7.1199,7.1245,7.1014,7.0161,6.9738,6.9045,6.8629,6.8552,6.8359,6.8052,6.8084,6.8237,6.8276,6.8244,6.8391,6.8622,6.9013,6.936,7.7326,7.7326,7.7326,7.7326,7.7326,7.7326,7.7326,7.7289,7.7105,7.6665,7.6166,7.5909,7.5065,7.3758,7.3832,7.3266,7.2642,7.2532,7.2532,7.2532,7.2532,7.2532,7.2532,7.2532,7.2532,7.2532,7.2532,7.2532,7.2532,7.2606,7.2445,7.2312,7.2129,7.1821,7.116,7.1027,7.0697,7.0183,6.9926,6.9853,6.9816,6.9596,6.9412,6.9412,6.9449,6.9522,6.9559,6.9559,6.9642,6.9595,6.9307,6.9477,7.0314,7.0973,7.151,7.2005,7.2548,7.2818,7.287,7.2712,7.2962,7.3087,7.3149,7.3283,7.3392,7.3623,7.3584,7.3507,7.3507,7.3661,7.3699,7.3546,7.3661,7.3699,7.3661,7.3507,7.3046,7.2892,7.2776,7.2815,7.2822,7.293,7.2853,7.2738,7.2776,7.2892,7.2892,7.2892,7.2815,7.2706,7.2591,7.2392,7.2392,7.2276,7.2276,7.2276,7.2276,7.2276,7.2353,7.2399,7.1545,7.0968,7.0391,6.9853,6.943,6.9199,6.8968,6.8699,6.8737,6.8814,6.9045,6.943,6.9738,7.0014,7.036,7.7326,7.7326,7.7326,7.7326,7.7326,7.7326,7.7326,7.7326,7.7326,7.7069,7.6738,7.6665,7.5946,7.4882,7.4771,7.4258,7.3156,7.2642,7.2532,7.2532,7.2532,7.2532,7.2532,7.2532,7.2532,7.2518,7.2899,7.3046,7.3083,7.3046,7.3083,7.301,7.2716,7.2312,7.1931,7.1821,7.1688,7.1284,7.0844,7.066,7.066,7.0293,7.011,7.011,7.011,7.011,7.0036,7.0073,7.0073,6.9949,6.9605,6.9645,7.0545,7.1227,7.175,7.2149,7.2441,7.2659,7.2621,7.2685,7.2898,7.3635,7.3682,7.4121,7.4449,7.4668,7.4668,7.4668,7.4707,7.4707,7.4668,7.47,7.4661,7.4661,7.4661,7.4668,7.4546,7.4007,7.3507,7.3507,7.3392,7.3392,7.3469,7.3699,7.3584,7.3353,7.3315,7.3315,7.3238,7.3161,7.3238,7.3161,7.3276,7.3315,7.3315,7.3238,7.3161,7.3122,7.3084,7.3084,7.2776,7.2315,7.1898,7.1283,7.0667,7.0206,6.9937,6.9622,6.9622,6.9937,7.0321,7.0667,7.1052,7.1514,7.1898,7.7326,7.7326,7.7326,7.7326,7.7326,7.7326,7.7326,7.7326,7.7326,7.7289,7.7289,7.7326,7.6665,7.6166,7.5983,7.5139,7.3854,7.3083,7.2789,7.2532,7.2532,7.2532,7.2532,7.2532,7.2532,7.2606,7.323,7.3611,7.3648,7.3832,7.3854,7.3744,7.3083,7.2789,7.2716,7.2532,7.2349,7.2165,7.1747,7.149,7.1417,7.0917,7.0697,7.0697,7.0697,7.0697,7.0734,7.066,7.055,7.044,7.0477,7.0733,7.1094,7.1462,7.1896,7.1982,7.2358,7.258,7.2649,7.2484,7.2874,7.3934,7.4099,7.4588,7.5387,7.5694,7.5745,7.5784,7.5745,7.5745,7.5976,7.5784,7.5822,7.5861,7.5938,7.5976,7.5745,7.4707,7.4199,7.4046,7.4276,7.4392,7.4238,7.4322,7.4046,7.3853,7.3815,7.3815,7.3776,7.3853,7.4084,7.4238,7.443,7.4507,7.4469,7.4392,7.4276,7.4161,7.4007,7.4007,7.3969,7.3584,7.3091,7.2476,7.1898,7.1475,7.1283,7.1321,7.136,7.1437,7.1629,7.1975,7.2476,7.3007,7.3199,7.7326,7.7326,7.7326,7.7326,7.7326,7.7326,7.7326,7.7326,7.7326,7.7326,7.7326,7.7289,7.6848,7.6313,7.613,7.5212,7.4111,7.3523,7.312,7.2679,7.2569,7.2532,7.2532,7.2532,7.2532,7.2716,7.334,7.378,7.3964,7.4294,7.4661,7.4551,7.3891,7.3523,7.3303,7.2936,7.2679,7.2679,7.2422,7.2312,7.2129,7.2018,7.1872,7.1872,7.1798,7.1872,7.1982,7.2055,7.2092,7.2092,7.2092,7.209,7.2097,7.211,7.2385,7.2805,7.3212,7.3286,7.3357,7.3629,7.3878,7.4289,7.4456,7.476,7.5259,7.5662,7.5787,7.5924,7.5932,7.5954,7.5976,7.5976,7.6015,7.6015,7.6092,7.613,7.6053,7.5784,7.5476,7.5399,7.5476,7.5392,7.5168,7.5014,7.4976,7.4938,7.4938,7.4976,7.5014,7.5168,7.5361,7.5515,7.5668,7.5707,7.5707,7.5592,7.5476,7.5322,7.5245,7.5207,7.5091,7.4738,7.4284,7.3707,7.3206,7.2776,7.2776,7.2776,7.2738,7.2514,7.2853,7.3276,7.3507,7.3738,7.3776,7.7326,7.7326,7.7326,7.7326,7.7326,7.7326,7.7326,7.7326,7.7326,7.7326,7.7326,7.7289,7.7105,7.6775,7.6702,7.6004,7.5028,7.3964,7.3523,7.3083,7.2753,7.2532,7.2532,7.2532,7.2532,7.2863,7.3634,7.4294,7.4404,7.5139,7.5469,7.5322,7.4735,7.4331,7.4258,7.3986,7.3487,7.3266,7.312,7.2899,7.2569,7.2532,7.2532,7.2532,7.2532,7.2532,7.2532,7.2532,7.2496,7.2496,7.2496,7.2532,7.25,7.2448,7.2536,7.295,7.325,7.3416,7.3403,7.3366,7.3429,7.378,7.4124,7.4384,7.466,7.4952,7.5351,7.5531,7.5559,7.5686,7.5947,7.6046,7.6207,7.6592,7.6669,7.6861,7.7053,7.6861,7.6746,7.6592,7.6169,7.5938,7.5822,7.5784,7.5938,7.5976,7.6015,7.6092,7.613,7.6245,7.6361,7.6284,7.6322,7.6361,7.6399,7.6399,7.6399,7.6361,7.6284,7.6284,7.613,7.5745,7.5438,7.5014,7.4553,7.4161,7.3469,7.3238,7.3392,7.3623,7.3853,7.4084,7.4238,7.4392,7.4584,7.7326,7.7326,7.7326,7.7326,7.7326,7.7326,7.7326,7.7326,7.7326,7.7326,7.7326,7.7326,7.7326,7.7289,7.7179,7.6775,7.6019,7.4698,7.4111,7.3523,7.3083,7.2753,7.2532,7.2532,7.2606,7.3083,7.4074,7.4867,7.5014,7.5858,7.6261,7.613,7.5527,7.5124,7.5087,7.4793,7.4478,7.4184,7.3927,7.3523,7.2936,7.2753,7.2642,7.2532,7.2532,7.2532,7.2532,7.2532,7.2532,7.2532,7.2532,7.2532,7.2532,7.2496,7.2569,7.2679,7.2591,7.2532,7.2539,7.2596,7.2945,7.3532,7.3639,7.4037,7.4567,7.5081,7.5181,7.5341,7.571,7.5968,7.6437,7.6501,7.6892,7.7292,7.7561,7.7676,7.7946,7.7907,7.7561,7.7246,7.6746,7.6399,7.6245,7.6092,7.6092,7.6553,7.6592,7.6899,7.6938,7.6984,7.7022,7.6861,7.6823,7.6823,7.6899,7.7015,7.7053,7.713,7.7092,7.7092,7.6938,7.6669,7.6476,7.6361,7.6015,7.5553,7.4623,7.4007,7.4392,7.4661,7.4776,7.5053,7.5476,7.5784,7.6053,7.7326,7.7326,7.7326,7.7326,7.7326,7.7326,7.7326,7.7326,7.7326,7.7326,7.7326,7.7326,7.7326,7.7326,7.7326,7.6812,7.624,7.5763,7.4955,7.4074,7.367,7.3266,7.2679,7.2532,7.2973,7.345,7.4404,7.483,7.5234,7.6335,7.7069,7.6885,7.635,7.5983,7.5894,7.5491,7.4867,7.4757,7.472,7.4331,7.3707,7.3575,7.323,7.2826,7.2679,7.2716,7.2826,7.2826,7.2753,7.2716,7.2606,7.2569,7.2532,7.2532,7.2936,7.312,7.2973,7.2532,7.2679,7.2789,7.3038,7.3748,7.4138,7.4817,7.5221,7.5716,7.5999,7.6466,7.6837,7.7093,7.7217,7.7758,7.8146,7.8208,7.8239,7.8331,7.8546,7.8467,7.8214,7.8108,7.7662,7.6978,7.6546,7.6361,7.6245,7.6746,7.7215,7.7515,7.7715,7.7676,7.7676,7.7561,7.7522,7.7522,7.7484,7.7599,7.7669,7.783,7.783,7.783,7.7676,7.7561,7.7907,7.7715,7.7369,7.6899,7.613,7.5707,7.5707,7.5822,7.6092,7.6476,7.6907,7.7215,7.7323,7.7326,7.7326,7.7326,7.7326,7.7326,7.7326,7.7326,7.7326,7.7326,7.7326,7.7326,7.7326,7.7326,7.7326,7.7326,7.7105,7.6738,7.635,7.5799,7.5028,7.4588,7.4184,7.3839,7.3413,7.3487,7.3891,7.4441,7.4867,7.5417,7.6408,7.7326,7.7252,7.6959,7.6775,7.6702,7.6445,7.6004,7.5601,7.516,7.472,7.4478,7.4368,7.4221,7.3891,7.3802,7.3766,7.3766,7.3839,7.3839,7.3854,7.3839,7.3839,7.3876,7.3876,7.4074,7.4258,7.4111,7.3913,7.3876,7.3854,7.4037,7.4236,7.4636,7.4911,7.5296,7.5591,7.5978,7.6156,7.6719,7.7214,7.757,7.7811,7.8244,7.8526,7.8688,7.8985,7.9032,7.882,7.8679,7.8675,7.8557,7.7826,7.7297,7.7384,7.7401,7.7707,7.8015,7.8169,7.8253,7.8215,7.8253,7.8292,7.8253,7.8292,7.8215,7.8215,7.8253,7.833,7.833,7.833,7.833,7.8407,7.8754,7.8677,7.8176,7.7753,7.7407,7.7253,7.713,7.7246,7.74,7.7669,7.7869,7.8023,7.8138,7.7326,7.7326,7.7326,7.7326,7.7326,7.7326,7.7326,7.7326,7.7326,7.7326,7.7326,7.7326,7.7326,7.7326,7.7326,7.7252,7.7252,7.6665,7.6313,7.5946,7.5542,7.5087,7.4647,7.4221,7.4147,7.4258,7.4992,7.5417,7.5931,7.6628,7.7326,7.7326,7.7215,7.7252,7.7289,7.7142,7.6848,7.6408,7.5894,7.5527,7.5285,7.5197,7.505,7.4903,7.4903,7.4903,7.4903,7.483,7.4793,7.4793,7.472,7.4647,7.4683,7.4647,7.4867,7.5087,7.5087,7.5285,7.5197,7.5124,7.5087,7.5197,7.5454,7.5742,7.5676,7.5506,7.564,7.6384,7.6943,7.7432,7.7695,7.7938,7.8423,7.8775,7.8975,7.9394,7.9612,7.9175,7.8919,7.8979,7.8847,7.8676,7.8351,7.8515,7.865,7.8769,7.8861,7.8892,7.8977,7.9023,7.9215,7.9369,7.9408,7.9446,7.9369,7.9254,7.9138,7.8984,7.8977,7.9131,7.9331,7.9408,7.96,7.9331,7.8984,7.9138,7.9169,7.883,7.8484,7.8176,7.8023,7.8438,7.8669,7.8869,7.8999,7.7326,7.7326,7.7326,7.7326,7.7326,7.7326,7.7326,7.7326,7.7326,7.7326,7.7326,7.7326,7.7326,7.7326,7.7326,7.7326,7.7289,7.7252,7.6775,7.635,7.5983,7.5689,7.5307,7.5124,7.5139,7.5652,7.5836,7.6225,7.6885,7.6922,7.7289,7.7326,7.7326,7.7326,7.7326,7.7289,7.7252,7.7032,7.6812,7.6518,7.6203,7.5946,7.5711,7.5197,7.4977,7.4903,7.494,7.5124,7.5197,7.5234,7.527,7.5234,7.5344,7.5307,7.5564,7.5894,7.6004,7.6261,7.6408,7.5894,7.5491,7.5968,7.6481,7.6812,7.6702,7.6995,7.716,7.7083,7.749,7.7987,7.8366,7.869,7.8757,7.8949,7.9013,7.8991,7.918,7.918,7.9014,7.915,7.9067,7.8766,7.8862,7.8925,7.9009,7.907,7.9448,7.9487,8.0146,8.0285,8.0477,8.0631,8.0708,8.0746,8.0785,8.0592,8.0208,8.0131,8.0131,8.0362,8.0631,8.0631,8.0323,8.04,8.0208,8.0592,8.0669,7.99,7.9215,7.8715,7.8677,7.9246,7.9785,8.0131,8.0106,7.7326,7.7326,7.7326,7.7326,7.7326,7.7326,7.7326,7.7326,7.7326,7.7326,7.7326,7.7326,7.7326,7.7326,7.7326,7.7326,7.7326,7.7289,7.7069,7.6959,7.6738,7.6628,7.6298,7.5894,7.5799,7.6093,7.6166,7.6166,7.6445,7.7069,7.7289,7.7326,7.7326,7.7326,7.7326,7.7326,7.7326,7.7326,7.7326,7.7069,7.6995,7.6848,7.6665,7.6445,7.6371,7.6371,7.6408,7.6408,7.6371,7.6335,7.6298,7.6261,7.6225,7.6225,7.6408,7.6702,7.6738,7.6959,7.7179,7.6702,7.6592,7.6702,7.7105,7.7326,7.7326,7.7326,7.7326,7.751,7.7875,7.8268,7.884,7.8741,7.8616,7.8938,7.8963,7.8791,7.8753,7.8828,7.9104,7.9242,7.8979,7.8678,7.8895,7.9165,7.9237,7.9329,7.9763,8.0216,8.0877,8.1322,8.1438,8.1258,8.1242,8.1151,8.1113,8.1114,8.1115,8.117,8.1208,8.14,8.1516,8.1093,8.09,8.1093,8.1246,8.1285,8.1054,8.0554,8.0131,7.9946,8.0023,8.0285,8.0823,8.1308,8.1097,7.7326,7.7326,7.7326,7.7326,7.7326,7.7326,7.7326,7.7326,7.7326,7.7326,7.7326,7.7326,7.7326,7.7326,7.7326,7.7326,7.7326,7.7326,7.7326,7.7252,7.7215,7.7326,7.7105,7.6812,7.6481,7.6445,7.646,7.657,7.6665,7.7069,7.7252,7.7326,7.7326,7.7326,7.7326,7.7326,7.7326,7.7326,7.7326,7.745,7.7503,7.7359,7.7473,7.7385,7.7288,7.7142,7.7105,7.7069,7.7105,7.7142,7.7179,7.7252,7.7289,7.7289,7.7326,7.7326,7.7326,7.7326,7.7326,7.7289,7.7289,7.7215,7.7252,7.7326,7.7326,7.7304,7.735,7.7651,7.796,7.8282,7.8829,7.8418,7.8104,7.8218,7.8657,7.861,7.8573,7.8624,7.9033,7.9322,7.883,7.822,7.8688,7.8994,7.9378,7.9679,8.0388,8.0945,8.1627,8.1969,8.2048,8.1811,8.1448,8.1291,8.118,8.127,8.144,8.1862,8.1939,8.2131,8.2093,8.1747,8.1785,8.217,8.2208,8.1939,8.1862,8.1862,8.167,8.14,8.1516,8.167,8.1851,8.2246,8.1824,7.7326,7.7326,7.7326,7.7326,7.7326,7.7326,7.7326,7.7326,7.7326,7.7326,7.7326,7.7326,7.7326,7.7326,7.7326,7.7326,7.7326,7.7326,7.7326,7.7326,7.7326,7.7326,7.7289,7.7142,7.7032,7.7215,7.7142,7.7069,7.7179,7.7252,7.7289,7.7326,7.7326,7.7326,7.7326,7.7326,7.7326,7.7326,7.7304,7.7695,7.7811,7.7599,7.7768,7.7724,7.7525,7.7289,7.7326,7.7326,7.7326,7.7326,7.7326,7.7326,7.7326,7.7326,7.7326,7.7326,7.7326,7.7326,7.7326,7.7326,7.7326,7.7326,7.7326,7.7326,7.7326,7.7335,7.7487,7.7724,7.771,7.7848,7.7897,7.7928,7.7799,7.8035,7.8552,7.863,7.8623,7.8528,7.8921,7.9288,7.8367,7.7659,7.8241,7.8764,7.934,7.998,8.0884,8.1591,8.2138,8.2254,8.2187,8.211,8.1671,8.1756,8.1669,8.1613,8.1764,8.2284,8.2593,8.2755,8.2947,8.2901,8.3024,8.3332,8.3139,8.2755,8.3101,8.3486,8.3131,8.2824,8.2978,8.3115,8.3201,8.3084,8.2722,7.7326,7.7326,7.7326,7.7326,7.7326,7.7326,7.7326,7.7326,7.7326,7.7326,7.7326,7.7326,7.7326,7.7326,7.7326,7.7326,7.7326,7.7326,7.7326,7.7326,7.7326,7.7326,7.7326,7.7326,7.7326,7.7326,7.7326,7.7326,7.7289,7.7326,7.7326,7.7326,7.7326,7.7326,7.7326,7.7326,7.7326,7.7396,7.7673,7.7917,7.771,7.7811,7.7817,7.7724,7.7435,7.7289,7.7326,7.7326,7.7326,7.7326,7.7326,7.7326,7.7326,7.7326,7.7326,7.7326,7.7326,7.7326,7.7326,7.7326,7.7326,7.7362,7.7399,7.7399,7.7326,7.7326,7.7487,7.7673,7.7716,7.8072,7.8675,7.8515,7.8461,7.8897,7.9201,7.8989,7.8866,7.8703,7.8811,7.9188,7.8788,7.8222,7.8369,7.8993,7.9542,7.9982,8.0778,8.1422,8.1949,8.1892,8.1831,8.1995,8.1924,8.2122,8.2232,8.232,8.2604,8.3111,8.3285,8.3293,8.3524,8.387,8.3793,8.3832,8.3717,8.3601,8.3947,8.4209,8.4286,8.4247,8.417,8.3978,8.3852,8.3845,8.3782,7.7326,7.7326,7.7326,7.7326,7.7326,7.7326,7.7326,7.7326,7.7326,7.7326,7.7326,7.7326,7.7326,7.7326,7.7326,7.7326,7.7326,7.7326,7.7326,7.7326,7.7326,7.7326,7.7326,7.7326,7.7326,7.7326,7.7326,7.7326,7.7326,7.7326,7.7326,7.7326,7.7326,7.7326,7.7326,7.7326,7.7326,7.7396,7.7629,7.784,7.7782,7.7826,7.7803,7.768,7.748,7.7326,7.7326,7.7326,7.7326,7.7326,7.7326,7.7326,7.7326,7.7326,7.7326,7.7326,7.7326,7.7436,7.7693,7.7803,7.7986,7.828,7.7949,7.7766,7.7839,7.8133,7.8452,7.8543,7.8198,7.8766,7.9486,7.9243,7.9241,7.9668,7.9904,7.968,7.9507,7.9396,7.925,7.958,7.8919,7.8552,7.8552,7.925,7.9863,8.0275,8.0658,8.1284,8.1917,8.1983,8.2022,8.2232,8.2403,8.2635,8.297,8.3267,8.3576,8.3976,8.4093,8.4209,8.4516,8.4939,8.4632,8.4447,8.4632,8.4747,8.4747,8.4863,8.5016,8.5055,8.5016,8.4786,8.4478,8.4485,8.4585,7.7326,7.7326,7.7326,7.7326,7.7326,7.7326,7.7326,7.7326,7.7326,7.7326,7.7326,7.7326,7.7326,7.7326,7.7326,7.7326,7.7326,7.7326,7.7326,7.7326,7.7326,7.7326,7.7326,7.7326,7.7326,7.7326,7.7326,7.7326,7.7326,7.7326,7.7326,7.7326,7.7326,7.7326,7.7326,7.7326,7.7326,7.7365,7.7599,7.7883,7.803,7.7782,7.7889,7.784,7.7636,7.7365,7.7326,7.7326,7.7326,7.7326,7.7326,7.7326,7.7326,7.7326,7.7326,7.7326,7.7326,7.7876,7.8295,7.8405,7.8883,7.9176,7.9066,7.8809,7.8736,7.9045,7.932,7.9532,7.9471,7.9926,8.0377,8.013,7.9869,8.0273,8.0698,8.0608,8.0461,8.0314,8.0167,7.9727,7.8589,7.817,7.8647,7.9307,7.991,8.0467,8.0898,8.1609,8.2218,8.2811,8.2845,8.2914,8.3113,8.3235,8.3536,8.39,8.4419,8.4788,8.5277,8.544,8.5786,8.5739,8.5478,8.5401,8.5786,8.5863,8.5517,8.5593,8.5824,8.5824,8.5555,8.5555,8.5247,8.5141,8.5265,7.7326,7.7326,7.7326,7.7326,7.7326,7.7326,7.7326,7.7326,7.7326,7.7326,7.7326,7.7326,7.7326,7.7326,7.7326,7.7326,7.7326,7.7326,7.7326,7.7326,7.7326,7.7326,7.7326,7.7326,7.7326,7.7326,7.7326,7.7326,7.7326,7.7326,7.7326,7.7326,7.7326,7.7326,7.7326,7.7326,7.7326,7.7396,7.7636,7.7988,7.82,7.8058,7.8132,7.8072,7.7724,7.7441,7.7304,7.7326,7.7326,7.7326,7.7326,7.7326,7.7326,7.7326,7.7326,7.7399,7.7803,7.8405,7.8626,7.9155,7.9633,8.0021,8.0094,7.9947,7.9779,7.9811,8.0105,8.0293,8.0361,8.0625,8.0892,8.0814,8.0645,8.0865,8.1195,8.1158,8.0901,8.0277,8.011,7.9396,7.8259,7.8552,7.8993,7.9176,7.9764,8.0461,8.1112,8.1786,8.2286,8.2802,8.3232,8.327,8.3369,8.3364,8.394,8.435,8.5016,8.5612,8.576,8.5855,8.5886,8.5856,8.6022,8.6094,8.6094,8.6094,8.6017,8.6094,8.6094,8.6094,8.5901,8.6017,8.6052,8.5802,8.5829,7.7326,7.7326,7.7326,7.7326,7.7326,7.7326,7.7326,7.7326,7.7326,7.7326,7.7326,7.7326,7.7326,7.7326,7.7326,7.7326,7.7326,7.7326,7.7326,7.7326,7.7326,7.7326,7.7326,7.7326,7.7326,7.7326,7.7326,7.7326,7.7326,7.7326,7.7326,7.7326,7.7326,7.7326,7.7326,7.7326,7.7326,7.7426,7.7673,7.8016,7.8214,7.8336,7.8309,7.8241,7.7854,7.7599,7.7304,7.7326,7.7326,7.7326,7.7326,7.7326,7.7326,7.7326,7.7619,7.7766,7.8222,7.8993,7.958,8.0021,8.0388,8.0718,8.1122,8.1122,8.1012,8.097,8.0986,8.1002,8.095,8.097,8.1248,8.1489,8.1452,8.1489,8.1525,8.1578,8.0881,8.011,7.947,7.8883,7.8772,7.9066,7.925,7.936,7.9617,8.0277,8.0901,8.1553,8.1912,8.2181,8.2764,8.3074,8.3237,8.3393,8.4017,8.4443,8.4757,8.4996,8.4972,8.5179,8.5532,8.5775,8.5719,8.5872,8.6094,8.6094,8.6094,8.6094,8.6094,8.6094,8.6094,8.6094,8.6094,8.6043,8.6203,7.7326,7.7326,7.7326,7.7326,7.7326,7.7326,7.7326,7.7326,7.7326,7.7326,7.7326,7.7326,7.7326,7.7326,7.7326,7.7326,7.7326,7.7326,7.7326,7.7326,7.7326,7.7326,7.7326,7.7326,7.7326,7.7326,7.7326,7.7326,7.7326,7.7326,7.7326,7.7326,7.7326,7.7326,7.7326,7.7326,7.7326,7.7335,7.748,7.7753,7.8245,7.8365,7.8336,7.8365,7.8159,7.7875,7.7435,7.7326,7.7326,7.7326,7.7326,7.7326,7.7326,7.7326,7.7766,7.8148,7.8405,7.9066,7.9874,8.0461,8.1122,8.1599,8.215,8.1966,8.1782,8.1672,8.1636,8.1599,8.1562,8.1562,8.1782,8.1819,8.1819,8.1599,8.1452,8.1012,8.0167,7.9433,7.8809,7.8332,7.8295,7.8662,7.9323,7.9396,7.969,8.022,8.0771,8.1379,8.1782,8.1929,8.2255,8.2823,8.2898,8.3089,8.3664,8.4004,8.4129,8.4264,8.4313,8.4525,8.4963,8.521,8.536,8.5589,8.5864,8.606,8.6094,8.6094,8.6094,8.6094,8.6094,8.6094,8.6132,8.6247,8.6552,7.7326,7.7326,7.7326,7.7326,7.7326,7.7326,7.7326,7.7326,7.7326,7.7326,7.7326,7.7326,7.7326,7.7326,7.7326,7.7326,7.7326,7.7326,7.7326,7.7326,7.7326,7.7326,7.7326,7.7326,7.7326,7.7326,7.7326,7.7326,7.7326,7.7326,7.7326,7.7326,7.7326,7.7326,7.7326,7.7326,7.7326,7.7326,7.7465,7.7894,7.864,7.8538,7.8432,7.8458,7.8312,7.7666,7.732,7.7326,7.7326,7.7326,7.7326,7.7326,7.7326,7.7326,7.7399,7.7656,7.8295,7.8919,7.9543,8.0314,8.0975,8.1342,8.1672,8.2003,8.215,8.2186,8.2186,8.2186,8.2186,8.2186,8.215,8.2113,8.1966,8.1636,8.1269,8.0351,7.9433,7.8772,7.8185,7.7965,7.7839,7.8369,7.9103,7.9596,7.9837,8.0241,8.0718,8.1269,8.1782,8.2039,8.2076,8.245,8.237,8.2662,8.3189,8.3461,8.3529,8.3784,8.3915,8.4154,8.4384,8.4839,8.5232,8.5399,8.5636,8.5919,8.6094,8.6094,8.6094,8.6247,8.6363,8.644,8.6671,8.6824,8.7055,7.7326,7.7326,7.7326,7.7326,7.7326,7.7326,7.7326,7.7326,7.7326,7.7326,7.7326,7.7326,7.7326,7.7326,7.7326,7.7326,7.7326,7.7326,7.7326,7.7326,7.7326,7.7326,7.7326,7.7326,7.7326,7.7326,7.7326,7.7326,7.7326,7.7326,7.7326,7.7326,7.7326,7.7326,7.7326,7.7326,7.7326,7.7289,7.751,7.809,7.8816,7.8562,7.8405,7.8432,7.8163,7.7577,7.732,7.7326,7.7326,7.7326,7.7326,7.7326,7.7326,7.7326,7.7546,7.7913,7.8369,7.8736,7.9213,7.9764,8.0461,8.0681,8.0755,8.0991,8.1525,8.1562,8.1893,8.1929,8.215,8.2186,8.2003,8.1893,8.1599,8.1232,8.0645,7.9874,7.8993,7.8222,7.7839,7.7619,7.7729,7.8259,7.8956,7.9633,8.0,8.0681,8.1122,8.1195,8.1672,8.2113,8.215,8.2186,8.2186,8.2219,8.2585,8.2793,8.2853,8.314,8.3447,8.3529,8.3693,8.4545,8.5162,8.527,8.5495,8.5954,8.6094,8.6286,8.6555,8.6786,8.6863,8.6901,8.7171,8.7478,8.7825,7.7326,7.7326,7.7326,7.7326,7.7326,7.7326,7.7326,7.7326,7.7326,7.7326,7.7326,7.7326,7.7326,7.7326,7.7326,7.7326,7.7326,7.7326,7.7326,7.7326,7.7326,7.7326,7.7326,7.7326,7.7326,7.7326,7.7326,7.7326,7.7326,7.7326,7.7326,7.7326,7.7326,7.7326,7.7326,7.7326,7.7326,7.7411,7.7607,7.8002,7.82,7.8268,7.8336,7.8336,7.8159,7.7846,7.7465,7.7326,7.7326,7.7326,7.7326,7.7326,7.7326,7.7326,7.7619,7.7986,7.8096,7.8552,7.9066,7.9339,7.9596,7.9669,7.9706,8.0073,8.0681,8.1122,8.1452,8.1709,8.1929,8.2113,8.1929,8.1562,8.1195,8.0608,7.9947,7.9323,7.8479,7.7876,7.7803,7.7619,7.8023,7.8479,7.8993,7.9706,8.033,8.1012,8.1379,8.1415,8.1599,8.1966,8.2186,8.2186,8.2186,8.2235,8.2247,8.2343,8.2465,8.2497,8.2793,8.2808,8.3038,8.3787,8.4475,8.4995,8.5329,8.6073,8.6513,8.6786,8.7055,8.744,8.7555,8.7718,8.8017,8.8363,8.8671,7.7326,7.7326,7.7326,7.7326,7.7326,7.7326,7.7326,7.7326,7.7326,7.7326,7.7326,7.7326,7.7326,7.7326,7.7326,7.7326,7.7326,7.7326,7.7326,7.7326,7.7326,7.7326,7.7326,7.7326,7.7326,7.7326,7.7326,7.7326,7.7326,7.7326,7.7326,7.7326,7.7326,7.7326,7.7326,7.7326,7.7304,7.7411,7.7396,7.7629,7.7739,7.7903,7.8268,7.8104,7.7768,7.751,7.7341,7.7326,7.7326,7.7326,7.7326,7.7326,7.7326,7.7326,7.7509,7.7619,7.7729,7.7839,7.8222,7.8589,7.8736,7.8862,7.9045,7.9559,8.0131,8.0681,8.0975,8.1195,8.1525,8.2003,8.1856,8.1269,8.0791,7.98,7.8993,7.8442,7.7766,7.8148,7.8442,7.8589,7.8919,7.9286,7.9617,8.0204,8.0718,8.1305,8.1746,8.1819,8.1856,8.2039,8.2186,8.2186,8.2186,8.2186,8.2203,8.2219,8.2279,8.2219,8.2256,8.2534,8.2773,8.3009,8.3675,8.4743,8.5703,8.6499,8.6927,8.7307,8.794,8.8333,8.841,8.8564,8.891,8.921,8.9556]}]]